[[{"header":{"parameterUnit":"m.s-1","parameterCategory":1,"la1":30.6,"la2":29.2853,"lo1":-89.7004,"lo2":-87.6739,"dy":0.0162,"dx":0.0183,"nx":112,"ny":82,"refTime":"2023-08-22T06:00:00:Z","depth":0,"parameterNumber":2,"parameterNumberName":"U-component_of_WINDS"},"data":[0.0,0.0,0.0,0.0,0.0,0.0,0.0,0.0,0.0,0.0,0.0,0.0,0.0,0.0,0.0,0.0,0.0,0.0,0.0,0.0,0.0,0.0,0.0,0.0,0.0,0.0,0.0,0.0,0.0,0.0,0.0,0.0,0.0,0.0,0.0,0.0,0.0,0.0,0.0,0.0,0.0,0.0,0.0,0.0,0.0,0.0,0.0,0.0,0.0,0.0,0.0,0.0,0.0,0.0,0.0,0.0,0.0,0.0,0.0,0.0,0.0,0.0,0.0,0.0,0.0,0.0,0.0,0.0,0.0,0.0,0.0,0.0,0.0,0.0,0.0,0.0,0.0,0.0,0.0,0.0,0.0,0.0,0.0,0.0,0.0,0.0,0.0,0.0,0.0,0.0,-4.0184,-4.3484,-4.6523,-4.8638,-4.9537,-4.8663,-4.6428,-4.2447,0.0,0.0,0.0,0.0,0.0,0.0,0.0,0.0,0.0,0.0,0.0,0.0,0.0,0.0,0.0,0.0,0.0,0.0,0.0,0.0,0.0,0.0,0.0,0.0,0.0,0.0,0.0,0.0,0.0,0.0,0.0,0.0,0.0,0.0,0.0,0.0,0.0,0.0,0.0,0.0,0.0,0.0,0.0,0.0,0.0,0.0,0.0,0.0,0.0,0.0,0.0,0.0,0.0,0.0,0.0,0.0,0.0,0.0,0.0,0.0,0.0,0.0,0.0,0.0,0.0,0.0,0.0,0.0,0.0,0.0,0.0,0.0,0.0,0.0,0.0,0.0,0.0,0.0,0.0,0.0,0.0,0.0,0.0,0.0,0.0,0.0,0.0,0.0,0.0,0.0,0.0,0.0,0.0,0.0,0.0,0.0,0.0,0.0,0.0,0.0,0.0,0.0,0.0,0.0,-4.0135,-4.5305,-4.6239,-4.7072,-4.8555,-4.7797,-4.5795,-4.2496,0.0,0.0,0.0,0.0,0.0,0.0,0.0,0.0,0.0,0.0,0.0,0.0,0.0,0.0,0.0,0.0,0.0,0.0,0.0,0.0,0.0,0.0,0.0,0.0,0.0,0.0,0.0,0.0,0.0,0.0,0.0,0.0,0.0,0.0,0.0,0.0,0.0,0.0,0.0,0.0,0.0,0.0,0.0,0.0,0.0,0.0,0.0,0.0,0.0,0.0,0.0,0.0,0.0,0.0,0.0,0.0,0.0,0.0,0.0,0.0,0.0,0.0,0.0,0.0,0.0,0.0,0.0,0.0,0.0,0.0,0.0,0.0,0.0,0.0,0.0,0.0,0.0,0.0,0.0,0.0,0.0,0.0,0.0,0.0,0.0,0.0,0.0,0.0,0.0,0.0,0.0,0.0,0.0,0.0,0.0,0.0,0.0,0.0,0.0,0.0,0.0,0.0,0.0,-3.9664,-4.2344,-4.5813,-4.6077,-4.645,-4.7594,-4.6813,-4.5118,-4.2412,-4.1029,0.0,0.0,0.0,0.0,0.0,0.0,0.0,0.0,0.0,0.0,0.0,0.0,0.0,0.0,0.0,0.0,0.0,0.0,0.0,0.0,0.0,0.0,0.0,0.0,0.0,0.0,0.0,0.0,0.0,0.0,0.0,0.0,0.0,0.0,0.0,0.0,0.0,0.0,0.0,0.0,0.0,0.0,0.0,0.0,0.0,0.0,0.0,0.0,0.0,0.0,0.0,0.0,0.0,0.0,0.0,0.0,0.0,0.0,0.0,0.0,0.0,0.0,0.0,0.0,0.0,0.0,0.0,0.0,0.0,0.0,0.0,0.0,0.0,0.0,0.0,0.0,0.0,0.0,0.0,0.0,0.0,0.0,0.0,0.0,0.0,0.0,0.0,0.0,0.0,0.0,0.0,0.0,0.0,0.0,0.0,0.0,0.0,0.0,0.0,0.0,0.0,0.0,-4.2607,-4.4724,-4.5982,-4.5981,-4.6217,-4.6939,-4.6135,-4.4538,-4.2086,-4.0526,0.0,0.0,0.0,0.0,0.0,0.0,0.0,0.0,0.0,0.0,0.0,0.0,0.0,0.0,0.0,0.0,0.0,0.0,0.0,0.0,0.0,0.0,0.0,0.0,0.0,0.0,0.0,0.0,0.0,0.0,0.0,0.0,0.0,0.0,0.0,0.0,0.0,0.0,0.0,0.0,0.0,0.0,0.0,0.0,0.0,0.0,0.0,0.0,0.0,0.0,0.0,0.0,0.0,0.0,0.0,0.0,0.0,0.0,0.0,0.0,0.0,0.0,0.0,0.0,0.0,0.0,0.0,0.0,0.0,0.0,0.0,0.0,0.0,0.0,0.0,0.0,0.0,0.0,0.0,0.0,0.0,0.0,0.0,0.0,0.0,0.0,0.0,0.0,0.0,0.0,0.0,0.0,0.0,0.0,0.0,0.0,0.0,0.0,0.0,0.0,0.0,0.0,-4.2951,-4.6092,-4.6095,-4.5981,-4.6217,-4.6939,-4.6135,-4.4308,-4.1264,-4.0197,0.0,0.0,0.0,0.0,0.0,0.0,0.0,0.0,0.0,0.0,0.0,0.0,0.0,0.0,0.0,0.0,0.0,0.0,0.0,0.0,0.0,0.0,0.0,0.0,0.0,0.0,0.0,0.0,0.0,0.0,0.0,0.0,0.0,0.0,0.0,0.0,0.0,0.0,0.0,0.0,0.0,0.0,0.0,0.0,0.0,0.0,0.0,0.0,0.0,0.0,0.0,0.0,0.0,0.0,0.0,0.0,0.0,0.0,0.0,0.0,0.0,0.0,0.0,0.0,0.0,0.0,0.0,0.0,0.0,0.0,0.0,0.0,0.0,0.0,0.0,0.0,0.0,0.0,0.0,0.0,0.0,0.0,0.0,0.0,0.0,0.0,0.0,0.0,0.0,0.0,0.0,0.0,0.0,0.0,0.0,0.0,0.0,0.0,0.0,0.0,0.0,0.0,-4.2031,-4.4965,0.0,-4.5877,-4.5919,-4.6113,-4.5791,-4.4269,-4.1128,0.0,0.0,0.0,0.0,0.0,0.0,0.0,0.0,0.0,0.0,0.0,0.0,0.0,0.0,0.0,0.0,0.0,0.0,0.0,0.0,0.0,0.0,0.0,0.0,0.0,0.0,0.0,0.0,0.0,0.0,0.0,0.0,0.0,0.0,0.0,0.0,0.0,0.0,0.0,0.0,0.0,0.0,0.0,0.0,0.0,0.0,0.0,0.0,0.0,0.0,0.0,0.0,0.0,0.0,0.0,0.0,0.0,0.0,0.0,0.0,0.0,0.0,0.0,0.0,0.0,0.0,0.0,0.0,0.0,0.0,0.0,0.0,0.0,0.0,0.0,0.0,0.0,0.0,0.0,0.0,0.0,0.0,0.0,0.0,0.0,0.0,0.0,0.0,0.0,0.0,0.0,0.0,0.0,0.0,0.0,0.0,0.0,0.0,0.0,0.0,0.0,0.0,-3.8612,-4.187,-4.446,0.0,-4.5836,-4.5747,-4.5612,-4.5094,-4.357,-4.07,0.0,0.0,0.0,0.0,0.0,0.0,0.0,0.0,0.0,0.0,0.0,0.0,0.0,0.0,0.0,0.0,0.0,0.0,0.0,0.0,0.0,0.0,0.0,0.0,0.0,0.0,0.0,0.0,0.0,0.0,0.0,0.0,0.0,0.0,0.0,0.0,0.0,0.0,0.0,0.0,0.0,0.0,0.0,0.0,0.0,0.0,0.0,0.0,0.0,0.0,0.0,0.0,0.0,0.0,0.0,0.0,0.0,0.0,0.0,0.0,0.0,0.0,0.0,0.0,0.0,0.0,0.0,0.0,0.0,0.0,0.0,0.0,0.0,0.0,0.0,0.0,0.0,0.0,0.0,0.0,0.0,0.0,0.0,0.0,0.0,0.0,0.0,0.0,0.0,0.0,0.0,0.0,0.0,0.0,0.0,0.0,0.0,0.0,0.0,0.0,0.0,0.0,-3.9593,-4.2729,-4.5084,-4.5814,-4.5836,-4.574,-4.5612,-4.4085,-4.2114,0.0,0.0,0.0,0.0,0.0,0.0,0.0,0.0,0.0,0.0,0.0,0.0,0.0,0.0,0.0,0.0,0.0,0.0,0.0,0.0,0.0,0.0,0.0,0.0,0.0,0.0,0.0,0.0,0.0,0.0,0.0,0.0,0.0,0.0,0.0,0.0,0.0,0.0,0.0,0.0,0.0,0.0,0.0,0.0,0.0,0.0,0.0,0.0,0.0,0.0,0.0,0.0,0.0,0.0,0.0,0.0,0.0,0.0,0.0,0.0,0.0,0.0,0.0,0.0,0.0,0.0,0.0,0.0,0.0,0.0,0.0,0.0,0.0,0.0,0.0,0.0,0.0,0.0,0.0,0.0,0.0,0.0,0.0,0.0,0.0,0.0,0.0,0.0,0.0,0.0,0.0,0.0,0.0,0.0,0.0,0.0,0.0,0.0,0.0,0.0,0.0,0.0,0.0,-3.936,-4.2088,-4.4319,-4.5675,-4.5733,-4.5393,-4.4748,-4.4239,-4.256,-3.9318,0.0,0.0,0.0,0.0,0.0,0.0,0.0,0.0,0.0,0.0,0.0,0.0,0.0,0.0,0.0,0.0,0.0,0.0,0.0,0.0,0.0,0.0,0.0,0.0,0.0,0.0,0.0,0.0,0.0,0.0,0.0,0.0,0.0,0.0,0.0,0.0,0.0,0.0,0.0,0.0,0.0,0.0,0.0,0.0,0.0,0.0,0.0,0.0,0.0,0.0,0.0,0.0,0.0,0.0,0.0,0.0,0.0,0.0,0.0,0.0,0.0,0.0,0.0,0.0,0.0,0.0,0.0,0.0,0.0,0.0,0.0,0.0,0.0,0.0,0.0,0.0,0.0,0.0,0.0,0.0,0.0,0.0,0.0,0.0,0.0,0.0,0.0,0.0,0.0,0.0,0.0,0.0,0.0,0.0,0.0,0.0,0.0,0.0,0.0,0.0,0.0,0.0,-3.9692,-4.1971,-4.3813,-4.5131,-4.5148,-4.4855,-4.4355,-4.3701,-4.2194,-3.9528,0.0,0.0,0.0,0.0,0.0,0.0,0.0,0.0,0.0,0.0,0.0,0.0,0.0,0.0,0.0,0.0,0.0,0.0,0.0,0.0,0.0,0.0,0.0,0.0,0.0,0.0,0.0,0.0,0.0,0.0,0.0,0.0,0.0,0.0,0.0,0.0,0.0,0.0,0.0,0.0,0.0,0.0,0.0,0.0,0.0,0.0,0.0,0.0,0.0,0.0,0.0,0.0,0.0,0.0,0.0,0.0,0.0,0.0,0.0,0.0,0.0,0.0,0.0,0.0,0.0,0.0,0.0,0.0,0.0,0.0,0.0,0.0,0.0,0.0,0.0,0.0,0.0,0.0,0.0,0.0,0.0,0.0,0.0,0.0,0.0,0.0,0.0,0.0,0.0,0.0,0.0,0.0,0.0,0.0,0.0,0.0,0.0,0.0,0.0,0.0,0.0,0.0,-4.0321,-4.22,-4.3518,-4.4402,-4.4361,-4.4239,-4.4085,-4.2662,-4.1264,-4.0053,0.0,0.0,0.0,0.0,0.0,0.0,0.0,0.0,0.0,0.0,0.0,0.0,0.0,0.0,0.0,0.0,0.0,0.0,0.0,0.0,0.0,0.0,0.0,0.0,0.0,0.0,0.0,0.0,0.0,0.0,0.0,0.0,0.0,0.0,0.0,0.0,0.0,0.0,0.0,0.0,0.0,0.0,0.0,0.0,0.0,0.0,0.0,0.0,0.0,0.0,0.0,0.0,0.0,0.0,0.0,0.0,0.0,0.0,0.0,0.0,-4.6441,0.0,0.0,0.0,0.0,0.0,0.0,0.0,0.0,0.0,0.0,0.0,0.0,0.0,0.0,0.0,0.0,0.0,0.0,0.0,0.0,0.0,0.0,0.0,0.0,0.0,0.0,0.0,0.0,0.0,0.0,0.0,0.0,0.0,0.0,0.0,0.0,0.0,0.0,0.0,0.0,0.0,-4.0229,-4.2112,-4.3504,-4.4253,-4.4311,-4.3778,-4.247,-4.2,-4.1025,-3.9176,-3.7895,0.0,0.0,0.0,0.0,0.0,0.0,0.0,0.0,0.0,0.0,0.0,0.0,0.0,0.0,0.0,0.0,0.0,0.0,0.0,0.0,0.0,0.0,0.0,0.0,0.0,0.0,0.0,0.0,0.0,0.0,0.0,0.0,0.0,0.0,0.0,0.0,0.0,0.0,0.0,0.0,0.0,0.0,0.0,0.0,0.0,0.0,0.0,0.0,0.0,0.0,0.0,0.0,0.0,0.0,0.0,0.0,0.0,0.0,0.0,0.0,-4.7624,0.0,0.0,0.0,0.0,0.0,0.0,0.0,0.0,0.0,0.0,0.0,0.0,0.0,0.0,0.0,0.0,0.0,0.0,0.0,0.0,0.0,0.0,0.0,0.0,0.0,0.0,0.0,0.0,0.0,0.0,0.0,0.0,0.0,0.0,0.0,0.0,0.0,0.0,0.0,0.0,-4.0185,-4.1677,-4.2811,-4.3632,-4.3355,-4.2739,-4.1885,-4.1431,-4.0688,-3.9519,-3.8009,0.0,0.0,0.0,0.0,0.0,0.0,0.0,0.0,0.0,0.0,0.0,0.0,0.0,0.0,0.0,0.0,0.0,0.0,0.0,0.0,0.0,0.0,0.0,0.0,0.0,0.0,0.0,0.0,0.0,0.0,0.0,0.0,0.0,0.0,0.0,0.0,0.0,0.0,0.0,0.0,0.0,0.0,0.0,0.0,0.0,0.0,0.0,0.0,0.0,0.0,0.0,0.0,0.0,-5.2461,-5.2812,-5.3359,-5.2617,-5.2531,-5.2866,-5.1258,-5.0209,-4.9604,-4.8836,0.0,0.0,0.0,0.0,0.0,0.0,0.0,0.0,0.0,0.0,0.0,0.0,0.0,0.0,0.0,0.0,0.0,0.0,0.0,0.0,0.0,0.0,0.0,0.0,-4.2893,-4.3124,0.0,0.0,0.0,0.0,0.0,0.0,0.0,0.0,0.0,0.0,0.0,0.0,-4.0015,-4.1162,-4.2085,-4.2816,-4.2239,-4.1731,-4.1585,-4.0893,-4.0364,-4.0032,-3.8357,-3.6942,0.0,0.0,0.0,0.0,0.0,0.0,0.0,0.0,0.0,0.0,0.0,0.0,0.0,0.0,0.0,0.0,0.0,0.0,0.0,0.0,0.0,0.0,0.0,0.0,0.0,0.0,0.0,0.0,0.0,0.0,0.0,0.0,-4.5407,-4.755,0.0,0.0,0.0,0.0,0.0,0.0,0.0,0.0,0.0,0.0,0.0,0.0,0.0,-5.2617,-5.3476,-5.4336,-5.5156,-5.5937,-5.668,-5.6719,-5.6094,-5.5976,-5.55,-5.4747,-5.4495,0.0,-5.0619,-5.0441,0.0,0.0,0.0,0.0,0.0,0.0,0.0,0.0,0.0,0.0,0.0,0.0,0.0,0.0,0.0,0.0,0.0,0.0,0.0,0.0,0.0,0.0,-4.4902,-4.4162,-4.4624,-4.521,0.0,-4.2593,-4.04,-4.0054,-3.8815,0.0,0.0,0.0,0.0,0.0,0.0,0.0,-3.94,-4.0816,-4.1846,-4.1962,-4.1885,-4.1508,-4.0746,-4.0554,-4.0257,-3.972,-3.8757,-3.7952,-3.7264,-3.5583,0.0,0.0,0.0,0.0,0.0,0.0,0.0,0.0,0.0,0.0,0.0,0.0,0.0,0.0,0.0,0.0,0.0,0.0,0.0,0.0,0.0,0.0,0.0,0.0,0.0,0.0,0.0,0.0,0.0,-4.288,-4.6555,-4.6468,-4.7837,-4.7778,0.0,0.0,0.0,0.0,0.0,0.0,0.0,0.0,0.0,-5.3468,-5.4413,-5.5312,-5.6172,-5.707,-5.7422,-5.7344,-5.7734,-5.7695,-5.7305,-5.6836,-5.6594,-5.6545,-5.6503,-5.5494,-5.3741,-5.267,-5.115,-4.9433,0.0,0.0,0.0,0.0,-4.6201,-4.597,-4.6471,-4.6971,0.0,-4.6124,0.0,0.0,0.0,0.0,0.0,0.0,0.0,0.0,0.0,0.0,-4.4893,-4.5017,-4.5325,-4.5594,-4.5594,-4.444,-4.3094,0.0,-4.1354,-4.0546,-3.9477,0.0,0.0,0.0,0.0,-3.9477,-3.9938,-4.02,-4.0585,-4.1008,-4.0239,-3.97,-3.9823,-3.9823,-3.975,-3.9626,-3.8837,-3.8153,-3.7522,-3.6376,-3.5481,0.0,0.0,0.0,0.0,0.0,0.0,0.0,0.0,0.0,0.0,0.0,0.0,0.0,0.0,0.0,0.0,0.0,0.0,0.0,0.0,0.0,0.0,0.0,0.0,0.0,0.0,0.0,0.0,-4.5042,-4.7726,-4.6334,-4.8914,-4.946,0.0,0.0,0.0,0.0,0.0,0.0,-5.193,-5.2797,-5.4143,-5.6113,-5.7063,-5.7925,-5.8824,-5.9062,-5.8984,-5.8515,-5.8086,-5.789,-5.789,-5.7226,-5.7105,-5.743,-5.7389,-5.692,-5.6115,-5.4413,-5.2824,-5.1268,-4.9923,-4.9009,-4.8394,-4.8202,-4.8086,-4.8202,-4.8856,-4.9471,-4.9702,-4.7817,0.0,-4.6163,-4.4047,0.0,0.0,0.0,0.0,-4.3893,-4.447,-4.4624,-4.4778,-4.5441,-4.5594,-4.5594,-4.5594,-4.5441,-4.4979,0.0,-4.3393,-4.2508,-4.0585,0.0,0.0,0.0,0.0,-3.9515,-4.0131,-3.9477,-3.9284,-4.0092,-3.8892,-3.8277,-3.8892,-3.9169,-3.9282,-3.9275,-3.8912,-3.844,-3.7816,-3.6817,-3.6009,-3.5334,0.0,0.0,0.0,0.0,0.0,0.0,0.0,0.0,0.0,0.0,0.0,0.0,0.0,0.0,0.0,0.0,0.0,0.0,0.0,0.0,0.0,0.0,0.0,0.0,0.0,0.0,0.0,0.0,0.0,-5.0463,-5.2935,0.0,0.0,0.0,0.0,-5.0519,-5.201,-5.3388,-5.4475,-5.5265,-5.6573,-5.8482,-5.951,-6.0453,-6.1314,-5.9916,-5.957,-6.0273,-5.8672,-5.789,-5.789,-5.7851,-5.7383,-5.664,-5.664,-5.6551,-5.6296,-5.512,-5.4072,-5.3004,-5.042,-4.9356,-4.924,-4.8394,-4.8086,-4.8125,-4.8163,-4.8202,-4.8202,-4.8086,-4.6971,-4.5479,-4.4509,-4.4239,0.0,0.0,-4.4778,-4.5479,-4.5518,-4.5518,-4.5556,-4.5594,-4.5594,-4.5594,-4.5594,-4.494,-4.4586,0.0,-4.4201,-4.3047,-4.2931,0.0,-4.0169,-3.9361,-3.9284,-3.9323,-3.9361,-3.8584,-3.8392,-3.9284,-3.8546,-3.8007,-3.8046,-3.8815,-3.9014,-3.8422,-3.9116,-3.9252,-3.8646,-3.711,-3.6266,-3.6229,-3.3817,0.0,0.0,0.0,0.0,0.0,0.0,0.0,0.0,0.0,0.0,0.0,0.0,0.0,0.0,0.0,0.0,0.0,0.0,0.0,0.0,0.0,0.0,0.0,0.0,0.0,0.0,0.0,0.0,-5.1174,-5.3634,0.0,-5.1646,-5.2447,-5.3357,-5.3885,-5.4972,-5.6328,-5.7882,-5.8247,-5.8777,-5.9493,-5.9864,-5.9932,-5.9702,-5.9246,-5.8884,-5.865,-5.8123,-5.7617,-5.707,-5.707,-5.6875,-5.6601,-5.6601,-5.6562,-5.6475,-5.6,-5.518,-5.4034,-5.1934,-5.1073,-5.0933,-5.0087,-4.9779,-4.9702,-4.9125,-4.8933,-4.8779,-4.7702,-4.6547,-4.5556,-4.5248,-4.5133,-4.5133,-4.5133,-4.5364,-4.5594,-4.5594,-4.5594,-4.5594,-4.5594,-4.5594,-4.5441,-4.4893,-4.4509,-4.4239,-4.4008,-4.3508,-4.2931,-4.2354,-4.1739,-4.1046,-4.0208,-3.9631,-3.9284,-3.9284,-3.8046,-3.7276,-3.7584,-3.6892,-3.6615,-3.7123,-3.7969,-3.821,-3.7575,-3.8346,-3.8328,-3.7177,-3.6597,-3.5789,-3.4724,-3.3807,-3.2653,0.0,0.0,0.0,0.0,0.0,0.0,0.0,0.0,0.0,0.0,0.0,0.0,0.0,0.0,0.0,0.0,0.0,0.0,0.0,0.0,0.0,0.0,0.0,0.0,0.0,0.0,-5.2568,-5.1787,-5.4369,-5.5409,-5.3305,-5.4425,-5.5687,-5.6673,-5.7541,-5.8538,-5.9631,-5.9717,-5.9607,-5.9444,-5.9477,-5.9238,-5.8655,-5.8485,-5.8162,-5.7682,-5.7483,-5.695,-5.6172,-5.6172,-5.6172,-5.6133,-5.5859,-5.5898,-5.6094,-5.5416,-5.4869,-5.4277,-5.3032,-5.2467,-5.2289,-5.1126,-5.0712,-5.0568,-4.9756,-4.908,-4.8424,-4.7268,-4.6339,-4.5594,-4.5594,-4.5594,-4.5594,-4.5594,-4.5646,-4.5665,-4.5665,-4.5681,-4.5694,-4.5694,-4.5493,-4.5124,-4.4484,-4.3936,-4.3378,-4.2849,-4.271,-4.2486,-4.1978,-4.16,-4.1222,-4.0651,-3.9609,-3.901,-3.9253,-3.7546,-3.6385,-3.6654,-3.5962,-3.5731,-3.6231,-3.6987,-3.7215,-3.6745,-3.7427,-3.7356,-3.6332,-3.6009,-3.5349,-3.4234,-3.366,-3.2742,-3.1397,0.0,0.0,0.0,0.0,0.0,0.0,0.0,0.0,0.0,0.0,0.0,0.0,0.0,0.0,0.0,0.0,0.0,0.0,0.0,0.0,0.0,0.0,0.0,-4.8421,-5.1325,-5.3093,-5.2735,-5.5468,-5.6649,-5.4606,-5.6664,-5.8316,-5.8787,-5.9593,-5.9915,-5.9554,-5.95,-5.9127,-5.8319,-5.8394,-5.8441,-5.8402,-5.7671,-5.7424,-5.7596,-5.674,-5.5952,-5.5234,-5.5273,-5.5273,-5.5195,-5.4375,-5.4492,-5.5117,-5.3437,-5.3156,-5.376,-5.3455,-5.3359,-5.3135,-5.1364,-5.0693,-5.0528,-4.9769,-4.8403,-4.6971,-4.6971,-4.6352,-4.5612,-4.5612,-4.5612,-4.5603,-4.5603,-4.5712,-4.577,-4.577,-4.5814,-4.5875,-4.5875,-4.5252,-4.4637,-4.4465,-4.3179,-4.2023,-4.1933,-4.1805,-4.174,-4.1912,-4.1201,-4.062,-4.0665,-3.9243,0.0,-3.9121,-3.7046,-3.5808,-3.6615,-3.6,-3.5538,-3.5538,-3.602,-3.6216,-3.5893,-3.6368,-3.653,-3.6272,-3.5422,-3.4968,-3.4968,-3.3426,-3.2228,-3.1433,0.0,0.0,0.0,0.0,0.0,0.0,0.0,0.0,0.0,0.0,0.0,0.0,0.0,0.0,0.0,0.0,0.0,0.0,0.0,0.0,0.0,0.0,-4.7497,-5.0687,-5.2844,-5.4732,-5.6309,-5.7302,-5.774,-5.7526,-5.8127,-5.8728,-5.9202,-5.9749,-6.0046,-5.9953,-5.965,-5.9127,-5.8319,-5.7713,-5.7099,-5.6482,-5.5799,-5.5468,-5.5514,-5.4855,-5.4416,-5.4236,-5.4295,-5.4375,-5.4336,-5.4101,-5.4141,-5.4336,-5.3828,-5.3749,-5.3782,-5.2389,-5.2134,-5.2463,-5.1372,-5.0195,-4.8998,-4.8139,-4.7139,-4.6212,-4.6212,-4.6035,-4.5809,-4.5809,-4.577,-4.5747,-4.5747,-4.5719,-4.5648,-4.5648,-4.5283,-4.4864,-4.4864,-4.4321,-4.3562,-4.2908,-4.1911,-4.0991,-4.0377,-3.9714,-3.9665,-4.0917,-3.9839,-3.9066,-3.9776,-3.8404,0.0,-3.7543,-3.635,-3.5808,-3.6615,-3.65,-3.6385,-3.6385,-3.7071,-3.6916,-3.5417,-3.5821,-3.5728,-3.481,-3.4344,-3.4137,-3.4137,-3.3133,-3.2472,0.0,0.0,0.0,0.0,0.0,0.0,0.0,0.0,0.0,0.0,0.0,0.0,0.0,0.0,0.0,0.0,0.0,0.0,0.0,0.0,0.0,0.0,-4.5691,-4.8266,-5.1324,-5.3068,-5.4641,-5.6392,-5.6832,-5.7103,-5.7376,-5.7418,-5.7607,-5.807,-5.8353,-5.8515,-5.8539,-5.8336,-5.7884,-5.7242,-5.6703,-5.6049,-5.5203,-5.4824,-5.4448,-5.4157,-5.3786,-5.3459,-5.3189,-5.3233,-5.3338,-5.3351,-5.3,-5.3083,-5.3437,-5.3047,-5.2891,0.0,0.0,0.0,0.0,0.0,-4.9171,-4.7969,-4.7458,-4.6722,-4.5985,-4.5985,-4.5955,-4.5879,-4.5879,-4.5867,-4.5842,-4.5842,-4.5825,-4.5807,-4.5807,-4.5245,-4.4709,-4.4709,-4.3812,-4.2822,-4.2286,-4.1248,-4.0284,-3.9747,-3.8688,0.0,-3.9628,-3.8949,-3.8432,-3.8991,-3.7876,-3.6934,-3.6913,-3.6074,-3.5692,-3.6154,-3.6192,-3.6192,-3.6192,-3.655,0.0,0.0,0.0,-3.4836,-3.4043,-3.3876,0.0,0.0,0.0,-3.3096,-3.3096,0.0,0.0,0.0,-3.4091,-3.4562,0.0,0.0,0.0,0.0,0.0,0.0,0.0,0.0,0.0,0.0,0.0,0.0,0.0,0.0,0.0,0.0,-4.6989,-4.8647,-5.0754,-5.2068,-5.323,-5.4348,-5.5047,-5.5485,-5.5485,-5.5552,-5.5776,-5.6214,-5.6254,-5.6344,-5.6378,0.0,0.0,0.0,0.0,-5.5209,-5.4626,-5.4357,-5.3938,-5.3383,-5.3213,-5.277,-5.2129,-5.2144,-5.2247,-5.2286,-5.1513,-5.1698,-5.246,-5.1719,-5.1367,-5.1328,-5.1973,-5.1759,-5.0855,-4.9056,-4.7983,-4.742,-4.7303,0.0,0.0,-4.6138,-4.6022,-4.5955,-4.5955,-4.5948,-4.5939,-4.5939,-4.5917,-4.5924,-4.5924,-4.5335,-4.4687,-4.4687,-4.3398,-4.2147,-4.2165,-4.0813,-3.9608,-3.9585,-3.8213,-3.7327,-3.8164,-3.819,-3.8163,-3.8247,-3.7464,-3.6844,-3.6808,-3.6033,-3.5534,-3.5649,0.0,0.0,-3.5654,-3.5423,-3.5196,-3.5005,-3.4453,-3.4006,-3.382,-3.3807,-3.3807,-3.3807,-3.3807,-3.3807,-3.3807,-3.3766,-3.3753,-3.3739,-3.4399,-3.4693,0.0,0.0,0.0,0.0,0.0,0.0,0.0,0.0,0.0,0.0,0.0,0.0,0.0,0.0,0.0,-4.6278,-4.7327,-4.8237,-4.9301,-4.9608,-5.0751,-5.3389,-5.4345,-5.4786,-5.4786,-5.5268,-5.564,-5.5711,-5.6095,-5.6313,-5.6311,-5.5998,-5.5958,-5.6243,-5.4906,-5.4609,-5.5472,-5.3433,-5.2684,-5.3205,0.0,0.0,-5.1185,-5.1275,-5.1342,-5.1369,-5.1255,-5.1327,-5.1496,-5.1404,-5.1016,-5.0469,-5.0585,-5.0545,-5.0193,-4.8432,-4.769,-4.7459,-4.6756,-4.6404,-4.6248,-4.6248,-4.6247,-4.6205,-4.6205,-4.6147,0.0,-4.6072,-4.5527,-4.4974,-4.4974,-4.3905,-4.282,-4.282,-4.1555,-4.0586,-4.1249,-3.9492,-3.8008,-3.8671,-3.742,-3.6288,-3.6484,-3.6434,-3.6654,-3.7419,-3.6698,-3.6118,-3.6104,-3.581,-3.5858,-3.6549,-3.6511,-3.6462,-3.6462,-3.6433,-3.5797,-3.4459,-3.3845,-3.362,-3.3797,-3.3807,-3.3807,-3.3807,-3.3807,-3.3807,-3.3807,-3.348,-3.3335,-3.3335,-3.3771,-3.396,0.0,0.0,0.0,0.0,0.0,0.0,0.0,0.0,0.0,0.0,0.0,-4.205,0.0,0.0,-4.6278,-4.8139,-4.8443,-4.8477,-4.8477,-4.8401,-4.9223,-5.1507,-5.2093,-5.2554,-5.3303,-5.3647,-5.3981,-5.4378,-5.4601,-5.4847,-5.5025,-5.446,-5.435,-5.4766,-5.3769,-5.3289,-5.3495,-5.2438,-5.1933,-5.1933,-5.118,-5.0808,-5.0816,-5.0883,-5.0939,-5.0984,-5.1025,-5.1092,-5.1147,-5.126,-5.0855,-5.0156,-4.9643,-4.9215,-4.875,-4.7422,-4.6953,-4.6875,-4.6445,-4.6289,-4.6289,-4.6289,-4.6289,-4.6289,-4.6289,-4.5935,-4.5536,-4.5536,-4.4898,-4.4213,-4.4213,-4.3294,-4.2331,-4.2331,-4.1442,-4.0547,-4.0547,-3.918,-3.7969,-3.7969,-3.6875,-3.6016,-3.6016,-3.5622,-3.5619,-3.6523,-3.6239,-3.5745,-3.5314,-3.5076,-3.4967,-3.4961,-3.4872,-3.4814,-3.4814,-3.4814,-3.4389,-3.3408,-3.2981,-3.2814,-3.281,-3.304,-3.322,-3.322,-3.3587,-3.3807,-3.3807,-3.3177,-3.2911,-3.2875,-3.27,-3.2973,0.0,0.0,0.0,0.0,0.0,0.0,0.0,0.0,-3.8381,-4.041,-4.175,-4.3359,-4.5996,-4.676,-4.7585,-4.9562,-4.939,-4.8815,-4.8206,-4.7868,-4.8175,-4.9441,-4.9571,-5.0075,-5.1345,-5.1598,-5.2038,-5.2937,-5.298,-5.3178,-5.3644,-5.2921,-5.2673,-5.3075,-5.2442,-5.1914,-5.1447,-5.1423,-5.119,-5.0702,-5.064,-5.0594,-5.0594,-5.0644,-5.0776,-5.0836,-5.0719,-5.072,-5.0831,-5.0729,-5.0278,-4.9524,-4.8749,-4.7938,-4.7182,-4.6521,-4.6289,-4.6289,-4.6289,-4.6289,-4.6289,-4.6289,-4.6289,-4.6289,-4.6094,-4.5547,-4.4961,-4.4805,-4.4101,-4.3437,-4.3437,-4.2812,-4.2109,-4.1953,-4.1289,-4.0508,-3.9805,-3.8828,-3.7891,-3.7187,-3.6328,-3.5703,-3.5508,-3.4922,-3.4726,-3.5625,-3.5578,-3.5171,-3.4468,-3.4218,-3.3826,-3.3136,-3.2982,-3.2922,-3.2891,-3.2776,-3.262,-3.2523,-3.2205,-3.1958,-3.1804,-3.2231,-3.2426,-3.2375,-3.2999,-3.333,-3.333,-3.2669,-3.2375,-3.2362,-3.1715,-3.2,-3.2054,-3.2001,-3.3201,-3.5388,-3.5183,-3.5377,0.0,0.0,-3.9809,-4.1433,-4.3227,-4.4885,-4.6258,-4.7045,-4.7832,-4.8962,-4.9052,-4.8984,-4.8883,-4.7767,-4.7221,-4.8056,-4.8099,-4.8352,-4.9199,-4.9854,-5.0805,-5.2123,-5.2206,-5.2518,-5.323,-5.252,-5.2245,-5.2656,-5.116,-5.0869,-5.1924,-5.0487,-5.0123,-5.0795,-5.038,-5.0171,-5.0171,-5.0525,-5.0721,-5.0682,-5.0039,-4.9834,-4.9901,-4.9102,-4.8296,-4.7521,-4.7392,-4.6847,-4.6084,-4.6119,-4.62,-4.6289,-4.6289,-4.6289,-4.6289,-4.6289,-4.6289,-4.6172,-4.5391,-4.5078,-4.4844,-4.4062,-4.3203,-4.2539,-4.2539,-4.1953,-4.1133,-4.0351,-3.9531,-3.8867,-3.8789,-3.7461,-3.625,-3.6172,-3.543,-3.4609,-3.3828,-3.3594,-3.3828,-3.4726,-3.4179,-3.3632,-3.3554,-3.3455,-3.3363,-3.3184,-3.3076,-3.2949,-3.2904,-3.2237,-3.2,-3.2484,-3.1797,-3.1511,-3.1778,-3.1872,-3.1772,-3.1544,-3.1604,-3.169,-3.169,-3.158,-3.1531,-3.1531,-3.1433,-3.1313,-2.9593,-3.0158,-3.1749,-3.2958,-3.4085,-3.5547,-3.8141,-3.8672,-3.9015,-4.0443,-4.2326,-4.4052,-4.4949,-4.6,-4.7235,0.0,-4.846,-4.8219,-4.8318,-4.7462,-4.6752,-4.665,-4.6601,-4.7202,-4.8723,-4.9156,-4.9952,-5.1397,-5.1443,-5.1555,-5.1841,-5.1057,-5.0664,-5.086,-4.993,-4.965,-5.0199,-4.9725,-4.9428,-4.9344,-4.9157,-4.9034,-4.9047,-4.9457,-4.9764,-4.9942,-4.962,-4.9289,-4.892,-4.8532,-4.7922,-4.7207,-4.7173,-4.6639,-4.5927,-4.5971,-4.6008,-4.608,-4.615,-4.6142,-4.6002,-4.5605,-4.5456,-4.5259,-4.444,-4.3863,-4.3398,-4.3047,-4.1992,-4.0937,-4.0852,-4.0185,-3.9477,-3.9066,-3.8707,-3.8278,-3.7769,-3.6717,-3.5742,-3.5233,-3.4433,-3.378,-3.339,-3.3006,-3.2812,-3.3203,-3.332,-3.3242,-3.2773,-3.2607,-3.2335,-3.1763,-3.1588,-3.1536,-3.1525,-3.1168,-3.1046,-3.1276,-3.082,-3.0544,-3.0593,-3.091,-3.0991,-3.0699,-3.1176,-3.1397,-3.1397,-3.0907,-3.0687,-3.0687,-3.021,-2.9905,-2.7654,-2.8517,-3.0005,-3.0964,-3.2784,-3.4891,-3.6834,-3.7509,-3.8063,-3.9185,-4.0954,-4.2654,-4.3609,-4.4743,-4.6074,-4.7722,-4.7566,-4.7375,-4.7778,-4.7029,-4.6413,-4.6317,-4.5974,-4.6476,-4.842,-4.8437,-4.9021,-5.0673,-5.0317,-5.0223,-5.0641,-4.9655,-4.9154,-4.9318,-4.8789,-4.8566,-4.8727,-4.8786,-4.8534,-4.7965,-4.7845,-4.7791,-4.7805,-4.8226,-4.8579,-4.8874,-4.8644,-4.8286,-4.7913,-4.7642,-4.7223,-4.674,-4.6706,-4.6339,-4.577,-4.5542,-4.5667,-4.5892,-4.6005,-4.5985,-4.578,-4.5075,-4.4819,-4.4579,-4.3492,-4.2779,-4.2215,-4.1747,-4.0731,-3.9751,-3.9412,-3.8855,-3.8295,-3.8014,-3.7767,-3.7413,-3.6784,-3.5814,-3.4883,-3.4254,-3.348,-3.2847,-3.2613,-3.1934,-3.1517,-3.1755,-3.2108,-3.2226,-3.1875,-3.171,-3.1363,-3.067,-3.0545,-3.0505,-3.0472,-3.0221,-3.0038,-3.0038,-2.966,-2.9306,-2.9099,-2.9522,-2.964,-2.9396,-3.0172,-3.0556,-3.0512,-2.9886,-2.9593,-2.9512,-2.8693,-2.8481,-2.7046,-2.743,-2.8339,-3.0649,-3.1579,-3.2659,-3.5023,-3.6457,-3.7484,-3.8021,-3.9517,-4.1134,-4.2743,-4.3495,-4.4377,-4.6007,-4.6276,-4.6558,-4.7473,-4.6353,-4.6043,-4.7646,-4.6583,-4.6278,0.0,-4.7289,-4.7744,-4.9872,-4.8702,-4.8496,-4.9968,-4.8564,-4.8032,-4.8598,-4.7882,-4.7736,-4.8325,-4.7554,-4.715,-4.7132,-4.6723,-4.6563,-4.6579,-4.6977,-4.734,-4.7602,-4.6751,-4.6595,-4.6864,-4.6026,-4.5689,-4.565,-4.5642,-4.565,-4.5496,-4.465,-4.5015,-4.5879,-4.5884,-4.5884,-4.5767,-4.4958,-4.4686,-4.4374,-4.2661,-4.212,-4.177,-4.0135,-3.9668,-3.9395,-3.8549,-3.8316,-3.8079,-3.7254,-3.644,-3.5856,-3.5765,-3.4448,-3.3287,-3.3236,-3.2538,-3.1685,-3.0823,-3.0011,-2.9766,-3.0633,-3.0095,-2.995,-3.082,-3.0811,-3.0696,-3.0592,-3.0545,-3.0467,-3.0402,-2.9627,-2.9127,-2.9127,-2.839,-2.785,-2.7591,-2.7577,-2.7509,-2.7282,-2.8089,-2.8398,-2.819,-2.8192,-2.8073,-2.786,-2.7053,-2.721,-2.5065,-2.6023,-2.7465,-2.8576,-2.9847,-3.1298,-3.3308,-3.4372,-3.508,-3.5709,-3.6946,-3.8158,-3.8936,-4.0275,-4.1851,-4.3644,-4.505,-4.6066,-4.6588,-4.6558,-4.6369,-4.6059,-4.6518,0.0,0.0,0.0,0.0,-4.9214,-4.7892,-4.7437,-4.8416,-4.7442,-4.6932,-4.7143,-4.6893,-4.6614,-4.632,-4.6422,-4.5989,-4.4975,-4.5204,-4.5453,-4.5721,-4.6382,-4.6586,-4.6392,-4.6114,-4.5759,-4.5361,-4.5057,-4.4943,-4.4867,-4.4308,-4.4571,-4.511,-4.3704,-4.3876,-4.478,-4.4283,-4.444,-4.4632,-4.3319,-4.292,-4.2682,-4.1518,-4.0844,-4.0322,-3.9777,-3.8765,-3.7782,-3.7446,-3.653,-3.5572,-3.5212,-3.4958,-3.4571,-3.3986,-3.3406,-3.2821,-3.2318,-3.1534,-3.089,-3.0576,-3.0354,-3.0302,-3.063,-3.0537,-3.0546,-3.0859,-3.0858,-3.0581,-2.9987,-2.9844,-2.9521,-2.8935,-2.8531,-2.8319,-2.8319,-2.8049,-2.7779,-2.7521,-2.7514,-2.7417,-2.7194,-2.7457,-2.7575,-2.7489,-2.7506,-2.7743,-2.8194,-2.7353,-2.7482,-2.3327,-2.4683,-2.6539,-2.6976,-2.8312,-2.9942,-3.1552,-3.2559,-3.3287,-3.3952,-3.5032,-3.6002,-3.6482,-3.7884,-3.9504,-4.1187,-4.2779,-4.4253,-4.5498,-4.557,-4.5547,-4.5812,-4.6304,-4.6343,0.0,0.0,0.0,-4.8013,-4.6975,-4.6509,-4.6962,-4.6213,-4.5725,-4.569,-4.569,-4.5423,-4.4923,-4.5007,-4.4411,-4.3156,-4.3702,-4.4124,-4.4398,-4.5082,-4.5333,-4.5139,-4.4838,-4.4506,-4.4121,-4.3832,-4.3718,-4.3643,-4.3089,-4.3362,-4.3878,-4.252,-4.2637,-4.3465,-4.3235,-4.3474,-4.3649,-4.236,-4.1699,-4.1306,-4.0462,-3.9646,-3.8952,-3.8641,-3.7749,-3.6799,-3.6483,-3.556,-3.4637,-3.427,-3.3975,-3.3583,-3.3006,-3.2429,-3.1852,-3.1346,-3.081,-3.026,-2.9685,-2.9625,-2.9596,-2.9299,-2.9667,-3.0077,-3.0391,-3.0156,-2.9765,-2.9176,-2.9027,-2.8744,-2.8165,-2.7721,-2.7456,-2.7456,-2.7146,-2.688,-2.6732,-2.6726,-2.667,-2.6536,-2.6847,-2.6963,-2.6889,-2.6896,-2.7093,-2.752,-2.672,-2.6805,-2.1893,-2.3416,-2.5557,-2.5827,-2.693,-2.8353,-2.9736,-3.0997,-3.2035,-3.2602,-3.3577,-3.4538,0.0,0.0,-3.7287,-3.8784,-3.9887,-4.1565,-4.4432,-4.3741,-4.3977,0.0,0.0,0.0,0.0,0.0,0.0,-4.6225,0.0,-4.5645,-4.5679,-4.4993,-4.4538,-4.436,-4.435,-4.423,-4.4054,-4.3262,-4.2518,-4.181,-4.2382,-4.2655,-4.2674,-4.316,-4.352,-4.3794,-4.3022,-4.2829,-4.3076,-4.2347,-4.2058,-4.202,-4.1983,-4.2033,-4.1982,-4.1101,-4.1302,-4.2051,-4.2632,-4.2898,-4.2783,-4.1899,-4.1053,-4.0177,-3.9408,-3.86,-3.7709,-3.6901,-3.6625,-3.6395,-3.5587,-3.5357,-3.5095,-3.4256,-3.341,-3.2788,-3.268,-3.1443,-3.0322,-3.0246,-3.0251,-2.9763,-2.8159,-2.7966,-2.7737,-2.69,-2.7534,-2.8461,-2.9414,-2.8828,-2.828,-2.8141,-2.8136,-2.8076,-2.7971,-2.7158,-2.6641,-2.6641,-2.5807,-2.5317,-2.5317,-2.5308,-2.5308,-2.5308,-2.6115,-2.6425,-2.6257,-2.6244,-2.616,-2.5997,-2.5196,-2.5339,-2.151,-2.1895,-2.2985,-2.4022,-2.4554,-2.5459,-2.7725,-2.8575,-2.9,-2.9693,-2.9788,-3.0169,0.0,0.0,0.0,-3.8466,-4.1145,0.0,-4.495,-4.5705,0.0,-4.5139,0.0,-4.5718,-4.4189,-4.475,0.0,0.0,-4.4301,-4.4917,-4.5448,-4.4913,-4.4326,-4.3673,-4.3639,-4.3132,-4.2003,-4.1602,-4.1573,-4.181,-4.1958,-4.2021,-4.2021,-4.1598,-4.147,-4.1516,-4.1106,-4.1005,-4.1103,-4.1283,-4.1369,-4.1295,-4.0718,-4.0983,-4.1571,-4.0098,-3.9865,-4.0254,-3.9754,-4.0034,-4.0425,-3.953,-3.8705,-3.8003,-3.7813,-3.7119,-3.6378,-3.6188,-3.5685,-3.4993,-3.4176,-3.3492,-3.2838,-3.202,-3.164,-3.1146,-2.9901,-2.9794,-2.9566,-2.8312,-2.8228,-2.823,-2.7951,-2.7927,-2.787,-2.7695,-2.7313,-2.7432,-2.842,-2.8396,-2.8047,-2.7381,-2.7253,-2.6964,-2.6286,-2.5965,-2.581,-2.581,-2.5533,-2.5364,-2.5368,-2.5321,-2.5308,-2.5308,-2.5538,-2.5595,-2.5554,-2.5559,-2.585,-2.6424,-2.5587,-2.5647,-2.0143,-2.066,-2.1794,-2.2062,-2.2906,-2.4024,-2.5295,-2.6492,-2.7441,-2.7651,-2.7744,-2.8026,-2.891,-3.0647,0.0,0.0,0.0,0.0,-4.386,-4.4953,-4.5364,0.0,-4.5052,0.0,-4.3039,-4.356,-4.3479,0.0,-4.3153,-4.3813,-4.3878,-4.3331,-4.2642,-4.1886,-4.1584,-4.1056,-4.0194,-4.0415,-4.072,-4.1036,-4.1308,-4.1244,-4.0915,-4.0757,-4.0512,-4.0177,0.0,-3.9459,-3.9442,-3.903,-3.8845,-3.8772,-3.8009,-3.8081,-3.8538,-3.7592,-3.755,-3.7833,-3.7323,-3.7262,-3.7428,-3.7766,-3.7322,-3.6615,-3.6615,-3.6027,-3.5375,-3.5375,-3.4771,-3.4016,-3.3535,-3.2779,-3.1986,-3.1193,-3.0711,-3.0115,-2.8785,-2.8612,-2.8431,-2.7486,-2.6804,-2.6542,-2.7081,-2.688,-2.6666,-2.6794,-2.642,-2.6333,-2.6904,-2.7046,-2.6951,-2.6484,-2.6404,-2.6164,-2.5696,-2.5593,-2.5527,-2.5527,-2.5468,-2.5428,-2.5431,-2.5417,-2.5387,-2.5387,-2.5387,-2.5387,-2.5387,-2.5387,-2.5658,-2.6118,-2.5619,-2.5658,-1.8476,-1.9508,-2.0963,-2.0444,-2.1857,-2.3372,-2.3275,-2.4988,-2.6426,-2.6059,-2.6367,-2.6771,-2.6941,-2.8551,-3.0481,-3.2264,0.0,-3.9406,-4.2324,-4.2965,-4.3582,-4.4876,-4.3864,-4.2823,-4.2246,-4.2037,-4.168,-4.1075,-4.1802,-4.2133,-4.1852,-4.1214,-4.0539,-3.9804,-3.9099,-3.8746,-3.8745,-3.9454,-3.9799,-3.9799,-4.0197,-4.0017,-3.9422,-3.9866,-3.9687,-3.9039,-3.84,0.0,-3.8035,-3.6571,-3.6006,-3.5935,-3.5208,-3.4906,-3.4906,-3.4906,-3.5111,-3.5335,-3.5227,-3.4742,-3.4459,-3.6248,-3.6254,-3.5555,-3.5555,-3.5077,-3.4561,-3.4561,-3.3943,-3.3285,-3.3172,-3.2542,-3.1713,-3.0951,-3.0141,-2.9283,-2.8437,-2.7541,-2.6916,-2.6902,-2.5755,-2.5052,-2.5958,-2.5488,-2.5036,-2.5198,-2.5287,-2.5368,-2.5348,-2.5496,-2.5607,-2.5663,-2.5703,-2.5703,-2.5703,-2.5657,-2.5607,-2.5607,-2.5533,-2.5503,-2.5503,-2.5496,-2.5491,-2.5491,-2.5491,-2.5491,-2.5491,-2.5491,-2.5491,-2.5491,-2.5491,-2.5491,-1.8165,-1.78,-1.8548,-2.0845,-2.1511,-2.2166,-2.4231,-2.4766,0.0,-2.4326,-2.4023,-2.4138,-2.5041,-2.6303,-2.8804,-3.3696,-3.5554,-3.7944,-4.2685,-4.2614,-4.2458,0.0,-4.2618,0.0,0.0,0.0,0.0,0.0,0.0,-3.8786,-4.0829,-4.0452,-3.9863,-3.9097,-3.8395,-3.7976,-3.7994,-3.8137,-3.8222,-3.8189,-3.7708,-3.7433,-3.7297,-3.6788,-3.6506,-3.6386,-3.6646,0.0,-3.6684,-3.6209,-3.6006,-3.5935,-3.5208,-3.4906,-3.4906,-3.4906,-3.4533,-3.3944,-3.332,-3.2967,-3.3068,-3.4452,-3.4338,-3.3682,-3.3682,-3.3803,-3.3954,-3.3954,-3.3363,-3.2588,-3.1899,-3.1161,-3.0349,-2.9525,-2.8724,-2.7922,-2.71,-2.577,-2.4773,-2.4966,-2.4738,-2.4653,-2.5007,-2.4929,-2.4861,-2.4888,-2.5005,-2.5072,-2.5144,-2.5379,-2.5527,-2.5606,-2.5608,-2.5655,-2.5703,-2.5703,-2.5663,-2.5663,-2.5609,-2.5593,-2.5593,-2.5518,-2.5491,-2.5491,-2.5491,-2.5491,-2.5491,-2.5491,-2.5491,-2.5491,-2.5491,-2.5491,-1.8855,-1.9059,-1.9877,-2.1357,-2.2113,-2.2533,-2.2727,0.0,0.0,-2.264,-2.2314,-2.2517,-2.3714,-2.5049,0.0,-3.0068,-3.2297,-3.5117,-3.9315,-3.9725,0.0,-4.2289,0.0,0.0,0.0,0.0,0.0,0.0,0.0,-3.6404,-3.9347,-3.8664,-3.7871,-3.7157,-3.7152,-3.7174,-3.7174,-3.7618,-3.763,-3.7274,-3.695,-3.6433,-3.5695,-3.5338,-3.4948,-3.4641,-3.5188,0.0,-3.4875,-3.4372,-3.4158,-3.4035,-3.2931,-3.2712,-3.2972,-3.2972,-3.2857,-3.2617,-3.188,-3.16,-3.16,-3.1814,-3.2074,-3.2174,-3.1795,-3.1837,-3.204,-3.2423,-3.1827,-3.1055,-3.1065,-3.0192,-2.9089,-2.8312,-2.7171,-2.6111,-2.5481,-2.474,-2.4228,-2.4312,-2.4339,-2.441,-2.4607,-2.4639,-2.4678,-2.4782,-2.4836,-2.4923,-2.4929,-2.5129,-2.5328,-2.552,-2.5531,-2.5579,-2.5598,-2.5599,-2.5606,-2.5657,-2.5624,-2.5625,-2.5659,-2.561,-2.5603,-2.5603,-2.5603,-2.5603,-2.5603,-2.5603,-2.5603,-2.5603,-2.5603,-2.5603,-1.9635,-2.0641,-2.1828,-2.2148,-2.2717,-2.2835,-2.1497,-2.1692,-2.1948,-2.1103,-2.1105,-2.1569,-2.2536,-2.4018,-2.5432,0.0,-2.8876,-3.1886,-3.5687,-3.612,-3.7366,0.0,0.0,0.0,0.0,0.0,0.0,0.0,0.0,0.0,-3.7016,-3.6202,-3.5533,-3.5195,-3.5755,-3.6135,-3.6353,-3.6839,-3.6848,-3.6308,-3.602,-3.5296,-3.4225,-3.4228,-3.3927,-3.3417,-3.3933,0.0,0.0,-3.2411,-3.204,-3.1863,-3.0609,-3.0393,-3.0818,-3.0818,-3.0909,-3.0969,-3.0236,-2.9981,-2.9862,-2.8938,-2.9743,-3.0898,-3.0313,-3.0214,-3.0417,-3.1005,-3.0362,-2.9642,-3.0248,-2.935,-2.8047,-2.7113,-2.5853,-2.4626,-2.4091,-2.3986,-2.3986,-2.3986,-2.3986,-2.4056,-2.4183,-2.422,-2.4301,-2.4538,-2.4609,-2.4648,-2.4731,-2.4864,-2.5078,-2.5328,-2.544,-2.5473,-2.5491,-2.5491,-2.5511,-2.5588,-2.559,-2.5602,-2.5659,-2.566,-2.566,-2.566,-2.566,-2.566,-2.566,-2.566,-2.566,-2.566,-2.566,-2.566,-1.9867,-2.0708,-2.2215,-2.371,-2.275,-2.1722,-2.2809,0.0,-2.0562,-1.9829,-2.0522,-2.1328,-2.1436,-2.2467,-2.4195,-2.6774,-2.7095,-2.8811,-3.4126,-3.2957,-3.3481,0.0,0.0,0.0,0.0,0.0,0.0,0.0,0.0,0.0,-3.3155,-3.3043,-3.3346,-3.4109,-3.4182,-3.4681,-3.5587,-3.5083,-3.4753,-3.4693,-3.3487,-3.2825,-3.2704,-3.278,-3.2742,-3.2703,-3.2774,0.0,0.0,-3.122,-3.0688,-3.0601,-2.9785,-2.9518,-2.9563,-2.9563,-2.9178,-2.8607,-2.7886,-2.7648,-2.7482,-2.6063,-2.751,-2.9725,-2.9672,-2.9964,-3.0325,-3.0396,-2.9808,-2.9147,-2.9254,-2.8621,-2.7564,-2.6038,-2.5057,-2.4218,-2.346,-2.3282,-2.3282,-2.3282,-2.3282,-2.3294,-2.3317,-2.3328,-2.343,-2.3759,-2.3975,-2.4164,-2.4493,-2.47,-2.4847,-2.4857,-2.5197,-2.5451,-2.5486,-2.5491,-2.5493,-2.55,-2.55,-2.5503,-2.5507,-2.5507,-2.5507,-2.5507,-2.5507,-2.5507,-2.5507,-2.5507,-2.5507,-2.5507,-2.5507,-2.5507,-2.1279,-2.3032,-2.5122,-2.5767,-2.4914,-2.359,-2.2394,0.0,-1.9966,-1.869,-1.936,-2.0449,-2.1186,-2.2271,-2.3477,-2.4593,-2.4577,-2.5802,-2.9704,-2.9115,0.0,0.0,0.0,0.0,0.0,0.0,0.0,0.0,0.0,0.0,-3.0947,-3.1974,-3.277,-3.3122,-3.2854,-3.2863,-3.3264,-3.27,-3.2184,-3.1779,-3.126,-3.1079,-3.1188,-3.122,-3.1269,-3.1384,-3.1804,0.0,0.0,-3.0172,-2.991,-2.9831,-2.914,-2.9065,-2.9342,-2.8948,-2.8618,-2.8244,-2.708,-2.6715,-2.6575,-2.5541,-2.6012,-2.6939,-2.6939,-2.7083,-2.7381,-2.8151,-2.7961,-2.7618,-2.7936,-2.6787,-2.5365,-2.4681,-2.3946,-2.3358,-2.3224,-2.32,-2.32,-2.32,-2.32,-2.32,-2.32,-2.32,-2.3236,-2.3362,-2.3486,-2.339,-2.3091,-2.3235,-2.3238,-2.2978,-2.4206,-2.5055,-2.5077,-2.5159,-2.5232,-2.526,-2.5353,-2.5443,-2.5489,-2.5491,-2.5491,-2.5491,-2.5491,-2.5491,-2.5491,-2.5491,-2.5491,-2.5491,-2.5491,-2.5491,-2.1393,-2.3513,-2.5844,-2.6307,-2.5082,-2.3386,0.0,0.0,-1.8627,-1.7384,-1.8133,-1.9314,-2.0557,-2.1765,-2.2668,-2.3057,-2.3101,-2.4003,-2.6668,-2.6403,0.0,0.0,0.0,0.0,0.0,0.0,0.0,0.0,0.0,0.0,-2.8831,-2.9947,-3.1007,-3.1918,-3.158,-3.1453,-3.157,-3.0993,-3.0493,-3.0012,-2.9785,-2.9799,-2.9905,-2.9765,-2.9869,-3.0153,-3.0098,0.0,0.0,-2.8613,-2.844,-2.8511,-2.764,-2.7558,-2.7867,-2.7242,-2.6885,-2.6545,-2.5574,-2.5111,-2.4863,-2.4328,-2.4071,-2.3917,-2.3917,-2.4387,-2.504,-2.5756,-2.5753,-2.5615,-2.6012,-2.4781,-2.3439,-2.3396,-2.277,-2.2262,-2.2517,-2.2535,-2.2535,-2.2535,-2.2535,-2.2535,-2.2535,-2.2452,-2.2427,-2.2525,-2.2447,-2.2235,-2.1817,-2.1913,-2.1873,-2.1525,-2.299,-2.4102,-2.4412,-2.4732,-2.4967,-2.4996,-2.5129,-2.5258,-2.5302,-2.5306,-2.5306,-2.5306,-2.5306,-2.5306,-2.5306,-2.5306,-2.5306,-2.5306,-2.5306,-2.5306,-1.952,-2.0944,-2.3121,-2.4646,-2.2128,-1.9779,-2.1644,-1.9113,-1.6241,-1.5885,-1.6857,-1.8102,-1.9314,-2.0522,-2.1702,-2.2906,-2.3101,-2.3903,-2.6201,-2.531,0.0,0.0,0.0,0.0,0.0,0.0,0.0,0.0,0.0,0.0,-2.6524,-2.6134,-2.7275,-3.0339,-3.0411,-3.0626,-3.1026,-3.0349,-3.0012,-2.9984,-2.9338,-2.9002,-2.9006,-2.846,-2.8635,0.0,0.0,0.0,0.0,-2.6323,-2.5878,-2.6385,-2.5069,-2.4552,-2.4496,-2.3963,-2.3325,-2.2776,-2.2748,-2.2308,-2.1758,-2.1758,-2.1393,-2.0945,-2.0945,-2.2482,-2.4072,-2.3401,-2.3225,-2.3243,-2.3243,-2.2679,-2.2115,-2.2115,-2.1568,-2.1007,-2.1023,-2.1023,-2.1023,-2.1023,-2.1023,-2.1023,-2.1023,-2.0767,-2.0633,-2.0968,-2.0747,-2.0638,-2.0951,-2.1003,-2.1003,-2.1003,-2.1683,-2.2491,-2.3427,-2.432,-2.4804,-2.4804,-2.4811,-2.4811,-2.4811,-2.4811,-2.4811,-2.4811,-2.4811,-2.4811,-2.4811,-2.4811,-2.4811,-2.4811,-2.4811,-2.4811,-1.9366,-2.0801,-2.2434,-2.2894,-2.1628,-2.0427,-2.1095,-1.9797,-1.821,-1.7293,-1.8718,-2.0042,-1.9588,-2.1168,-2.2687,-2.3057,-2.3101,-2.3354,0.0,0.0,0.0,0.0,0.0,0.0,0.0,0.0,0.0,0.0,0.0,0.0,-2.6031,-2.5891,-2.624,-2.7237,-2.6586,-2.6295,-2.6408,-2.6526,-2.6414,-2.6038,-2.6455,-2.679,-2.6992,-2.6835,-2.6963,0.0,0.0,0.0,0.0,-2.468,-2.4377,-2.4531,-2.4128,-2.3941,-2.3858,-2.3247,-2.289,-2.2588,-2.1758,-2.1342,-2.1093,-2.0723,-2.0495,-2.0273,-1.9807,-2.0499,-2.1503,-2.2034,-2.2051,-2.1995,-2.2352,-2.1921,-2.1343,-2.1343,-2.1167,-2.0991,-2.0991,-2.0991,-2.0991,-2.0991,-2.0622,-2.0318,-2.0318,-1.9857,-1.9516,-1.9624,-1.9536,-1.9326,-1.8943,-1.8889,-1.8775,-1.8449,-1.9119,-2.0373,-2.2373,-2.3398,-2.3923,-2.3923,-2.4044,-2.4202,-2.4441,-2.4449,-2.4587,-2.4797,-2.4804,-2.4804,-2.4804,-2.4804,-2.4804,-2.4804,-2.4804,-2.4804,-1.8306,-1.9205,-2.0366,-2.0923,-2.0081,-1.9252,-1.9974,-1.9461,-1.8596,-1.787,-1.9268,-2.0522,-2.0206,-2.1033,-2.205,-2.295,-2.2315,-2.1909,0.0,0.0,0.0,0.0,0.0,0.0,0.0,0.0,0.0,0.0,0.0,0.0,-2.4589,-2.4397,-2.4266,-2.4095,-2.4233,-2.4191,-2.4011,-2.4122,-2.4049,-2.3723,-2.4096,-2.4434,-2.4618,-2.4417,-2.456,0.0,0.0,0.0,0.0,-2.248,-2.2191,-2.2432,-2.2221,-2.1957,-2.1693,-2.1397,-2.113,-2.0797,-2.0137,-1.9886,-1.9833,-1.9503,-1.9257,-1.8918,-1.8036,-1.8524,-1.9474,-2.0155,-2.0212,-2.0182,-2.0502,-2.0233,-1.9924,-1.9924,-1.9924,-1.9924,-1.9924,-1.9924,-1.9924,-1.9924,-1.9558,-1.9209,-1.8998,-1.8714,-1.8393,-1.812,-1.8188,-1.8049,-1.7548,-1.7466,-1.7352,-1.7069,-1.7744,-1.8926,-2.0732,-2.2036,-2.2979,-2.3367,-2.3494,-2.367,-2.3885,-2.3895,-2.3971,-2.42,-2.42,-2.42,-2.42,-2.4325,-2.4368,-2.4368,-2.4578,-2.4647,0.0,-1.6783,-1.7557,-1.8844,-1.7711,-1.6738,-1.8521,-1.8356,0.0,-1.7824,-1.8872,-2.0087,-2.1123,-2.0387,-2.0404,-2.2731,-2.1078,0.0,0.0,-2.22,0.0,0.0,0.0,0.0,0.0,0.0,0.0,0.0,0.0,0.0,-2.2225,-2.1842,-2.1416,-2.0951,-2.2861,-2.3689,-2.3239,-2.2916,-2.2741,-2.2697,-2.233,-2.2116,-2.2071,-2.1587,-2.1688,0.0,0.0,0.0,0.0,-1.9954,-1.957,-2.0145,-1.9646,-1.9034,-1.8425,-1.8723,-1.841,-1.7811,-1.7945,-1.801,-1.801,-1.7962,-1.7611,-1.6997,-1.5876,-1.6655,-1.7913,-1.7933,-1.7933,-1.7933,-1.8013,-1.8033,-1.8052,-1.8072,-1.8092,-1.8092,-1.8092,-1.8092,-1.8092,-1.8092,-1.8064,-1.7863,-1.7311,-1.7393,-1.7262,-1.6556,-1.6698,-1.6823,-1.6673,-1.6644,-1.6644,-1.6644,-1.7282,-1.7992,-1.8757,-2.0469,-2.1917,-2.2975,-2.3081,-2.3105,-2.3129,-2.3153,-2.3177,-2.32,-2.32,-2.32,-2.32,-2.3522,-2.3653,-2.3664,-2.4164,-2.433,-1.7413,0.0,-1.7423,-1.68,-1.6272,-1.6273,0.0,-1.8566,-1.9085,-1.9085,-2.0764,-2.2031,-2.1436,-2.1078,-2.1346,-2.2862,0.0,0.0,0.0,0.0,0.0,0.0,0.0,0.0,0.0,0.0,0.0,0.0,0.0,-1.986,-1.9393,-1.9099,-1.8676,-1.8215,-1.9543,-2.0411,-2.0754,-2.1108,-2.104,-2.0607,-2.1284,-2.1374,-2.0959,-2.0847,-2.0705,0.0,0.0,0.0,-1.9303,-1.8368,-1.8109,-1.8258,-1.8111,-1.7779,-1.7364,-1.7453,-1.7182,-1.6692,-1.6284,-1.6123,-1.6078,-1.5661,-1.5453,-1.5268,-1.5017,-1.5509,-1.6185,-1.6136,-1.6114,-1.6328,-1.7212,-1.7417,-1.7518,-1.7993,-1.8092,-1.8092,-1.8092,-1.8092,-1.8092,-1.8092,-1.7694,-1.7152,-1.6646,-1.6472,-1.6111,-1.5133,-1.5407,-1.5544,-1.5088,-1.5046,-1.5046,-1.5046,-1.5462,-1.6368,-1.7868,-1.9455,-2.0716,-2.1483,-2.1816,-2.2082,-2.2357,-2.2635,-2.2947,-2.3189,-2.32,-2.32,-2.32,-2.3271,-2.3305,-2.3305,-2.3453,-2.3486,-1.7026,-1.7941,-1.8973,-1.8261,-1.7702,-1.7462,-1.8133,-1.8504,-1.8688,-1.8688,-2.0133,-2.1275,-2.0567,-2.0132,-2.0183,0.0,-1.9638,0.0,0.0,0.0,0.0,0.0,0.0,0.0,0.0,0.0,0.0,0.0,0.0,-1.8825,-1.8251,-1.8078,-1.7796,-1.731,-1.7729,-1.8326,-1.9146,-1.9803,-1.9829,-1.9292,-1.9669,-1.9452,-1.8762,-1.9025,-1.873,0.0,0.0,0.0,-1.7366,-1.6792,-1.6574,-1.6602,-1.6968,-1.6632,-1.6041,-1.6465,-1.6139,-1.5452,-1.5209,-1.5125,-1.508,-1.4787,-1.4698,-1.4652,-1.4376,-1.4537,-1.4812,-1.5061,-1.5129,-1.5262,-1.5901,-1.6053,-1.6139,-1.646,-1.6545,-1.6545,-1.6545,-1.6545,-1.6545,-1.6545,-1.6462,-1.614,-1.534,-1.5565,-1.5498,-1.4349,-1.4629,-1.4857,-1.4548,-1.4501,-1.4501,-1.4501,-1.469,-1.5421,-1.692,-1.7606,-1.8794,-2.0863,-2.1197,-2.143,-2.1576,-2.1797,-2.2012,-2.2187,-2.2187,-2.2269,-2.2464,-2.2622,-2.2788,-2.2972,-2.3129,-2.32,-1.651,-1.8492,-2.0782,-2.0232,-1.9522,-1.8886,-1.8645,-1.8162,-1.7744,-1.7699,-1.8688,-1.9497,-1.9497,-1.8691,0.0,0.0,0.0,0.0,0.0,0.0,0.0,0.0,0.0,0.0,0.0,0.0,0.0,0.0,0.0,-1.8196,-1.7492,-1.7411,-1.7208,-1.6821,-1.6613,-1.6913,-1.7716,-1.8397,-1.8552,-1.8154,-1.7735,-1.7111,-1.633,-1.6768,-1.6477,-1.5548,0.0,0.0,-1.5586,-1.5193,-1.5011,-1.5099,-1.5687,-1.5274,-1.4443,-1.5195,-1.4809,-1.3879,-1.4039,-1.4099,-1.4099,-1.4099,-1.4099,-1.4005,-1.3487,-1.3345,-1.344,-1.3958,-1.426,-1.4445,-1.4537,-1.456,-1.4583,-1.4675,-1.4698,-1.4698,-1.4698,-1.4698,-1.4698,-1.4698,-1.5107,-1.5146,-1.407,-1.4762,-1.5055,-1.3866,-1.4137,-1.4437,-1.4282,-1.4229,-1.4191,-1.4191,-1.4192,-1.4707,-1.5991,-1.574,-1.6927,-2.0219,-2.0492,-2.0622,-2.0862,-2.0862,-2.0926,-2.0991,-2.0991,-2.1166,-2.1506,-2.1768,-2.211,-2.2438,-2.2724,-2.2863,-1.7757,-1.9597,-2.0814,-1.7764,-1.7876,-1.8385,-1.7016,-1.7409,-1.7966,-1.7744,-1.8688,-1.9497,-1.9497,-1.855,-1.8193,0.0,0.0,-1.8484,0.0,0.0,0.0,0.0,0.0,0.0,0.0,0.0,0.0,0.0,0.0,-1.5448,-1.5043,-1.4823,-1.467,-1.4573,-1.5194,-1.54,-1.5188,-1.5814,-1.6117,-1.6066,-1.5766,-1.5426,-1.5001,-1.5087,-1.4679,-1.3941,0.0,-1.3808,-1.3488,-1.339,-1.3373,-1.3369,-1.3222,-1.286,-1.2353,-1.2254,-1.1843,-1.136,-1.1391,-1.1399,-1.1399,-1.1399,-1.1399,-1.1374,-1.1291,-1.1249,-1.1274,-1.1374,-1.2276,-1.3286,-1.3813,-1.3933,-1.4073,-1.4583,-1.4698,-1.4698,-1.4698,-1.4698,-1.4698,-1.4698,-1.4766,-1.4631,-1.4004,-1.4429,-1.4451,-1.3283,-1.3615,-1.3813,-1.3303,-1.2923,-1.2708,-1.2708,-1.2734,-1.3364,-1.4992,-1.542,-1.6236,-1.7782,-1.8185,-1.8964,-2.029,-2.0307,-2.0553,-2.0991,-2.0991,-2.1023,-2.1086,-2.115,-2.1213,-2.1258,-2.132,-2.1351,-1.688,-1.8308,-1.9349,-1.7305,-1.8309,-1.9569,-1.8852,-1.813,-1.7541,-1.7232,-1.75,-1.7749,-1.7749,0.0,-1.7768,-1.8745,0.0,-1.79,0.0,0.0,0.0,0.0,0.0,0.0,0.0,0.0,0.0,0.0,0.0,0.0,-1.4295,-1.4162,-1.4015,-1.3854,-1.4185,-1.4205,-1.3856,-1.4015,-1.4498,-1.5366,-1.5237,-1.4763,-1.3939,-1.4243,-1.3802,-1.2853,0.0,-1.3157,-1.3009,-1.3009,-1.3009,-1.2976,-1.2701,-1.2319,-1.1848,-1.1328,-1.0987,-1.0788,-1.0788,-1.0788,-1.0788,-1.0788,-1.0788,-1.0788,-1.0788,-1.0788,-1.0788,-1.0788,-1.1283,-1.1832,-1.211,-1.219,-1.2239,-1.2536,-1.2585,-1.2682,-1.3062,-1.3134,-1.3249,-1.3647,-1.4001,-1.4032,-1.347,-1.3829,-1.3929,-1.3129,-1.3237,-1.3303,-1.3036,-1.2855,-1.2631,-1.2427,-1.2412,-1.2834,-1.3895,-1.3915,-1.498,-1.7556,-1.7646,-1.8016,-1.9009,-1.9057,-1.9196,-1.9414,-1.9414,-1.9558,-1.9823,-1.9823,-1.9915,-2.0155,-2.0155,-2.029,-1.504,-1.6002,-1.6889,-1.6433,-1.829,-2.0225,-2.016,-1.834,-1.66,-1.651,-1.6161,-1.5853,0.0,-1.5809,0.0,-1.6756,-1.6529,0.0,0.0,0.0,0.0,0.0,0.0,0.0,0.0,0.0,0.0,0.0,0.0,0.0,-1.3319,-1.3243,-1.3104,-1.2848,-1.2763,-1.2586,-1.2384,-1.2093,-1.2869,-1.464,-1.4482,-1.3878,-1.2862,-1.3233,-1.2812,-1.185,-1.2259,-1.2428,-1.2428,-1.2428,-1.2428,-1.238,-1.2043,-1.1614,-1.1126,-1.0535,-1.0346,-1.0346,-1.0346,-1.0346,-1.0346,-1.0346,-1.0346,-1.0346,-1.0346,-1.0346,-1.0346,-1.0346,-1.0346,-1.0397,-1.0712,-1.0788,-1.0788,-1.0788,-1.0788,-1.0939,-1.1466,-1.1566,-1.1715,-1.2314,-1.2764,-1.2957,-1.2486,-1.2788,-1.2962,-1.255,-1.249,-1.2466,-1.248,-1.2399,-1.2298,-1.215,-1.2022,-1.2293,-1.3124,-1.2918,-1.4048,-1.7113,-1.6917,-1.6924,-1.7477,-1.7477,-1.7538,-1.7659,-1.7679,-1.7851,-1.8207,-1.835,-1.8598,-1.8895,-1.9024,-1.9307,-1.255,-1.292,-1.3254,-1.3508,-1.6253,-1.8817,-1.8714,-1.6753,-1.5124,-1.5634,-1.5288,-1.4453,-1.2977,-1.2802,-1.3008,-1.3299,-1.3496,0.0,0.0,0.0,0.0,0.0,0.0,0.0,0.0,0.0,0.0,0.0,0.0,0.0,-1.0885,-1.0752,-1.0669,-1.0648,-1.0199,-0.998,-0.9959,-0.9701,-1.0709,-1.2972,-1.2412,-1.1919,-1.1553,-1.1323,-1.1024,-1.0708,-1.0758,-1.0776,-1.0776,-1.0776,-1.0776,-1.0721,-1.0135,-0.9534,-0.9017,-0.8976,-0.8936,-0.8936,-0.8936,-0.8936,-0.8936,-0.8936,-0.8936,-0.8936,-0.8936,-0.8936,-0.8936,-0.8936,-0.8936,-0.9237,-1.0483,-1.0788,-1.0788,-1.0788,-1.0788,-1.0813,-1.0864,-1.0864,-1.0889,-1.0939,-1.099,-1.099,-1.0965,-1.099,-1.0998,-1.0956,-1.0965,-1.0965,-1.0956,-1.0628,-1.0641,-1.1217,-1.0958,-1.1354,-1.2971,-1.3521,-1.4115,-1.4903,-1.4903,-1.5128,-1.5658,-1.5702,-1.5939,-1.6422,-1.6422,-1.6443,-1.6486,-1.7036,-1.7329,-1.737,-1.7918,-1.823,-1.2051,-1.2334,-1.2658,-1.3027,-1.4008,-1.5042,-1.5655,-1.49,-1.4158,-1.4284,-1.4069,-1.3652,-1.3062,0.0,-1.3301,-1.3293,-1.3365,0.0,0.0,0.0,0.0,0.0,0.0,0.0,0.0,0.0,0.0,0.0,0.0,0.0,-1.0616,-1.0478,-1.0294,-1.0111,-0.9816,-0.9642,-0.9461,-0.9342,-0.9723,-1.0516,-1.0333,-1.0069,-0.9672,-1.0131,-1.0122,-0.9824,-1.0364,-1.0586,-1.0586,-1.0586,-1.0586,-1.0533,-0.9943,-0.906,-0.8103,-0.8103,-0.7836,-0.7423,-0.7423,-0.7423,-0.7423,-0.7423,-0.7423,-0.7423,-0.7423,-0.7423,-0.7423,-0.7423,-0.7423,-0.7771,-0.9197,-0.9562,-0.9562,-0.9562,-0.9562,-0.9666,-1.009,-1.0192,-1.0295,-1.0712,-1.0788,-1.0788,-1.0788,-1.0788,-1.0788,-1.0788,-1.0788,-1.0788,-1.0788,-1.0672,-1.0582,-1.0566,-1.0454,-1.0608,-1.1248,-1.1704,-1.207,-1.2269,-1.3497,-1.4429,-1.4971,-1.4993,-1.5106,-1.5306,-1.5306,-1.5306,-1.5306,-1.5528,-1.5662,-1.5638,-1.5881,-1.616,-1.078,-1.0919,-1.1189,-1.1547,-1.1459,-1.1541,-1.2411,-1.274,-1.2954,-1.3165,-1.2505,-1.2073,-1.2536,0.0,0.0,0.0,0.0,0.0,0.0,0.0,0.0,0.0,0.0,0.0,0.0,0.0,0.0,0.0,0.0,0.0,0.0,-0.9283,-0.9124,-0.8841,-0.869,-0.8526,-0.8351,-0.8288,-0.8216,-0.8116,-0.8161,-0.8307,-0.8547,-0.9059,-0.9153,-0.8914,-0.9524,-0.9779,-0.9779,-0.9779,-0.973,-0.9575,-0.9117,-0.8336,-0.7443,-0.7376,-0.702,-0.6588,-0.6588,-0.6588,-0.6588,-0.6588,-0.6588,-0.6588,-0.6588,-0.6588,-0.6588,-0.6588,-0.6588,-0.6831,-0.7836,-0.8103,-0.8156,-0.8395,-0.8448,-0.8633,-0.9328,-0.9484,-0.9614,-1.009,-1.0167,-1.0167,-1.0167,-1.0167,-1.0167,-1.0167,-1.0167,-1.0167,-1.0167,-1.0167,-1.015,-1.0089,-1.0254,-1.0376,-1.0376,-1.0656,-1.0788,-1.0788,-1.2125,-1.3091,-1.3446,-1.3467,-1.3467,-1.3467,-1.3467,-1.3467,-1.3467,-1.3679,-1.375,-1.3752,-1.3962,-1.4265,-0.832,-0.832,-0.8343,-0.8635,-0.8601,-0.8648,-0.9245,-1.0281,-1.1363,-1.2388,-1.0608,-0.9375,-1.0836,-0.9693,0.0,-0.8479,0.0,0.0,0.0,0.0,0.0,0.0,0.0,0.0,0.0,0.0,0.0,0.0,0.0,0.0,0.0,-0.6783,-0.6627,-0.6518,-0.6375,-0.63,-0.63,-0.6105,-0.5986,-0.5986,-0.5874,-0.6698,-0.8381,-0.8101,-0.7999,-0.7989,-0.7989,-0.7989,-0.7989,-0.7989,-0.7793,-0.7479,-0.735,-0.7129,-0.6851,-0.6668,-0.6588,-0.6588,-0.6588,-0.6588,-0.6588,-0.6588,-0.6588,-0.6588,-0.6588,-0.6588,-0.6588,-0.6588,-0.6588,-0.6588,-0.6588,-0.6588,-0.6777,-0.7503,-0.7691,-0.7889,-0.8619,-0.8778,-0.8778,-0.8778,-0.8778,-0.8778,-0.8778,-0.8778,-0.8804,-0.8778,-0.8778,-0.8778,-0.8778,-0.8804,-0.9054,-0.9718,-1.0397,-1.0762,-1.0762,-1.0762,-1.0762,-1.0762,-1.0788,-1.0788,-1.0788,-1.0788,-1.0788,-1.0788,-1.0788,-1.0788,-1.0788,-1.1406,-1.1686,-1.1693,-1.2363,-1.268,-0.814,-0.8262,-0.8465,-0.8662,-0.8832,-0.9111,-0.9449,-0.968,-0.9852,-1.0274,-0.9716,-0.9223,-0.95,-0.9133,0.0,-0.852,0.0,0.0,0.0,0.0,0.0,0.0,0.0,0.0,0.0,0.0,0.0,0.0,0.0,0.0,0.0,-0.6681,-0.6559,-0.6511,-0.6227,-0.6098,-0.6098,-0.5949,-0.582,-0.5718,-0.5677,-0.5936,-0.6436,-0.6984,-0.718,-0.7111,-0.773,-0.7989,-0.7989,-0.7989,-0.7793,-0.7479,-0.735,-0.6808,-0.6085,-0.589,-0.5519,-0.5117,-0.5117,-0.5117,-0.5117,-0.5117,-0.5117,-0.5117,-0.5117,-0.5117,-0.5117,-0.5117,-0.5117,-0.5117,-0.5117,-0.5117,-0.5418,-0.6642,-0.6939,-0.6993,-0.7208,-0.7262,-0.7262,-0.7262,-0.7664,-0.7863,-0.7343,-0.8103,-0.846,-0.7396,-0.7691,-0.8023,-0.8023,-0.8487,-0.8883,-0.908,-0.8804,-0.862,-0.862,-0.862,-0.862,-0.862,-0.9119,-0.9806,-1.0762,-1.0788,-1.0788,-1.0788,-1.0788,-1.0788,-1.0788,-1.0973,-1.1074,-1.1074,-1.1282,-1.1364,-0.8303,-0.8438,-0.8642,-0.8913,-0.911,-0.9306,-0.9551,-0.9052,-0.8479,-0.8565,-0.7921,-0.7298,-0.722,-0.7596,0.0,-0.7657,0.0,0.0,0.0,0.0,0.0,0.0,0.0,0.0,0.0,0.0,0.0,0.0,0.0,0.0,0.0,-0.6607,-0.6484,-0.6429,-0.6213,-0.5903,-0.5501,-0.5692,-0.5548,-0.5064,-0.5351,-0.5535,-0.5535,-0.6064,-0.6271,-0.6203,-0.6728,-0.6957,-0.6957,-0.6957,-0.6854,-0.6635,-0.6498,-0.6014,-0.5438,-0.5301,-0.4924,-0.4498,-0.4559,-0.4539,-0.4491,-0.4491,-0.4491,-0.4491,-0.4491,-0.4491,-0.4449,-0.4138,-0.4326,-0.4509,-0.4219,-0.441,-0.4926,-0.5909,-0.6172,-0.6253,-0.6534,-0.6588,-0.6588,-0.6588,-0.6966,-0.7128,-0.6669,-0.7343,-0.761,-0.6723,-0.6966,-0.7262,-0.7262,-0.7637,-0.7916,-0.7916,-0.753,-0.7262,-0.7262,-0.7262,-0.7262,-0.7262,-0.7676,-0.829,-0.9089,-0.9415,-0.9441,-0.9141,-0.9129,-0.9129,-0.9129,-0.9129,-0.9129,-0.9129,-0.9129,-0.9129,-0.8615,-0.8588,-0.86,-0.9036,-0.922,-0.9215,-0.9341,-0.8337,-0.7363,-0.7352,0.0,-0.4722,-0.4662,-0.5486,-0.6152,0.0,0.0,0.0,0.0,0.0,0.0,0.0,0.0,0.0,0.0,0.0,0.0,0.0,0.0,0.0,0.0,-0.6451,-0.6271,-0.6145,-0.6041,-0.5536,-0.4539,-0.5183,-0.5015,-0.4067,-0.4815,-0.516,-0.516,-0.5326,-0.5359,-0.5259,-0.5193,-0.516,-0.516,-0.5226,-0.5259,-0.5246,-0.5157,-0.5015,-0.4887,-0.4796,-0.4617,-0.4392,-0.4452,-0.4391,-0.4302,-0.4392,-0.442,-0.442,-0.442,-0.442,-0.4251,-0.3503,-0.3855,-0.4324,-0.3661,-0.4047,-0.4763,-0.5119,-0.5317,-0.5618,-0.6263,-0.6399,-0.6399,-0.6399,-0.6453,-0.648,-0.6426,-0.6507,-0.6588,-0.6507,-0.6507,-0.6507,-0.6507,-0.6561,-0.6588,-0.6588,-0.6534,-0.6507,-0.6507,-0.6507,-0.6507,-0.6507,-0.6561,-0.6561,-0.6507,-0.7208,-0.7289,-0.6615,-0.6588,-0.6588,-0.6588,-0.6588,-0.6588,-0.6588,-0.6588,-0.6588,-0.8513,-0.7701,-0.6936,-0.7352,-0.7638,-0.7818,-0.7698,-0.7369,-0.7158,-0.7012,-0.6645,-0.5989,-0.4753,-0.4745,-0.4828,0.0,0.0,0.0,0.0,0.0,0.0,0.0,0.0,0.0,0.0,0.0,0.0,0.0,0.0,0.0,-0.6532,-0.5619,-0.5068,-0.504,-0.4143,-0.3532,-0.3293,-0.3352,-0.3258,0.0,-0.3188,-0.328,-0.3347,-0.4755,-0.4987,-0.4251,-0.358,-0.328,-0.3347,-0.4018,-0.4317,-0.4339,-0.4894,-0.5015,-0.4826,-0.415,-0.3749,-0.3493,-0.2917,-0.2722,-0.2827,-0.355,-0.3795,-0.3795,-0.3795,-0.3795,-0.3615,-0.27,-0.2586,-0.2711,-0.2546,-0.2654,-0.28,-0.2905,-0.3903,-0.489,-0.4927,-0.4952,-0.4952,-0.4952,-0.5382,-0.5574,-0.5034,-0.5882,-0.6399,-0.5819,-0.5737,-0.5737,-0.5737,-0.6226,-0.6588,-0.6588,-0.6091,-0.5737,-0.5737,-0.5737,-0.5737,-0.5737,-0.6281,-0.6344,-0.5764,-0.6443,-0.675,-0.6615,-0.6588,-0.6588,-0.6588,-0.6588,-0.6588,-0.6588,-0.6588,-0.6588,-0.6558,-0.6035,-0.5532,-0.5856,-0.6068,-0.6176,-0.6082,-0.5987,-0.5718,-0.4936,-0.4719,-0.4151,-0.2631,-0.2871,0.0,0.0,0.0,0.0,0.0,0.0,0.0,0.0,0.0,0.0,0.0,0.0,0.0,0.0,0.0,-0.5054,-0.498,-0.4307,-0.3917,-0.3917,-0.3335,-0.2779,-0.2281,-0.2633,-0.2544,-0.2041,-0.2476,-0.2709,-0.2743,-0.368,-0.3846,-0.3347,-0.2909,-0.2709,-0.2743,-0.318,-0.338,-0.3409,-0.3783,-0.386,-0.371,-0.3316,-0.2995,-0.2741,-0.2441,-0.228,-0.2287,-0.278,-0.2917,-0.2917,-0.2917,-0.2917,-0.2741,-0.1909,-0.2011,-0.2268,-0.1884,-0.2091,-0.2433,-0.2369,-0.293,-0.3586,-0.3916,-0.3959,-0.4042,-0.4436,-0.4787,-0.4924,-0.4574,-0.5117,-0.5473,-0.5081,-0.5027,-0.5027,-0.5027,-0.5363,-0.5609,-0.5609,-0.5246,-0.5027,-0.5027,-0.5027,-0.5027,-0.5027,-0.5391,-0.5418,-0.5027,-0.5391,-0.5609,-0.5609,-0.5609,-0.5609,-0.5609,-0.5609,-0.5609,-0.5582,-0.5246,-0.5046,-0.439,-0.4312,-0.4116,-0.4048,-0.4294,-0.4465,-0.4444,-0.4559,-0.4257,-0.275,-0.2309,-0.1774,-0.0273,-0.0912,0.0,0.0,0.0,0.0,0.0,0.0,0.0,0.0,0.0,0.0,0.0,0.0,0.0,0.0,0.0,-0.3313,-0.3264,-0.3014,-0.2832,-0.2832,-0.2678,-0.2179,-0.1329,-0.2053,-0.1954,-0.1073,-0.1877,-0.2245,-0.2245,-0.2245,-0.2312,-0.2442,-0.2312,-0.2245,-0.2245,-0.2412,-0.2442,-0.2476,-0.2643,-0.2635,-0.2484,-0.2454,-0.2267,-0.2014,-0.2067,-0.1946,-0.1842,-0.2012,-0.206,-0.206,-0.206,-0.206,-0.1883,-0.1127,-0.1459,-0.1922,-0.1234,-0.1636,-0.2216,-0.21,-0.1935,-0.2073,-0.3006,-0.3147,-0.3294,-0.399,-0.4116,-0.4098,-0.4098,-0.4098,-0.4098,-0.4098,-0.4098,-0.4098,-0.4098,-0.4098,-0.4098,-0.4098,-0.4098,-0.4098,-0.4098,-0.4098,-0.4098,-0.4098,-0.4098,-0.4098,-0.4098,-0.4098,-0.4098,-0.4098,-0.4236,-0.4236,-0.4098,-0.4098,-0.4098,-0.4098,-0.3483,-0.3151,-0.4443,-0.3678,-0.2407,-0.1022,-0.1769,-0.2749,-0.2609,-0.3643,-0.4245,0.0,-0.2215,-0.1744,-0.0268,0.0,0.0,0.0,0.0,0.0,0.0,0.0,0.0,0.0,0.0,0.0,0.0,0.0,0.0,0.0,-0.3357,-0.333,-0.3146,-0.2297,-0.1813,-0.1813,-0.0903,-0.0352,-0.0211,-0.0343,-0.0304,-0.0168,-0.0303,-0.037,-0.037,-0.037,-0.0773,-0.1441,-0.0672,-0.037,-0.0404,-0.1173,-0.1475,-0.1573,-0.2376,-0.2635,-0.242,-0.1725,-0.1378,-0.115,-0.0563,-0.03,-0.043,-0.116,-0.1425,-0.1425,-0.1425,-0.1425,-0.1228,-0.0401,-0.0234,-0.0302,-0.0202,-0.0265,-0.0357,-0.0323,-0.0314,-0.0669,-0.2064,-0.2351,-0.2391,-0.2488,-0.2501,-0.2508,-0.2508,-0.2508,-0.2508,-0.2508,-0.2508,-0.2508,-0.2508,-0.2508,-0.2508,-0.2508,-0.2508,-0.2508,-0.2508,-0.2508,-0.2508,-0.2508,-0.2508,-0.2508,-0.2508,-0.2508,-0.2508,-0.2508,-0.3123,-0.3151,-0.2508,-0.2508,-0.2508,-0.2508,-0.2397,-0.2341,-0.1945,-0.1566,-0.0926,-0.0181,-0.1279,-0.2235,-0.1182,-0.2291,-0.2967,-0.1295,-0.0939,-0.0762,-0.0107,0.0,0.0,0.0,0.0,0.0,0.0,0.0,0.0,0.0,0.0,0.0,0.0,0.0,0.0,0.0,-0.1479,-0.1448,-0.136,-0.0926,-0.0718,-0.0718,-0.0252,0.0,0.0,0.0,0.0,0.0,0.0,0.0,0.0,0.0,-0.0202,-0.0538,-0.0168,0.0,-0.0034,-0.0404,-0.0572,-0.0605,-0.1041,-0.1167,-0.1058,-0.0702,-0.0528,-0.0453,-0.01,0.0,-0.0066,-0.0435,-0.0572,-0.0572,-0.0572,-0.0572,-0.0504,-0.0101,0.0,0.0,0.0,0.0,0.0,0.0,0.0,-0.0191,-0.084,-0.1295,-0.1719,-0.2131,-0.2196,-0.2201,-0.2196,-0.2206,-0.2209,-0.2209,-0.2209,-0.2192,-0.2209,-0.2202,-0.2202,-0.2202,-0.2202,-0.2202,-0.2202,-0.2202,-0.2202,-0.2202,-0.2214,-0.2209,-0.2209,-0.219,-0.2015,-0.1579,-0.231,-0.2536,-0.2202,-0.2202,-0.2202,-0.2202,-0.1785,-0.1592,0.0,0.0,0.0,0.0,-0.0964,-0.1557,-0.0294,0.0,-0.1514,0.0,0.0,0.0,0.0,0.0,0.0,0.0,0.0,0.0,0.0,0.0,0.0,0.0,0.0,0.0,0.0,0.0,0.0,0.0,0.0,0.0,0.0,0.0,0.0,0.0,0.0,0.0,0.0,0.0,0.0,0.0,0.0,0.0,0.0,0.0,0.0,0.0,0.0,0.0,0.0,0.0,0.0,0.0,0.0,0.0,0.0,0.0,0.0,0.0,0.0,0.0,0.0,0.0,0.0,0.0,0.0,0.0,0.0,0.0,0.0,0.0,0.0,0.0,0.0,0.0,0.0,0.0,0.0,-0.0416,-0.0995,-0.154,-0.1628,-0.1629,-0.1647,-0.1628,-0.1632,-0.1632,-0.1632,-0.1648,-0.1638,-0.1647,-0.164,-0.164,-0.1656,-0.1646,-0.1646,-0.1633,-0.164,-0.164,-0.1634,-0.1632,-0.1632,-0.164,-0.1369,-0.0833,-0.1351,-0.1633,-0.1646,-0.1646,-0.1646,-0.1618,-0.109,-0.081,0.0,0.0,0.0,0.0,-0.0058,-0.012,0.0,0.0,-0.0117,0.0,0.0,0.0,0.0,0.0,0.0,0.0,0.0,0.0,0.0,0.0,0.0,0.0,0.0,0.0,0.0,0.0,0.0,0.0,0.0,0.0,0.0,0.0,0.0,0.0,0.0,0.0,0.0,0.0,0.0,0.0,0.0,0.0,0.0,0.0,0.0,0.0,0.0,0.0,0.0,0.0,0.0,0.0,0.0,0.0,0.0,0.0,0.0,0.0,0.0,0.0,0.0,0.0,0.0,0.0,0.0,0.0,0.0,0.0,0.0,0.0,0.0,0.0,0.0,0.0,0.0,0.0,0.0,-0.0032,-0.0064,-0.0093,-0.0123,-0.0123,-0.0123,-0.0123,-0.0123,-0.0123,-0.0123,-0.0123,-0.0123,-0.012,-0.0117,-0.0117,-0.0114,-0.0112,-0.0112,-0.0115,-0.0117,-0.0117,-0.0121,-0.0123,-0.0123,-0.0123,-0.0093,-0.0062,-0.009,-0.0116,-0.0112,-0.0112,-0.0112,-0.0112,-0.0084,-0.0056,0.0,0.0,0.0,0.0,0.0,0.0,0.0,0.0,0.0,0.0,0.0,0.0,0.0,0.0,0.0,0.0,0.0,0.0,0.0,0.0,0.0,0.0,0.0,0.0,0.0,0.0,0.0,0.0,0.0,0.0,0.0,0.0,0.0,0.0,0.0,0.0,0.0,0.0,0.0,0.0,0.0,0.0,0.0,0.0,0.0,0.0,0.0,0.0,0.0,0.0,0.0,0.0,0.0,0.0,0.0,0.0,0.0,0.0,0.0,0.0,0.0,0.0,0.0,0.0,0.0,0.0,0.0,0.0,0.0,0.0,0.0,0.0,0.0,0.0,0.0,0.0,0.0,0.0,0.0,0.0,0.0,0.0,0.0,0.0,0.0,0.0,0.0,0.0,0.0,0.0,0.0,0.0,0.0,0.0,0.0,0.0,0.0,0.0,0.0,0.0,0.0,0.0549,0.084,0.0825,0.144,0.1154,0.0,0.0,0.0,0.0,0.0,0.0,0.0,0.0,0.0,0.0,0.0,0.0111,0.0556,0.0732,0.085,0.1336,0.1051,0.0712,0.0,0.0,0.0,0.0,0.0,0.0,0.0,0.0,0.0,0.0,0.0,0.0,0.0,0.0,0.0,0.0,0.0,0.0,0.0,0.0,0.0,0.0,0.0,0.0,0.0,0.0,0.0,0.0,0.0,0.0,0.0,0.0,0.0,0.0,0.0,0.0,0.0,0.0,0.0,0.0,0.0,0.0,0.0,0.0,0.0,0.0,0.0,0.0,0.0,0.0,0.0242,0.0456,0.0106,0.0249,0.0464,0.011,0.0,0.0072,0.0445,0.0779,0.1032,0.1032,0.1025,0.1058,0.1029,0.0492,0.0,0.0,0.0,0.0,0.0,0.0,0.0,0.0,0.0,0.0,0.0,0.0,0.0,0.0,0.0,0.0,0.0,0.0,0.0125,0.0407,0.045,0.0588,0.0882,0.1508,0.1812,0.1764,0.2442,0.2162,0.0909,0.09,0.0896,0.0896,0.0915,0.0893,0.0,0.0,0.0,0.0,0.0054,0.0382,0.1689,0.0,0.261,0.3878,0.3086,0.2208,0.2192,0.0,0.0,0.0,0.0,0.0,0.0,0.0,0.0,0.0,0.0,0.0,0.0,0.0,0.0,0.0,0.0,0.0,0.0,0.0,0.0,0.0,0.0,0.0,0.0,0.0,0.0,0.0,0.0,0.0,0.0,0.0,0.0,0.0,0.0,0.0,0.0,0.0,0.0,0.0,0.0,0.0,0.0,0.0,0.0,0.0,0.0,0.0,0.0,0.0035,0.0737,0.1407,0.0398,0.0801,0.1427,0.0376,0.0076,0.0342,0.1363,0.2386,0.3099,0.3099,0.3113,0.3118,0.3122,0.1523,0.0073,0.0036,0.0036,0.0,0.0,0.0,0.0,0.0,0.0,0.0,0.0,0.0,0.0,0.0,0.0032,0.0062,0.0062,0.0064,0.0453,0.1293,0.1357,0.1745,0.2683,0.2857,0.2861,0.275,0.288,0.2905,0.2791,0.2717,0.2711,0.2711,0.2711,0.2711,0.0,0.0,0.0,0.0,0.0,0.0,0.0,0.0,0.3331,0.273,0.2339,0.2057,0.2037,0.0,0.0,0.0,0.0,0.0,0.0,0.0,0.0,0.0,0.0,0.0,0.0,0.0,0.0,0.0,0.0,0.0,0.0,0.0,0.0,0.0,0.0,0.0,0.0,0.0,0.0,0.0,0.0,0.0,0.0,0.0,0.0,0.0,0.0,0.0,0.0,0.0,0.0,0.0,0.0,0.0,0.0,0.0,0.0,0.0,0.0,0.0,0.0143,0.0898,0.1349,0.1666,0.2124,0.2464,0.2628,0.2345,0.2256,0.2314,0.2604,0.2876,0.3095,0.3095,0.3116,0.3123,0.3238,0.2805,0.2131,0.1323,0.0546,0.0,0.0,0.0,0.0,0.0,0.0,0.0,0.0,0.0,0.0,0.0,0.07,0.115,0.115,0.1823,0.2359,0.2602,0.2585,0.2736,0.2985,0.3548,0.3825,0.3792,0.4395,0.4704,0.4662,0.3343,0.2694,0.2694,0.2688,0.3042,0.0,0.0,0.0,0.0,0.0,0.0,0.3406,0.4319,0.4874,0.0,0.4188,0.3803,0.3775,0.2637,0.0,0.0,0.0,0.0,0.0,0.0,0.0,0.0,0.0,0.0,0.0,0.0,0.0,0.0,0.0,0.0,0.0,0.0,0.0,0.0,0.0,0.0,0.0,0.0,0.0,0.0,0.0,0.0,0.0,0.0,0.0,0.0,0.0,0.0204,0.0538,0.0538,0.0538,0.0538,0.0538,0.0773,0.1111,0.1129,0.1179,0.1192,0.1209,0.1261,0.1311,0.1546,0.1865,0.2269,0.2409,0.2758,0.3109,0.3112,0.3403,0.3764,0.3775,0.4098,0.4462,0.4506,0.4516,0.4545,0.4697,0.4349,0.3718,0.2576,0.1828,0.1404,0.1315,0.1275,0.1308,0.1296,0.1293,0.1288,0.1311,0.131,0.131,0.131,0.1853,0.2216,0.2216,0.2759,0.327,0.3664,0.37,0.3844,0.421,0.4698,0.4914,0.4856,0.537,0.561,0.5576,0.4394,0.3818,0.3818,0.3817,0.4084,0.0,0.0,0.0,0.0,0.0,0.0,0.544,0.6287,0.681,0.0,0.709,0.6292,0.6241,0.5047,0.4078,0.0,0.0,0.0,0.0,0.0,0.0,0.0,0.0,0.0,0.0,0.0,0.0,0.0,0.0,0.0,0.0,0.0,0.0,0.0,0.0,0.0,0.0,0.0,0.0,0.0,0.0,0.0,0.0,0.0,0.0,0.0,0.014,0.0589,0.1312,0.1413,0.1479,0.1441,0.1441,0.1975,0.2713,0.273,0.2816,0.291,0.2928,0.3017,0.2978,0.2181,0.2463,0.2968,0.218,0.2579,0.332,0.3437,0.4146,0.4901,0.4901,0.562,0.6381,0.6504,0.6538,0.6539,0.6695,0.5966,0.5007,0.3969,0.3583,0.3348,0.3149,0.3136,0.3115,0.313,0.3113,0.3126,0.3147,0.3132,0.3128,0.3139,0.325,0.332,0.3312,0.3422,0.3816,0.4639,0.4712,0.5044,0.5818,0.5969,0.5932,0.5827,0.5905,0.5935,0.58,0.5569,0.5446,0.5446,0.5446,0.5446,0.0,0.0,0.0,0.0,0.0,0.0,0.5927,0.7002,0.7616,0.0,0.6229,0.6037,0.6067,0.4955,0.4387,0.0,0.0,0.0,0.0,0.0,0.0,0.0,0.0,0.0,0.0,0.0,0.0,0.0,0.0,0.0,0.0,0.0,0.0,0.0,0.0,0.0,0.0,0.0,0.0,0.0,0.0,0.0,0.0,0.0,0.0,0.0036,0.0901,0.1281,0.1351,0.2215,0.2529,0.2442,0.2442,0.2542,0.2727,0.2816,0.287,0.2901,0.3016,0.3067,0.32,0.3874,0.3647,0.3221,0.39,0.4219,0.4569,0.5434,0.5904,0.6145,0.6145,0.6398,0.662,0.6647,0.6654,0.6702,0.6851,0.6714,0.6488,0.6244,0.476,0.3512,0.3352,0.3297,0.3291,0.3316,0.3221,0.3182,0.3454,0.3371,0.3316,0.3502,0.4241,0.4653,0.457,0.5353,0.586,0.5943,0.5937,0.6013,0.6211,0.6078,0.5979,0.5946,0.5895,0.5833,0.58,0.5745,0.5718,0.5718,0.5718,0.5718,0.0,0.0,0.0,0.2746,0.0,0.0,0.0,0.7642,0.7932,0.7147,0.6986,0.6986,0.6986,0.6425,0.6246,0.7096,0.6743,0.0,0.0,0.0,0.0,0.0,0.0,0.0,0.0052,0.0607,0.0743,0.0049,0.0,0.0,0.0,0.0,0.0,0.0,0.0,0.0,0.0,0.0,0.0,0.0,0.0,0.0,0.0,0.0,0.0,0.0036,0.0553,0.1278,0.21,0.21,0.2963,0.4171,0.3583,0.3707,0.4255,0.4247,0.4344,0.4451,0.4525,0.4601,0.4686,0.4686,0.4336,0.4029,0.4594,0.5167,0.5726,0.6244,0.6457,0.6511,0.6511,0.6586,0.6722,0.6797,0.6817,0.6858,0.6957,0.6991,0.6991,0.6991,0.6097,0.5262,0.509,0.5022,0.5022,0.5022,0.4971,0.4976,0.5137,0.5059,0.5043,0.5142,0.561,0.5847,0.5715,0.6191,0.645,0.6306,0.63,0.63,0.63,0.6254,0.6254,0.6254,0.6173,0.6098,0.603,0.603,0.5949,0.58,0.58,0.58,0.0,0.0,0.0,0.0,0.0,0.5031,0.0,0.0,0.0,0.7995,0.7988,0.0,0.0,0.0,0.0,0.0,0.0,0.0,0.0,0.0,0.0,0.0,0.0,0.0,0.0887,0.1785,0.1699,0.0098,0.0237,0.0278,0.0,0.0,0.0,0.0,0.0,0.0,0.0,0.0,0.0,0.0,0.0,0.0,0.0,0.0226,0.0302,0.0333,0.0716,0.1799,0.3143,0.2487,0.3653,0.5712,0.4505,0.4752,0.5793,0.5705,0.5827,0.5993,0.6027,0.6159,0.6145,0.5273,0.4885,0.4706,0.4863,0.5502,0.6237,0.6465,0.6539,0.6559,0.6559,0.6675,0.6817,0.6896,0.6923,0.6957,0.7071,0.7098,0.7098,0.7098,0.7098,0.7011,0.679,0.6742,0.6742,0.6742,0.6722,0.6722,0.6776,0.6763,0.6756,0.6783,0.6783,0.6722,0.6573,0.6532,0.6504,0.6388,0.6354,0.6354,0.6381,0.6497,0.6559,0.6559,0.6559,0.6497,0.6381,0.6381,0.6224,0.5888,0.5888,0.5888,0.0,0.0,0.0,0.0,0.4174,0.0,0.0,0.0,0.8208,0.8015,0.0,0.0,0.0,0.0,0.0,0.0,0.0,0.0,0.6127,0.0,0.0,0.3872,0.0,0.0,0.0,0.3741,0.2743,0.0197,0.1105,0.1262,0.0045,0.0,0.0,0.0,0.0,0.0,0.0,0.0,0.0,0.0,0.0,0.0,0.0038,0.1004,0.1403,0.1515,0.3383,0.4218,0.4385,0.5135,0.5662,0.5872,0.4654,0.4836,0.5813,0.5899,0.5966,0.6013,0.6186,0.6286,0.63,0.6145,0.5473,0.4706,0.4863,0.498,0.5324,0.6388,0.677,0.6878,0.6878,0.6943,0.7051,0.7065,0.7071,0.7078,0.7092,0.7098,0.7098,0.7098,0.7098,0.7045,0.6889,0.6862,0.6862,0.6862,0.6783,0.6797,0.7011,0.6937,0.691,0.7031,0.7045,0.6991,0.6849,0.6756,0.6668,0.6654,0.6525,0.6552,0.6647,0.6668,0.6675,0.6675,0.6675,0.6668,0.6654,0.6654,0.6498,0.6245,0.6245,0.6245,0.0,0.0,0.0,0.0,0.0,0.0,0.6952,0.0,0.8119,0.0,0.0,0.0,0.0,0.0,0.0,0.0,0.8187,0.0,0.0,0.0,0.6647,0.0,0.0,0.0,0.0,0.0,0.0,0.0,0.1695,0.1419,0.0093,0.0,0.0,0.0,0.0,0.0,0.0,0.0,0.0,0.0,0.0,0.0314,0.0927,0.1385,0.1905,0.2501,0.3398,0.4076,0.4614,0.4385,0.5079,0.6165,0.5052,0.522,0.6064,0.6037,0.6139,0.6295,0.6402,0.6484,0.6519,0.6519,0.6288,0.5988,0.605,0.6062,0.6164,0.669,0.6836,0.6883,0.6883,0.6991,0.7098,0.7098,0.721,0.7272,0.7272,0.7346,0.738,0.7292,0.7272,0.7224,0.7031,0.7011,0.7011,0.7011,0.695,0.6957,0.7078,0.7045,0.7031,0.7092,0.7098,0.7038,0.6896,0.6871,0.6797,0.6709,0.6641,0.6675,0.6824,0.6831,0.6831,0.6831,0.6831,0.679,0.6702,0.6702,0.6593,0.6422,0.6422,0.6422,-0.0535,0.0,0.0,0.0,0.0,0.0,0.0,0.0,0.0,0.0,0.0,0.0,0.0,0.0,0.0,0.0,0.0,0.8194,0.0,0.0,0.0,0.0,0.0,0.0,0.0,0.0,0.0,0.2147,0.2326,0.1803,0.0095,0.0,0.0,0.0,0.0,0.0,0.0,0.0,0.0,0.0,0.0,0.0569,0.1678,0.195,0.2675,0.3663,0.3941,0.4535,0.5179,0.4416,0.5063,0.6492,0.5676,0.5824,0.6409,0.6254,0.6349,0.6532,0.6532,0.6607,0.6702,0.6702,0.6776,0.6829,0.6876,0.6883,0.6896,0.693,0.6943,0.6943,0.6943,0.7018,0.7105,0.7146,0.7292,0.7433,0.7421,0.7522,0.7563,0.7455,0.7434,0.74,0.724,0.7186,0.7146,0.7105,0.7132,0.7146,0.7098,0.7098,0.7112,0.7152,0.7119,0.7071,0.7054,0.693,0.6836,0.677,0.6797,0.6871,0.6937,0.6943,0.6943,0.6943,0.6943,0.6889,0.6824,0.6824,0.6763,0.6654,0.6573,0.6491,0.0,0.0,0.0,0.1708,0.0,0.0,0.0,0.0,0.7988,0.0,0.0,0.0,0.0,0.0,0.0,0.0,0.0,0.0,0.0,0.0,0.0,0.0,0.0,0.0,0.0,0.0,0.6228,0.2302,0.3217,0.2779,0.0139,0.0,0.0,0.0,0.0,0.0,0.0,0.0,0.0,0.0,0.0,0.063,0.184,0.2887,0.3972,0.509,0.6137,0.6605,0.664,0.6605,0.6647,0.6695,0.6654,0.6647,0.6688,0.6681,0.6681,0.6695,0.6695,0.6695,0.6702,0.6702,0.6702,0.6736,0.6842,0.6883,0.6916,0.7051,0.7092,0.7092,0.7092,0.7092,0.7132,0.7326,0.7412,0.746,0.7563,0.7597,0.7597,0.759,0.759,0.759,0.7584,0.7461,0.7312,0.7119,0.7272,0.7312,0.7112,0.7098,0.7197,0.7346,0.7231,0.7197,0.7392,0.7095,0.6883,0.6876,0.7004,0.7085,0.7092,0.7092,0.7092,0.7092,0.7092,0.7085,0.7085,0.7085,0.7078,0.7065,0.6675,0.6436,0.0,0.0,0.0318,0.1646,0.0,0.0,0.0,0.0,0.0,0.0,0.0,0.0,0.0,0.0,0.0,0.0,0.0,0.0,0.0,0.0,0.0,0.0,0.0,0.0,0.0,0.0,0.0,0.2253,0.243,0.191,0.0093,0.0,0.0,0.0,0.0,0.0,0.0,0.0,0.0,0.0,0.081,0.1787,0.2893,0.4037,0.5131,0.6191,0.6529,0.6702,0.6702,0.6702,0.6763,0.6851,0.6851,0.6869,0.6837,0.5882,0.6086,0.6865,0.6916,0.695,0.695,0.695,0.695,0.6957,0.7011,0.7024,0.7038,0.7085,0.7217,0.7272,0.7125,0.7217,0.7305,0.7405,0.7448,0.7563,0.7706,0.7821,0.7862,0.776,0.774,0.7712,0.7617,0.7638,0.7611,0.7468,0.7489,0.7502,0.7448,0.7441,0.7428,0.7419,0.7414,0.7428,0.7419,0.7373,0.7373,0.7373,0.7421,0.7441,0.7441,0.7441,0.7441,0.7441,0.7346,0.7292,0.7292,0.7146,0.7051,0.6993,0.7632,0.7484,-0.2492,-0.1282,0.0,0.1678,0.2017,0.0,0.3678,0.0,0.0,0.0,0.0,0.0,0.0,0.0,0.0,0.0,0.0,0.0,0.0,0.6326,0.0,0.0,0.0,0.0,0.0,0.0,0.4384,0.2153,0.2005,0.14,0.0,0.0,0.0,0.0,0.0,0.0,0.0,0.0,0.0,0.0,0.0785,0.1959,0.3517,0.4216,0.5163,0.6257,0.6257,0.6257,0.6257,0.6257,0.6527,0.6964,0.6964,0.7051,0.7101,0.6079,0.6227,0.697,0.7065,0.7098,0.7098,0.7098,0.7098,0.7098,0.7098,0.7098,0.7105,0.721,0.7292,0.736,0.7312,0.738,0.7461,0.7516,0.7604,0.7712,0.7862,0.7921,0.7961,0.7909,0.7889,0.7862,0.7773,0.7834,0.7828,0.7631,0.7645,0.7658,0.7604,0.7597,0.7584,0.7536,0.757,0.7556,0.7461,0.7543,0.7597,0.7597,0.7597,0.7597,0.7597,0.7597,0.7597,0.7597,0.7502,0.7455,0.7455,0.7353,0.7231,0.7088,0.7861,0.7788]},{"header":{"parameterUnit":"m.s-1","parameterCategory":1,"la1":30.6,"la2":29.2853,"lo1":-89.7004,"lo2":-87.6739,"dy":0.0162,"dx":0.0183,"nx":112,"ny":82,"refTime":"2023-08-22T06:00:00:Z","depth":0,"parameterNumber":3,"parameterNumberName":"V-component_of_WINDS"},"data":[0.0,0.0,0.0,0.0,0.0,0.0,0.0,0.0,0.0,0.0,0.0,0.0,0.0,0.0,0.0,0.0,0.0,0.0,0.0,0.0,0.0,0.0,0.0,0.0,0.0,0.0,0.0,0.0,0.0,0.0,0.0,0.0,0.0,0.0,0.0,0.0,0.0,0.0,0.0,0.0,0.0,0.0,0.0,0.0,0.0,0.0,0.0,0.0,0.0,0.0,0.0,0.0,0.0,0.0,0.0,0.0,0.0,0.0,0.0,0.0,0.0,0.0,0.0,0.0,0.0,0.0,0.0,0.0,0.0,0.0,0.0,0.0,0.0,0.0,0.0,0.0,0.0,0.0,0.0,0.0,0.0,0.0,0.0,0.0,0.0,0.0,0.0,0.0,0.0,0.0,0.5112,0.3088,-0.0051,-0.2655,-0.4334,-0.5598,-0.7509,-1.0436,0.0,0.0,0.0,0.0,0.0,0.0,0.0,0.0,0.0,0.0,0.0,0.0,0.0,0.0,0.0,0.0,0.0,0.0,0.0,0.0,0.0,0.0,0.0,0.0,0.0,0.0,0.0,0.0,0.0,0.0,0.0,0.0,0.0,0.0,0.0,0.0,0.0,0.0,0.0,0.0,0.0,0.0,0.0,0.0,0.0,0.0,0.0,0.0,0.0,0.0,0.0,0.0,0.0,0.0,0.0,0.0,0.0,0.0,0.0,0.0,0.0,0.0,0.0,0.0,0.0,0.0,0.0,0.0,0.0,0.0,0.0,0.0,0.0,0.0,0.0,0.0,0.0,0.0,0.0,0.0,0.0,0.0,0.0,0.0,0.0,0.0,0.0,0.0,0.0,0.0,0.0,0.0,0.0,0.0,0.0,0.0,0.0,0.0,0.0,0.0,0.0,0.0,0.0,0.0,0.3335,0.0791,-0.1009,-0.2673,-0.4355,-0.5604,-0.7509,-1.0399,0.0,0.0,0.0,0.0,0.0,0.0,0.0,0.0,0.0,0.0,0.0,0.0,0.0,0.0,0.0,0.0,0.0,0.0,0.0,0.0,0.0,0.0,0.0,0.0,0.0,0.0,0.0,0.0,0.0,0.0,0.0,0.0,0.0,0.0,0.0,0.0,0.0,0.0,0.0,0.0,0.0,0.0,0.0,0.0,0.0,0.0,0.0,0.0,0.0,0.0,0.0,0.0,0.0,0.0,0.0,0.0,0.0,0.0,0.0,0.0,0.0,0.0,0.0,0.0,0.0,0.0,0.0,0.0,0.0,0.0,0.0,0.0,0.0,0.0,0.0,0.0,0.0,0.0,0.0,0.0,0.0,0.0,0.0,0.0,0.0,0.0,0.0,0.0,0.0,0.0,0.0,0.0,0.0,0.0,0.0,0.0,0.0,0.0,0.0,0.0,0.0,0.0,0.0,0.3339,0.1803,-0.08,-0.2264,-0.3758,-0.5318,-0.6527,-0.821,-1.0575,-1.0468,0.0,0.0,0.0,0.0,0.0,0.0,0.0,0.0,0.0,0.0,0.0,0.0,0.0,0.0,0.0,0.0,0.0,0.0,0.0,0.0,0.0,0.0,0.0,0.0,0.0,0.0,0.0,0.0,0.0,0.0,0.0,0.0,0.0,0.0,0.0,0.0,0.0,0.0,0.0,0.0,0.0,0.0,0.0,0.0,0.0,0.0,0.0,0.0,0.0,0.0,0.0,0.0,0.0,0.0,0.0,0.0,0.0,0.0,0.0,0.0,0.0,0.0,0.0,0.0,0.0,0.0,0.0,0.0,0.0,0.0,0.0,0.0,0.0,0.0,0.0,0.0,0.0,0.0,0.0,0.0,0.0,0.0,0.0,0.0,0.0,0.0,0.0,0.0,0.0,0.0,0.0,0.0,0.0,0.0,0.0,0.0,0.0,0.0,0.0,0.0,0.0,0.0,0.2047,0.0488,-0.1756,-0.3215,-0.4603,-0.618,-0.7359,-0.8758,-1.0591,-1.0386,0.0,0.0,0.0,0.0,0.0,0.0,0.0,0.0,0.0,0.0,0.0,0.0,0.0,0.0,0.0,0.0,0.0,0.0,0.0,0.0,0.0,0.0,0.0,0.0,0.0,0.0,0.0,0.0,0.0,0.0,0.0,0.0,0.0,0.0,0.0,0.0,0.0,0.0,0.0,0.0,0.0,0.0,0.0,0.0,0.0,0.0,0.0,0.0,0.0,0.0,0.0,0.0,0.0,0.0,0.0,0.0,0.0,0.0,0.0,0.0,0.0,0.0,0.0,0.0,0.0,0.0,0.0,0.0,0.0,0.0,0.0,0.0,0.0,0.0,0.0,0.0,0.0,0.0,0.0,0.0,0.0,0.0,0.0,0.0,0.0,0.0,0.0,0.0,0.0,0.0,0.0,0.0,0.0,0.0,0.0,0.0,0.0,0.0,0.0,0.0,0.0,0.0,0.1218,-0.0402,-0.1861,-0.3215,-0.4603,-0.618,-0.7359,-0.8713,-1.0336,-1.0255,0.0,0.0,0.0,0.0,0.0,0.0,0.0,0.0,0.0,0.0,0.0,0.0,0.0,0.0,0.0,0.0,0.0,0.0,0.0,0.0,0.0,0.0,0.0,0.0,0.0,0.0,0.0,0.0,0.0,0.0,0.0,0.0,0.0,0.0,0.0,0.0,0.0,0.0,0.0,0.0,0.0,0.0,0.0,0.0,0.0,0.0,0.0,0.0,0.0,0.0,0.0,0.0,0.0,0.0,0.0,0.0,0.0,0.0,0.0,0.0,0.0,0.0,0.0,0.0,0.0,0.0,0.0,0.0,0.0,0.0,0.0,0.0,0.0,0.0,0.0,0.0,0.0,0.0,0.0,0.0,0.0,0.0,0.0,0.0,0.0,0.0,0.0,0.0,0.0,0.0,0.0,0.0,0.0,0.0,0.0,0.0,0.0,0.0,0.0,0.0,0.0,0.0,0.0046,-0.1767,0.0,-0.4468,-0.5842,-0.7252,-0.7766,-0.8705,-1.0397,0.0,0.0,0.0,0.0,0.0,0.0,0.0,0.0,0.0,0.0,0.0,0.0,0.0,0.0,0.0,0.0,0.0,0.0,0.0,0.0,0.0,0.0,0.0,0.0,0.0,0.0,0.0,0.0,0.0,0.0,0.0,0.0,0.0,0.0,0.0,0.0,0.0,0.0,0.0,0.0,0.0,0.0,0.0,0.0,0.0,0.0,0.0,0.0,0.0,0.0,0.0,0.0,0.0,0.0,0.0,0.0,0.0,0.0,0.0,0.0,0.0,0.0,0.0,0.0,0.0,0.0,0.0,0.0,0.0,0.0,0.0,0.0,0.0,0.0,0.0,0.0,0.0,0.0,0.0,0.0,0.0,0.0,0.0,0.0,0.0,0.0,0.0,0.0,0.0,0.0,0.0,0.0,0.0,0.0,0.0,0.0,0.0,0.0,0.0,0.0,0.0,0.0,0.1264,-0.0639,-0.2525,0.0,-0.5222,-0.6531,-0.7889,-0.7901,-0.8617,-1.0336,0.0,0.0,0.0,0.0,0.0,0.0,0.0,0.0,0.0,0.0,0.0,0.0,0.0,0.0,0.0,0.0,0.0,0.0,0.0,0.0,0.0,0.0,0.0,0.0,0.0,0.0,0.0,0.0,0.0,0.0,0.0,0.0,0.0,0.0,0.0,0.0,0.0,0.0,0.0,0.0,0.0,0.0,0.0,0.0,0.0,0.0,0.0,0.0,0.0,0.0,0.0,0.0,0.0,0.0,0.0,0.0,0.0,0.0,0.0,0.0,0.0,0.0,0.0,0.0,0.0,0.0,0.0,0.0,0.0,0.0,0.0,0.0,0.0,0.0,0.0,0.0,0.0,0.0,0.0,0.0,0.0,0.0,0.0,0.0,0.0,0.0,0.0,0.0,0.0,0.0,0.0,0.0,0.0,0.0,0.0,0.0,0.0,0.0,0.0,0.0,0.0,0.0,0.1123,-0.0653,-0.256,-0.3857,-0.5222,-0.6581,-0.7889,-0.7773,-0.8329,0.0,0.0,0.0,0.0,0.0,0.0,0.0,0.0,0.0,0.0,0.0,0.0,0.0,0.0,0.0,0.0,0.0,0.0,0.0,0.0,0.0,0.0,0.0,0.0,0.0,0.0,0.0,0.0,0.0,0.0,0.0,0.0,0.0,0.0,0.0,0.0,0.0,0.0,0.0,0.0,0.0,0.0,0.0,0.0,0.0,0.0,0.0,0.0,0.0,0.0,0.0,0.0,0.0,0.0,0.0,0.0,0.0,0.0,0.0,0.0,0.0,0.0,0.0,0.0,0.0,0.0,0.0,0.0,0.0,0.0,0.0,0.0,0.0,0.0,0.0,0.0,0.0,0.0,0.0,0.0,0.0,0.0,0.0,0.0,0.0,0.0,0.0,0.0,0.0,0.0,0.0,0.0,0.0,0.0,0.0,0.0,0.0,0.0,0.0,0.0,0.0,0.0,0.0,-0.2063,-0.2897,-0.3926,-0.5255,-0.6631,-0.7545,-0.784,-0.7801,-0.808,-0.8897,0.0,0.0,0.0,0.0,0.0,0.0,0.0,0.0,0.0,0.0,0.0,0.0,0.0,0.0,0.0,0.0,0.0,0.0,0.0,0.0,0.0,0.0,0.0,0.0,0.0,0.0,0.0,0.0,0.0,0.0,0.0,0.0,0.0,0.0,0.0,0.0,0.0,0.0,0.0,0.0,0.0,0.0,0.0,0.0,0.0,0.0,0.0,0.0,0.0,0.0,0.0,0.0,0.0,0.0,0.0,0.0,0.0,0.0,0.0,0.0,0.0,0.0,0.0,0.0,0.0,0.0,0.0,0.0,0.0,0.0,0.0,0.0,0.0,0.0,0.0,0.0,0.0,0.0,0.0,0.0,0.0,0.0,0.0,0.0,0.0,0.0,0.0,0.0,0.0,0.0,0.0,0.0,0.0,0.0,0.0,0.0,0.0,0.0,0.0,0.0,0.0,0.0,-0.3473,-0.4272,-0.504,-0.5841,-0.71,-0.7909,-0.7821,-0.7706,-0.7915,-0.8492,0.0,0.0,0.0,0.0,0.0,0.0,0.0,0.0,0.0,0.0,0.0,0.0,0.0,0.0,0.0,0.0,0.0,0.0,0.0,0.0,0.0,0.0,0.0,0.0,0.0,0.0,0.0,0.0,0.0,0.0,0.0,0.0,0.0,0.0,0.0,0.0,0.0,0.0,0.0,0.0,0.0,0.0,0.0,0.0,0.0,0.0,0.0,0.0,0.0,0.0,0.0,0.0,0.0,0.0,0.0,0.0,0.0,0.0,0.0,0.0,0.0,0.0,0.0,0.0,0.0,0.0,0.0,0.0,0.0,0.0,0.0,0.0,0.0,0.0,0.0,0.0,0.0,0.0,0.0,0.0,0.0,0.0,0.0,0.0,0.0,0.0,0.0,0.0,0.0,0.0,0.0,0.0,0.0,0.0,0.0,0.0,0.0,0.0,0.0,0.0,0.0,0.0,-0.3882,-0.5041,-0.5826,-0.5994,-0.7076,-0.7801,-0.7773,-0.7522,-0.7788,-0.8651,0.0,0.0,0.0,0.0,0.0,0.0,0.0,0.0,0.0,0.0,0.0,0.0,0.0,0.0,0.0,0.0,0.0,0.0,0.0,0.0,0.0,0.0,0.0,0.0,0.0,0.0,0.0,0.0,0.0,0.0,0.0,0.0,0.0,0.0,0.0,0.0,0.0,0.0,0.0,0.0,0.0,0.0,0.0,0.0,0.0,0.0,0.0,0.0,0.0,0.0,0.0,0.0,0.0,0.0,0.0,0.0,0.0,0.0,0.0,0.0,-0.5086,0.0,0.0,0.0,0.0,0.0,0.0,0.0,0.0,0.0,0.0,0.0,0.0,0.0,0.0,0.0,0.0,0.0,0.0,0.0,0.0,0.0,0.0,0.0,0.0,0.0,0.0,0.0,0.0,0.0,0.0,0.0,0.0,0.0,0.0,0.0,0.0,0.0,0.0,0.0,0.0,0.0,-0.6192,-0.6012,-0.6211,-0.7257,-0.7614,-0.7719,-0.7489,-0.7453,-0.7789,-0.864,-0.9317,0.0,0.0,0.0,0.0,0.0,0.0,0.0,0.0,0.0,0.0,0.0,0.0,0.0,0.0,0.0,0.0,0.0,0.0,0.0,0.0,0.0,0.0,0.0,0.0,0.0,0.0,0.0,0.0,0.0,0.0,0.0,0.0,0.0,0.0,0.0,0.0,0.0,0.0,0.0,0.0,0.0,0.0,0.0,0.0,0.0,0.0,0.0,0.0,0.0,0.0,0.0,0.0,0.0,0.0,0.0,0.0,0.0,0.0,0.0,0.0,-0.6059,0.0,0.0,0.0,0.0,0.0,0.0,0.0,0.0,0.0,0.0,0.0,0.0,0.0,0.0,0.0,0.0,0.0,0.0,0.0,0.0,0.0,0.0,0.0,0.0,0.0,0.0,0.0,0.0,0.0,0.0,0.0,0.0,0.0,0.0,0.0,0.0,0.0,0.0,0.0,0.0,-0.695,-0.6788,-0.6876,-0.7644,-0.7645,-0.7536,-0.7433,-0.7305,-0.7679,-0.8716,-0.9345,0.0,0.0,0.0,0.0,0.0,0.0,0.0,0.0,0.0,0.0,0.0,0.0,0.0,0.0,0.0,0.0,0.0,0.0,0.0,0.0,0.0,0.0,0.0,0.0,0.0,0.0,0.0,0.0,0.0,0.0,0.0,0.0,0.0,0.0,0.0,0.0,0.0,0.0,0.0,0.0,0.0,0.0,0.0,0.0,0.0,0.0,0.0,0.0,0.0,0.0,0.0,0.0,0.0,0.0,0.0,0.0,0.0,-0.0917,-0.2597,-0.4823,-0.6777,-0.8412,-0.8501,0.0,0.0,0.0,0.0,0.0,0.0,0.0,0.0,0.0,0.0,0.0,0.0,0.0,0.0,0.0,0.0,0.0,0.0,0.0,0.0,0.0,0.0,0.0,0.0,-0.7563,-0.7604,0.0,0.0,0.0,0.0,0.0,0.0,0.0,0.0,0.0,0.0,0.0,0.0,-0.7011,-0.7258,-0.7421,-0.755,-0.7448,-0.7405,-0.7333,-0.721,-0.7709,-0.9104,-0.9563,-1.0332,0.0,0.0,0.0,0.0,0.0,0.0,0.0,0.0,0.0,0.0,0.0,0.0,0.0,0.0,0.0,0.0,0.0,0.0,0.0,0.0,0.0,0.0,0.0,0.0,0.0,0.0,0.0,0.0,0.0,0.0,0.0,0.0,1.1637,1.0923,0.0,0.0,0.0,0.0,0.0,0.0,0.0,0.0,0.0,0.0,0.0,0.0,0.0,0.0,0.0,0.0,0.0,0.0,0.0,0.0,0.0,0.0,-0.0908,-0.251,-0.2856,0.0,-0.7227,-0.8384,0.0,0.0,0.0,0.0,0.0,0.0,0.0,0.0,0.0,0.0,0.0,0.0,0.0,0.0,0.0,0.0,0.0,0.0,0.0,0.0,0.0,0.0,-0.7867,-0.7787,-0.7868,-0.7921,0.0,-0.7462,-0.7078,-0.7018,-0.6844,0.0,0.0,0.0,0.0,0.0,0.0,0.0,-0.6903,-0.7197,-0.7426,-0.7446,-0.7433,-0.7319,-0.7139,-0.7105,-0.8053,-1.0226,-1.0204,-1.1062,-1.3196,-1.2907,0.0,0.0,0.0,0.0,0.0,0.0,0.0,0.0,0.0,0.0,0.0,0.0,0.0,0.0,0.0,0.0,0.0,0.0,0.0,0.0,0.0,0.0,0.0,0.0,0.0,0.0,0.0,0.0,0.0,1.3778,1.1878,1.1586,0.9787,0.8425,0.0,0.0,0.0,0.0,0.0,0.0,0.0,0.0,0.0,0.0933,0.0297,0.0,0.0,0.0,0.0,0.0,0.0,0.0,0.0,0.0,-0.0926,-0.2531,-0.259,-0.382,-0.5886,-0.7227,-0.8159,-0.8716,0.0,0.0,0.0,0.0,-0.8147,-0.8106,-0.8194,-0.8282,0.0,-0.8133,0.0,0.0,0.0,0.0,0.0,0.0,0.0,0.0,0.0,0.0,-0.7916,-0.7887,-0.7941,-0.7988,-0.7988,-0.7786,-0.755,0.0,-0.7292,-0.7149,-0.6916,0.0,0.0,0.0,0.0,-0.6916,-0.6997,-0.7088,-0.7156,-0.7231,-0.7095,-0.7,-0.6977,-0.6977,-0.7997,-1.0433,-1.0361,-1.1211,-1.3518,-1.324,-1.2958,0.0,0.0,0.0,0.0,0.0,0.0,0.0,0.0,0.0,0.0,0.0,0.0,0.0,0.0,0.0,0.0,0.0,0.0,0.0,0.0,0.0,0.0,0.0,0.0,0.0,0.0,0.0,0.0,1.4581,1.2956,1.2415,1.0732,0.9223,0.0,0.0,0.0,0.0,0.0,0.0,0.5172,0.5142,0.4083,0.1469,0.0934,0.0695,0.0706,0.0258,0.0,0.0,0.0,0.0,0.0,0.0,-0.0685,-0.188,-0.1941,-0.2859,-0.4416,-0.62,-0.7541,-0.8407,-0.8634,-0.8642,-0.8533,-0.8499,-0.8479,-0.8499,-0.8615,-0.8723,-0.8764,-0.8431,0.0,-0.814,-0.7767,0.0,0.0,0.0,0.0,-0.774,-0.7841,-0.7868,-0.7896,-0.7961,-0.7988,-0.7988,-0.7988,-0.7961,-0.788,0.0,-0.7651,-0.7495,-0.7156,0.0,0.0,0.0,0.0,-0.6923,-0.7031,-0.6916,-0.6883,-0.7024,-0.6858,-0.6749,-0.6858,-0.6862,-0.7947,-1.0386,-1.0381,-1.1341,-1.3624,-1.34,-1.3106,-1.2904,0.0,0.0,0.0,0.0,0.0,0.0,0.0,0.0,0.0,0.0,0.0,0.0,0.0,0.0,0.0,0.0,0.0,0.0,0.0,0.0,0.0,0.0,0.0,0.0,0.0,0.0,0.0,0.0,0.0,1.3758,1.277,0.0,0.0,0.0,0.0,0.8851,0.9171,0.8755,0.7293,0.7276,0.6571,0.5181,0.3444,0.2573,0.2543,0.085,0.0,0.0,0.0,0.0,0.0,0.0,-0.0063,-0.0124,-0.0124,-0.1111,-0.2827,-0.5854,-0.7059,-0.7096,-0.8268,-0.8703,-0.8682,-0.8533,-0.8479,-0.8486,-0.8492,-0.8499,-0.8499,-0.8479,-0.8282,-0.7968,-0.7848,-0.7801,0.0,0.0,-0.7896,-0.7968,-0.7975,-0.7975,-0.7982,-0.7988,-0.7988,-0.7988,-0.7988,-0.7874,-0.7862,0.0,-0.7794,-0.759,-0.757,0.0,-0.7038,-0.6896,-0.6883,-0.6889,-0.6896,-0.6803,-0.677,-0.6883,-0.6797,-0.6702,-0.6709,-0.6844,-0.7893,-1.025,-1.0527,-1.1627,-1.3971,-1.3507,-1.32,-1.3186,-1.2392,0.0,0.0,0.0,0.0,0.0,0.0,0.0,0.0,0.0,0.0,0.0,0.0,0.0,0.0,0.0,0.0,0.0,0.0,0.0,0.0,0.0,0.0,0.0,0.0,0.0,0.0,0.0,0.0,1.5523,1.4748,0.0,1.1037,1.1028,1.0674,0.9562,0.9693,0.9174,0.7749,0.7668,0.6892,0.527,0.458,0.4191,0.4109,0.2457,0.1606,0.16,0.0507,0.0,0.0,0.0,0.0,0.0,0.0,-0.0308,-0.1047,-0.3241,-0.5252,-0.7054,-0.7414,-0.8146,-0.8981,-0.8832,-0.8777,-0.8764,-0.8662,-0.8628,-0.8601,-0.8411,-0.8208,-0.7982,-0.7928,-0.7907,-0.7907,-0.7907,-0.7948,-0.7988,-0.7988,-0.7988,-0.7988,-0.7988,-0.7988,-0.7961,-0.7916,-0.7848,-0.7801,-0.776,-0.7672,-0.757,-0.7468,-0.736,-0.7238,-0.7045,-0.6943,-0.6883,-0.6883,-0.6709,-0.6573,-0.6627,-0.6505,-0.6497,-0.6546,-0.6695,-0.7731,-0.9937,-1.023,-1.1308,-1.3439,-1.332,-1.3026,-1.2639,-1.2305,-1.2046,0.0,0.0,0.0,0.0,0.0,0.0,0.0,0.0,0.0,0.0,0.0,0.0,0.0,0.0,0.0,0.0,0.0,0.0,0.0,0.0,0.0,0.0,0.0,0.0,0.0,0.0,1.7207,1.6702,1.6428,1.5366,1.3229,1.3255,1.2665,1.1016,1.1055,1.0388,0.8779,0.8725,0.8112,0.6904,0.6251,0.59,0.5842,0.4154,0.3048,0.2455,0.138,0.0559,0.0,0.0,0.0,0.0,0.0,0.0,-0.0061,-0.1209,-0.3176,-0.5645,-0.657,-0.7549,-0.8457,-0.8785,-0.8885,-0.8803,-0.8215,-0.7993,-0.7886,-0.7698,-0.7806,-0.7988,-0.7988,-0.7988,-0.7988,-0.7988,-0.769,-0.7335,-0.7335,-0.698,-0.6625,-0.6625,-0.6647,-0.6744,-0.7046,-0.6762,-0.6531,-0.6882,-0.7243,-0.7396,-0.6884,-0.6775,-0.6667,-0.6529,-0.6362,-0.6397,-0.6833,-0.662,-0.6457,-0.6504,-0.6381,-0.634,-0.6429,-0.6855,-0.791,-0.9717,-1.0336,-1.1421,-1.3134,-1.3106,-1.2866,-1.2502,-1.2251,-1.1917,-1.1389,0.0,0.0,0.0,0.0,0.0,0.0,0.0,0.0,0.0,0.0,0.0,0.0,0.0,0.0,0.0,0.0,0.0,0.0,0.0,0.0,0.0,0.0,0.0,2.0491,1.9766,1.8932,1.7325,1.7889,1.7522,1.5336,1.5515,1.5081,1.3302,1.328,1.253,1.0702,1.0558,1.0426,1.0283,0.8597,0.7694,0.7689,0.5871,0.4204,0.2641,0.2539,0.1648,0.006,0.0,0.0,0.0,0.0,0.0,0.0,0.0,-0.0928,-0.27,-0.5618,-0.6788,-0.6995,-0.8308,-0.8768,-0.8569,-0.7105,-0.6426,-0.6236,-0.6236,-0.6979,-0.7889,-0.7889,-0.7889,-0.7939,-0.7939,-0.7036,-0.6077,-0.6077,-0.5068,-0.4064,-0.4064,-0.4009,-0.4298,-0.5509,-0.4729,-0.4139,-0.5288,-0.6481,-0.6891,-0.5751,-0.547,-0.5393,-0.5354,-0.5079,0.0,-0.6678,-0.6532,-0.6354,-0.6497,-0.6388,-0.6306,-0.6306,-0.7328,-0.8444,-0.9576,-1.0773,-1.1958,-1.3068,-1.2893,-1.277,-1.277,-1.2208,-1.173,-1.1402,0.0,0.0,0.0,0.0,0.0,0.0,0.0,0.0,0.0,0.0,0.0,0.0,0.0,0.0,0.0,0.0,0.0,0.0,0.0,0.0,0.0,0.0,2.3358,2.145,2.1552,2.1353,2.0148,2.0151,1.96,1.7725,1.7632,1.6979,1.5242,1.4,1.3037,1.2538,1.1258,1.0426,1.0283,0.9658,0.9299,0.9199,0.7408,0.6259,0.5835,0.3415,0.2019,0.1539,0.0474,0.0,0.0,0.0,0.0,0.0,0.0,-0.0293,-0.088,-0.2746,-0.4218,-0.5341,-0.5626,-0.5608,-0.542,-0.5006,-0.4799,-0.4653,-0.4653,-0.4839,-0.5118,-0.5118,-0.5772,-0.6531,-0.6531,-0.6986,-0.7434,-0.7434,-0.6465,-0.5459,-0.5459,-0.4707,-0.4051,-0.4321,-0.4082,-0.3857,-0.411,-0.4437,-0.4519,-0.421,-0.4715,-0.4926,-0.4225,-0.4545,0.0,-0.5402,-0.5961,-0.6354,-0.6497,-0.6477,-0.6457,-0.6457,-0.6829,-0.7427,-0.8258,-0.9389,-1.0456,-1.1437,-1.2078,-1.2425,-1.2425,-1.21,-1.1859,0.0,0.0,0.0,0.0,0.0,0.0,0.0,0.0,0.0,0.0,0.0,0.0,0.0,0.0,0.0,0.0,0.0,0.0,0.0,0.0,0.0,0.0,2.5457,2.5126,2.3865,2.2937,2.2215,2.1718,2.1107,2.0362,1.9337,1.9212,1.8509,1.672,1.5704,1.4454,1.2978,1.1869,1.0924,1.0093,0.9998,0.9883,0.9734,0.8683,0.7773,0.701,0.5061,0.3797,0.3137,0.2266,0.1513,0.0931,0.0925,0.0579,0.0,0.0,0.0,0.0,0.0,0.0,0.0,0.0,-0.4032,-0.3354,-0.3371,-0.3267,-0.3165,-0.3165,-0.3566,-0.4014,-0.4014,-0.4568,-0.5172,-0.5172,-0.5322,-0.5472,-0.5472,-0.4506,-0.347,-0.347,-0.2872,-0.2432,-0.2864,-0.2568,-0.2332,-0.2779,-0.279,0.0,-0.2164,-0.298,-0.3531,-0.294,-0.3605,-0.4331,-0.4819,-0.5714,-0.6334,-0.6416,-0.6422,-0.6422,-0.6422,-0.6857,0.0,0.0,0.0,-1.0443,-1.1391,-1.1996,0.0,0.0,0.0,-1.2087,-1.2087,0.0,0.0,0.0,-1.3429,-1.4449,0.0,0.0,0.0,0.0,0.0,0.0,0.0,0.0,0.0,0.0,0.0,0.0,0.0,0.0,0.0,0.0,2.7129,2.7453,2.6774,2.4211,2.2458,2.272,2.1406,2.047,2.047,2.0288,1.9546,1.7994,1.7737,1.6223,1.3146,0.0,0.0,0.0,0.0,0.9921,0.9632,0.9585,0.8784,0.7206,0.7006,0.6129,0.4733,0.4562,0.3768,0.2454,0.2249,0.1467,0.0229,0.0056,0.0,-0.0112,-0.1418,-0.1977,-0.2109,-0.3484,-0.3145,-0.1967,-0.1962,0.0,0.0,-0.1762,-0.2563,-0.3566,-0.3566,-0.3667,-0.3767,-0.3767,-0.301,-0.2206,-0.2206,-0.1237,-0.0244,-0.0244,-0.0095,-0.0276,-0.138,-0.0757,-0.0302,-0.1382,-0.1501,-0.11,-0.0167,-0.1,-0.175,-0.1628,-0.2373,-0.3304,-0.4397,-0.5466,-0.6106,-0.6126,0.0,0.0,-0.6327,-0.7126,-0.7642,-0.76,-0.9514,-1.1131,-1.2268,-1.2305,-1.2305,-1.2305,-1.2305,-1.2305,-1.2305,-1.2415,-1.2452,-1.2489,-1.4735,-1.5902,0.0,0.0,0.0,0.0,0.0,0.0,0.0,0.0,0.0,0.0,0.0,0.0,0.0,0.0,0.0,2.6719,2.7324,2.7779,2.7964,2.61,2.4616,2.4331,2.2928,2.2065,2.2065,2.0939,2.0045,1.9728,1.8362,1.7284,1.6613,1.5136,1.3563,1.1955,1.1671,1.0986,0.9781,0.9422,0.9171,0.8904,0.0,0.0,0.6228,0.505,0.4323,0.3986,0.2742,0.2017,0.1686,0.0505,0.0,-0.0055,-0.0331,-0.0441,-0.0438,-0.074,-0.0676,-0.0414,-0.0408,-0.0405,-0.0404,-0.0404,-0.0555,-0.0756,-0.0756,-0.1511,0.0,-0.2364,-0.2984,-0.3589,-0.3589,-0.2637,-0.1636,-0.1636,-0.0771,-0.0044,-0.0315,-0.0172,-0.0083,-0.0295,-0.0327,-0.0238,-0.004,-0.0914,-0.136,-0.049,-0.1241,-0.1972,-0.2208,-0.3843,-0.504,-0.5177,-0.5946,-0.647,-0.647,-0.6629,-0.6634,-0.6348,-0.8282,-1.0279,-1.2218,-1.2305,-1.2305,-1.2305,-1.2305,-1.2305,-1.2305,-1.3062,-1.3426,-1.3426,-1.3175,-1.4067,0.0,0.0,0.0,0.0,0.0,0.0,0.0,0.0,0.0,0.0,0.0,2.7767,0.0,0.0,2.6719,2.7793,2.7969,2.7988,2.7988,2.7175,2.6241,2.547,2.3878,2.2647,2.2079,2.1335,2.0586,1.9859,1.9001,1.8152,1.7349,1.6261,1.4945,1.3338,1.229,1.1388,1.058,0.966,0.9157,0.9157,0.8221,0.782,0.7765,0.7038,0.6311,0.5584,0.4801,0.4021,0.324,0.1734,0.0666,0.0055,0.0758,0.0591,0.0,0.0,0.0,0.0,0.0,0.0,0.0,0.0,0.0,0.0,0.0,-0.0451,-0.0994,-0.0994,-0.147,-0.1979,-0.1979,-0.1512,-0.1016,-0.1016,-0.0497,0.0,0.0,0.0,0.0,0.0,0.0,0.0,0.0,-0.0427,-0.0622,-0.008,-0.0909,-0.16,-0.1619,-0.3339,-0.4642,-0.468,-0.5562,-0.6139,-0.6139,-0.6139,-0.6296,-0.6645,-0.8032,-0.9564,-1.1137,-1.1781,-1.2091,-1.2091,-1.2225,-1.2305,-1.2305,-1.2652,-1.2799,-1.2784,-1.2145,-1.328,0.0,0.0,0.0,0.0,0.0,0.0,0.0,0.0,3.2349,3.2215,3.1247,3.022,2.9799,2.8584,2.789,2.8687,2.8516,2.8184,2.7832,2.7637,2.7256,2.6496,2.4715,2.3217,2.2392,2.2102,2.1356,1.9924,1.9809,1.9158,1.756,1.7131,1.623,1.4719,1.3136,1.2164,1.1759,1.0579,0.995,0.9798,0.95,0.932,0.932,0.9044,0.8269,0.7088,0.679,0.5835,0.4335,0.3047,0.1866,0.0864,0.1969,0.1726,0.0721,0.0507,0.0202,0.0,0.0,0.0,0.0,0.0,0.0,0.0,0.0,0.0,0.0,0.0,0.0,0.0,0.0,0.0,0.0,0.0,0.0,0.0,0.0,0.0,0.0,0.0,0.0,0.0,0.0,0.0,0.0,0.0,-0.0737,-0.1305,-0.1279,-0.2843,-0.4004,-0.4179,-0.5003,-0.562,-0.58,-0.5779,-0.6193,-0.7247,-0.7918,-0.8863,-1.0066,-1.1019,-1.1642,-1.1784,-1.2011,-1.2131,-1.2131,-1.1891,-1.1784,-1.1819,-1.1543,-1.2767,3.4149,3.3283,3.3201,3.5157,3.503,3.5223,0.0,0.0,3.5765,3.5153,3.4384,3.2987,3.0184,2.9827,2.9599,2.8554,2.832,2.8281,2.8223,2.7578,2.7195,2.7466,2.5777,2.4703,2.4933,2.3779,2.2553,2.1457,2.1358,2.0687,1.9243,1.8792,1.7926,1.6287,1.5702,1.4767,1.3429,1.3057,1.2904,1.2959,1.1515,1.0836,1.0836,0.9478,0.883,0.8595,0.7144,0.5678,0.4201,0.3918,0.3695,0.3584,0.373,0.3687,0.3425,0.2215,0.1008,0.0,0.0,0.0,0.0,0.0,0.0,0.0,0.0,0.0,0.0,0.0,0.0,0.0,0.0,0.0,0.0,0.0,0.0,0.0,0.0,0.0,0.0,0.0,0.0,0.0,0.0,0.0,0.0,0.0,-0.0112,-0.0183,-0.0183,-0.1205,-0.2223,-0.3013,-0.4025,-0.4961,-0.5728,-0.5684,-0.6111,-0.7239,-0.7268,-0.8113,-1.002,-1.0241,-1.0669,-1.1442,-1.1503,-1.1495,-1.1495,-1.1455,-1.1476,-1.1476,-1.1402,-1.2059,3.6955,3.6748,3.6684,3.6765,3.6954,3.7459,3.8644,3.8169,3.7594,3.7962,3.6632,3.5041,3.3948,3.2509,3.1116,0.0,2.9623,2.9116,2.8107,2.7402,2.6992,2.6934,2.6231,2.5629,2.5431,2.4844,2.4027,2.2951,2.1969,2.1092,2.0486,1.9153,1.8066,1.7388,1.6223,1.5298,1.4691,1.379,1.3244,1.3106,1.2427,1.2112,1.2058,1.0625,0.9504,0.875,0.8081,0.6872,0.5412,0.5369,0.4825,0.4078,0.4854,0.4696,0.3917,0.3366,0.2814,0.2213,0.141,0.1662,0.221,0.1344,0.1091,0.1136,0.1067,0.0574,0.0,0.0,0.0,0.0134,0.0758,0.0921,0.1077,0.1663,0.1817,0.1797,0.1814,0.1724,0.1678,0.1692,0.1165,0.0774,0.0765,0.0324,0.0,0.0,0.0,0.0,0.0,-0.0818,-0.1765,-0.2674,-0.3634,-0.4362,-0.4711,-0.5216,-0.5684,-0.615,-0.6621,-0.7474,-0.8809,-0.9524,-1.0294,-1.1136,-1.1309,-1.1389,-1.1389,-1.1249,-1.1169,-1.1169,-1.0995,-1.1144,3.886,3.925,3.9458,3.8409,3.8985,3.9698,3.9413,3.9096,3.9158,4.0137,3.8274,3.643,3.6511,3.441,3.2336,3.1512,3.1038,3.0254,2.8637,2.791,2.734,2.6808,2.6543,2.6295,2.6085,2.589,2.5451,2.451,2.3064,2.2033,2.1757,2.0062,1.8992,1.8562,1.7277,1.6368,1.6009,1.4915,1.4261,1.398,1.355,1.331,1.3257,1.1801,1.0437,0.9169,0.9125,0.8243,0.684,0.6802,0.6112,0.5222,0.6149,0.5946,0.5114,0.5038,0.4598,0.3864,0.2864,0.3165,0.3804,0.2708,0.2398,0.2483,0.2327,0.1681,0.0967,0.0956,0.0933,0.1084,0.1807,0.1994,0.2216,0.2908,0.3055,0.3068,0.3097,0.2976,0.286,0.2884,0.2231,0.1686,0.1674,0.1115,0.0619,0.0381,0.0315,0.0246,0.0035,-0.0761,-0.1644,-0.2616,-0.348,-0.4118,-0.435,-0.4956,-0.533,-0.533,-0.5866,-0.6598,-0.7458,-0.8291,-0.9133,-1.0014,-1.0279,-1.0484,-1.073,-1.051,-1.0516,-1.0742,-1.0479,-1.0261,3.8715,3.9448,4.0098,4.0489,4.1155,4.1801,4.2204,4.1389,4.0728,4.1402,3.9259,3.7037,3.6265,3.4675,3.3213,3.2364,3.2252,3.1774,3.039,2.9459,2.8631,2.7786,2.6894,2.6719,0.0,2.7234,2.6669,2.61,2.5218,2.4245,2.3168,2.2388,2.1385,2.0068,1.965,1.8864,1.7529,1.725,1.7103,1.7038,1.535,1.457,1.4519,1.3028,1.1639,1.0335,1.0204,0.9427,0.8211,0.8012,0.7902,0.7895,0.7945,0.7895,0.7869,0.7722,0.6126,0.4014,0.3964,0.3964,0.3954,0.3785,0.3762,0.3736,0.3592,0.35,0.3471,0.3335,0.3296,0.3274,0.3076,0.3058,0.308,0.3096,0.2988,0.294,0.309,0.29,0.2729,0.2871,0.2775,0.2668,0.2663,0.2527,0.2147,0.1371,0.115,0.0817,0.0101,-0.0773,-0.1676,-0.2609,-0.348,-0.4384,-0.5292,-0.5191,-0.5103,-0.5103,-0.5006,-0.535,-0.6211,-0.6272,-0.6731,-0.7598,-0.7757,-0.8244,-0.9058,-0.8923,-0.9291,-1.014,-0.9846,-0.9402,4.021,4.0946,4.1594,4.2167,4.2428,4.2588,4.2633,4.2636,4.2461,4.1626,4.0055,3.8408,3.7111,3.5947,3.4653,3.2888,3.3487,3.3623,3.1869,3.1774,3.1497,3.0486,2.9635,0.0,0.0,0.0,0.0,2.7561,2.5666,2.4432,2.4404,2.2756,2.1636,2.1174,2.1062,2.0632,1.9841,1.8992,1.8289,1.7773,1.6397,1.5208,1.4251,1.3959,1.2974,1.1567,1.1551,1.1197,1.0681,1.0609,1.0583,1.0565,1.0382,0.9932,0.928,0.8941,0.7835,0.6393,0.5388,0.5703,0.6322,0.5223,0.4938,0.4957,0.4822,0.4158,0.3439,0.3393,0.3306,0.3347,0.3977,0.4081,0.421,0.487,0.4991,0.4936,0.489,0.4806,0.4759,0.4686,0.4082,0.3554,0.3551,0.3057,0.2318,0.1438,0.0766,0.0267,0.0034,-0.0269,-0.0567,-0.0883,-0.2152,-0.3135,-0.3457,-0.4391,-0.4961,-0.4961,-0.4914,-0.5305,-0.6164,-0.6194,-0.6614,-0.7478,-0.755,-0.7712,-0.8012,-0.7952,-0.8119,-0.8519,-0.833,-0.8173,4.2629,4.3078,4.3202,4.3805,4.3701,4.3362,4.2934,4.2914,4.2798,4.2021,4.03,3.8692,3.7861,3.6346,3.4874,3.3801,3.4257,3.4342,3.3208,3.3109,3.2941,3.2302,3.1453,3.1186,0.0,0.0,0.0,2.8778,2.6442,2.5186,2.5498,2.3993,2.2798,2.2161,2.2161,2.1726,2.0769,1.9921,1.9138,1.8597,1.738,1.6278,1.5396,1.5084,1.4185,1.2784,1.2698,1.229,1.1771,1.1642,1.1612,1.1592,1.1395,1.0962,1.0332,0.9963,0.9452,0.8744,0.6944,0.6934,0.7549,0.6473,0.6139,0.6127,0.5957,0.5308,0.4567,0.4531,0.4426,0.4478,0.5087,0.5196,0.5292,0.585,0.5952,0.5922,0.582,0.5718,0.5616,0.5562,0.4983,0.4455,0.4337,0.3605,0.2785,0.2113,0.1101,0.0295,0.0033,0.0,-0.013,-0.0446,-0.1426,-0.2199,-0.2557,-0.3711,-0.4441,-0.4441,-0.4634,-0.5012,-0.556,-0.559,-0.5852,-0.6432,-0.6476,-0.666,-0.6954,-0.6925,-0.7101,-0.747,-0.7285,-0.712,4.5516,4.5588,4.4828,4.5303,4.493,4.4185,4.3267,4.2372,4.1938,4.2488,4.0104,3.8023,0.0,0.0,3.4242,3.5152,3.4674,3.4264,3.4558,3.3792,3.329,0.0,0.0,0.0,0.0,0.0,0.0,2.9947,0.0,2.6486,2.6506,2.5977,2.4879,2.3154,2.3087,2.2294,2.0601,2.0173,1.9827,1.9497,1.8319,1.7777,1.7731,1.6513,1.5305,1.4124,1.372,1.289,1.1744,1.1446,1.1319,1.1308,1.1298,1.1263,1.1151,1.0965,1.097,1.0729,0.8528,0.7757,0.7736,0.7576,0.7424,0.722,0.7082,0.6937,0.6819,0.6673,0.6664,0.6622,0.6475,0.6433,0.6346,0.6156,0.6004,0.5929,0.5873,0.5686,0.5517,0.5503,0.547,0.5315,0.4965,0.4211,0.359,0.3362,0.2137,0.0932,0.016,0.0031,-0.0308,-0.1136,-0.1259,-0.1656,-0.2539,-0.3184,-0.3537,-0.3537,-0.4116,-0.4436,-0.4436,-0.4491,-0.4491,-0.4491,-0.4634,-0.5107,-0.5911,-0.5788,-0.616,-0.6966,-0.6634,-0.623,4.5223,4.5775,4.585,4.5537,4.5341,4.4884,4.352,4.2967,4.2492,4.1532,4.0256,3.8789,0.0,0.0,0.0,3.5557,3.6966,0.0,3.7219,3.7593,0.0,3.6309,0.0,3.5001,3.5307,3.3038,0.0,0.0,2.9461,2.7999,2.833,2.6654,2.5334,2.4584,2.4564,2.4032,2.2924,2.1599,2.0445,1.9497,1.9177,1.9039,1.9039,1.8358,1.787,1.7462,1.6296,1.5586,1.5214,1.4366,1.3993,1.3968,1.3723,1.3168,1.2462,1.2068,1.1337,1.0504,0.9774,0.9611,0.9658,0.9536,0.9292,0.9036,0.8991,0.8869,0.8776,0.873,0.865,0.8522,0.8244,0.8079,0.796,0.7687,0.7596,0.7478,0.7144,0.7084,0.703,0.6732,0.6226,0.5647,0.5023,0.4705,0.4321,0.3615,0.3202,0.243,0.0992,0.0341,-0.0092,-0.0299,-0.0833,-0.1236,-0.1493,-0.2158,-0.257,-0.257,-0.3276,-0.3649,-0.3622,-0.4181,-0.4491,-0.4491,-0.4532,-0.4657,-0.488,-0.4853,-0.4995,-0.5316,-0.5119,-0.5014,4.6743,4.6816,4.6472,4.6777,4.6195,4.5182,4.4033,4.3231,4.2357,4.1188,4.0085,3.893,3.7591,3.751,0.0,0.0,0.0,0.0,3.838,3.8309,3.8065,0.0,3.6727,0.0,3.6034,3.434,3.3363,0.0,3.0851,2.9137,2.918,2.7804,2.6775,2.6364,2.6111,2.5406,2.427,2.2807,2.1765,2.1078,2.0539,2.0228,2.0011,1.9168,1.8676,1.8469,0.0,1.7106,1.7048,1.6117,1.5744,1.5714,1.5309,1.4809,1.4265,1.4008,1.3205,1.2247,1.2172,1.2107,1.1846,1.0429,0.9826,0.9597,0.9597,0.9527,0.9396,0.9396,0.9236,0.9035,0.8868,0.8668,0.8459,0.8249,0.8086,0.7894,0.7578,0.7466,0.7386,0.714,0.6652,0.6067,0.5417,0.5225,0.4882,0.4124,0.3713,0.3175,0.2176,0.1151,0.0353,0.0029,-0.0374,-0.0628,-0.0617,-0.1285,-0.1729,-0.1729,-0.2452,-0.2841,-0.2813,-0.3262,-0.3483,-0.3483,-0.3483,-0.3483,-0.3483,-0.3483,-0.352,-0.3613,-0.3515,-0.352,4.8766,4.7983,4.6809,4.8016,4.6873,4.5259,4.4473,4.3172,4.1985,4.1201,3.9931,3.8953,3.8836,3.7717,3.7141,3.8197,0.0,3.7069,3.921,3.8096,3.7388,3.8159,3.7298,3.6413,3.5764,3.5587,3.5284,3.485,3.2148,3.0262,2.9647,2.8925,2.8254,2.7806,2.7314,2.6381,2.5041,2.4059,2.356,2.356,2.2397,2.1671,2.1293,1.9931,1.9143,1.8778,1.8213,0.0,1.7888,1.7053,1.6694,1.6661,1.6185,1.6,1.6,1.6,1.5449,1.4727,1.4682,1.4524,1.3878,1.1169,1.0182,1.0069,1.0069,0.9893,0.9707,0.9707,0.9453,0.9192,0.9161,0.8948,0.872,0.8547,0.8253,0.7983,0.7819,0.7541,0.7307,0.7208,0.6961,0.6566,0.5993,0.5767,0.5464,0.4869,0.4147,0.3622,0.3478,0.2147,0.095,0.0224,0.014,0.0112,0.0,-0.0588,-0.095,-0.095,-0.1646,-0.2063,-0.2063,-0.2147,-0.2202,-0.2202,-0.2202,-0.2202,-0.2202,-0.2202,-0.2202,-0.2202,-0.2202,-0.2202,4.8424,4.7768,4.6937,4.6819,4.6,4.4949,4.3826,4.2895,0.0,4.1298,4.0479,3.968,3.9024,3.9552,4.0103,4.0157,4.0363,4.1047,4.2499,4.1513,4.038,0.0,3.8542,0.0,0.0,0.0,0.0,0.0,0.0,3.2474,3.0977,2.8987,2.7654,2.7249,2.6822,2.6467,2.6235,2.6027,2.5902,2.588,2.5196,2.4835,2.4686,2.2876,2.1989,2.1809,1.9691,0.0,1.8692,1.7271,1.6694,1.6661,1.6185,1.6,1.6,1.6,1.5783,1.538,1.5053,1.498,1.4852,1.3789,1.3224,1.2972,1.2972,1.2429,1.1774,1.1774,1.1569,1.1301,1.1023,1.0768,1.0487,1.0238,0.9926,0.9614,0.9364,0.8905,0.8319,0.7722,0.7534,0.7273,0.6584,0.6418,0.6372,0.6263,0.5601,0.4902,0.4292,0.292,0.1729,0.0978,0.0922,0.0672,0.0056,-0.0112,-0.0196,-0.0196,-0.0894,-0.1285,-0.1285,-0.1868,-0.2202,-0.2202,-0.2202,-0.2202,-0.2202,-0.2202,-0.2202,-0.2202,-0.2202,-0.2202,4.7866,4.7322,4.6687,4.6459,4.5844,4.5072,4.4009,0.0,0.0,4.1268,4.0778,4.0309,3.9662,3.999,0.0,4.0728,4.0694,4.1207,4.2811,4.1679,0.0,4.0838,0.0,0.0,0.0,0.0,0.0,0.0,0.0,3.3067,3.1792,3.014,2.8994,2.8512,2.7743,2.7319,2.7319,2.6771,2.6349,2.6039,2.5753,2.5333,2.482,2.3892,2.3351,2.3037,2.13,0.0,2.1214,1.9447,1.8788,1.8769,1.802,1.7439,1.7027,1.7027,1.6651,1.6085,1.5635,1.5498,1.5498,1.4962,1.449,1.4073,1.3866,1.3473,1.3189,1.3388,1.2778,1.2077,1.2158,1.1817,1.1312,1.0939,1.0532,1.0023,0.9369,0.9005,0.8699,0.8342,0.8262,0.8049,0.7289,0.7182,0.7047,0.6669,0.6308,0.5955,0.5584,0.4601,0.3335,0.184,0.1673,0.1536,0.1174,0.1146,0.0978,0.0588,0.0252,-0.014,-0.0504,-0.0866,-0.1062,-0.1062,-0.1062,-0.1062,-0.1062,-0.1062,-0.1062,-0.1062,-0.1062,-0.1062,4.7551,4.691,4.6412,4.6434,4.594,4.5182,4.432,4.3745,4.296,4.1418,4.0978,4.078,4.0343,4.0072,4.021,0.0,4.0483,4.072,4.2719,4.1735,4.1047,0.0,0.0,0.0,0.0,0.0,0.0,0.0,0.0,0.0,3.232,3.147,3.0752,3.0126,2.9213,2.8679,2.8466,2.7509,2.6772,2.6319,2.605,2.5585,2.4866,2.4528,2.4144,2.3781,2.262,0.0,0.0,2.1452,2.0807,2.0791,1.9925,1.9177,1.8563,1.8563,1.8026,1.721,1.676,1.6576,1.6468,1.5958,1.5278,1.4614,1.4297,1.4049,1.3982,1.4293,1.3439,1.2544,1.2917,1.2534,1.1905,1.1404,1.0874,1.0264,0.9399,0.9237,0.9237,0.9237,0.9237,0.9054,0.8475,0.8369,0.8131,0.7385,0.7144,0.7009,0.6858,0.6199,0.5074,0.3335,0.273,0.2397,0.2202,0.2202,0.1952,0.1369,0.1341,0.109,0.0504,0.0476,0.0476,0.0476,0.0476,0.0476,0.0476,0.0476,0.0476,0.0476,0.0476,0.0476,4.7962,4.6923,4.6445,4.6534,4.588,4.5035,4.4406,0.0,4.3597,4.2043,4.1273,4.0862,4.085,4.0427,4.0467,4.1625,4.1229,4.1627,4.3976,4.3934,4.3339,0.0,0.0,0.0,0.0,0.0,0.0,0.0,0.0,0.0,3.2581,3.2472,3.1992,3.1119,3.0981,3.0481,2.9663,2.8985,2.8648,2.8599,2.7605,2.7119,2.6959,2.5553,2.4897,2.4755,2.327,0.0,0.0,2.1608,2.1141,2.113,2.0662,2.043,2.0365,2.0365,1.996,1.9341,1.8942,1.8736,1.8493,1.7663,1.6407,1.5227,1.5159,1.4574,1.39,1.3933,1.3623,1.3283,1.3332,1.3119,1.2707,1.2004,1.1518,1.1101,1.0691,1.061,1.061,1.061,1.061,1.0585,1.0534,1.0509,1.0279,0.9599,0.8934,0.8291,0.7664,0.6966,0.6426,0.6226,0.4443,0.2984,0.2258,0.2202,0.2174,0.2091,0.2091,0.2063,0.2007,0.2007,0.2007,0.2007,0.2007,0.2007,0.2007,0.2007,0.2007,0.2007,0.2007,0.2007,4.7652,4.7091,4.6632,4.6725,4.5767,4.4837,4.4792,0.0,4.3186,4.2476,4.1874,4.1353,4.1024,4.049,4.0256,4.0729,4.0602,4.0993,4.2719,4.2461,0.0,0.0,0.0,0.0,0.0,0.0,0.0,0.0,0.0,0.0,3.437,3.3255,3.2415,3.2055,3.1658,3.1254,3.0884,3.0228,2.975,2.944,2.9023,2.8354,2.7532,2.6901,2.618,2.5301,2.413,0.0,0.0,2.2531,2.2031,2.2073,2.1562,2.1069,2.0546,2.0223,1.9946,1.9594,1.8873,1.8576,1.8436,1.7801,1.7177,1.667,1.667,1.6435,1.6088,1.5927,1.5221,1.4454,1.4005,1.3246,1.2508,1.2305,1.1939,1.1455,1.0922,1.0788,1.0788,1.0788,1.0788,1.0788,1.0788,1.0788,1.0712,1.0432,1.0151,0.9778,0.9271,0.8572,0.786,0.7273,0.6091,0.5183,0.4875,0.4436,0.3996,0.355,0.3141,0.2702,0.223,0.2202,0.2202,0.2202,0.2202,0.2202,0.2202,0.2202,0.2202,0.2202,0.2202,0.2202,4.7215,4.7289,4.7352,4.7096,4.6076,4.5164,0.0,0.0,4.3355,4.3027,4.2462,4.1895,4.1343,4.072,4.0269,4.0138,4.0113,4.0445,4.146,4.1445,0.0,0.0,0.0,0.0,0.0,0.0,0.0,0.0,0.0,0.0,3.6164,3.4679,3.347,3.2765,3.2277,3.1798,3.1296,3.0657,3.0162,2.9816,2.9656,2.9029,2.8071,2.7878,2.7131,2.5924,2.5144,0.0,0.0,2.3692,2.3288,2.3139,2.2784,2.2267,2.1625,2.1093,2.0723,2.0461,1.9801,1.9443,1.9251,1.8922,1.868,1.856,1.856,1.8004,1.729,1.6927,1.621,1.5391,1.4867,1.3949,1.3228,1.3304,1.2981,1.2531,1.2067,1.1951,1.1951,1.1951,1.1951,1.1951,1.1951,1.1688,1.1396,1.12,1.0918,1.0546,1.0058,0.9556,0.8949,0.8236,0.786,0.734,0.6541,0.6081,0.5592,0.5085,0.4601,0.4085,0.3528,0.35,0.35,0.35,0.35,0.35,0.35,0.35,0.35,0.35,0.35,0.35,4.6837,4.7459,4.861,4.7854,4.6918,4.6176,4.6283,4.5441,4.4471,4.3644,4.3069,4.2518,4.1895,4.1273,4.0709,4.0179,4.0113,4.0277,4.0832,4.171,0.0,0.0,0.0,0.0,0.0,0.0,0.0,0.0,0.0,0.0,3.7793,3.7064,3.5546,3.3182,3.3115,3.2273,3.0623,3.0086,2.9816,2.9788,2.9274,2.9002,2.8943,2.8274,2.7592,0.0,0.0,0.0,0.0,2.498,2.4936,2.4284,2.4368,2.4392,2.4283,2.36,2.3022,2.2578,2.255,2.2162,2.1663,2.1663,2.1254,2.0763,2.0763,1.8906,1.6699,1.6158,1.6,1.5974,1.5974,1.5623,1.527,1.527,1.4962,1.4675,1.4652,1.4652,1.4652,1.4652,1.4652,1.4652,1.4652,1.3778,1.283,1.2198,1.1235,1.0346,0.9603,0.9489,0.9489,0.9489,0.9881,0.9087,0.6442,0.6431,0.6588,0.6588,0.6561,0.6561,0.6561,0.6561,0.6561,0.6561,0.6561,0.6561,0.6561,0.6561,0.6561,0.6561,0.6561,0.6561,4.6182,4.6582,4.7033,4.6811,4.5729,4.4694,4.4728,4.3693,4.2769,4.2937,4.2165,4.1552,4.1768,4.099,4.0303,4.0138,4.0113,4.0147,0.0,0.0,0.0,0.0,0.0,0.0,0.0,0.0,0.0,0.0,0.0,0.0,3.7089,3.6805,3.6365,3.5576,3.4647,3.3884,3.3349,3.225,3.148,3.1031,3.0366,2.9493,2.8506,2.8278,2.7558,0.0,0.0,0.0,0.0,2.4095,2.3903,2.3689,2.371,2.3733,2.365,2.3045,2.274,2.249,2.1663,2.125,2.1001,2.0543,2.0273,2.0053,1.9635,1.9199,1.861,1.7605,1.6692,1.598,1.5615,1.5207,1.4875,1.4875,1.4787,1.4698,1.4698,1.4698,1.4698,1.4698,1.4407,1.4161,1.4161,1.352,1.2979,1.2744,1.2446,1.2047,1.1552,1.149,1.1225,1.0545,1.0789,1.0437,0.9068,0.8806,0.8737,0.8737,0.8279,0.7805,0.7298,0.7271,0.7079,0.6615,0.6588,0.6588,0.6588,0.6588,0.6588,0.6588,0.6588,0.6588,4.5309,4.608,4.6561,4.6313,4.5235,4.4277,4.4341,4.3202,4.2262,4.2616,4.1916,4.1273,4.1429,4.1059,4.0611,4.0154,4.0466,4.0776,0.0,0.0,0.0,0.0,0.0,0.0,0.0,0.0,0.0,0.0,0.0,0.0,3.7594,3.73,3.7012,3.6751,3.5341,3.4468,3.4212,3.3124,3.2353,3.1914,3.1191,3.0377,2.9469,2.9229,2.8441,0.0,0.0,0.0,0.0,2.4911,2.4646,2.4373,2.4196,2.4278,2.4305,2.3096,2.2758,2.2746,2.1547,2.114,2.1083,2.0642,2.0337,2.0066,1.9554,1.9309,1.8971,1.8188,1.7415,1.6785,1.6455,1.6166,1.599,1.599,1.599,1.599,1.599,1.599,1.599,1.599,1.5697,1.5383,1.5146,1.4687,1.4145,1.347,1.3245,1.2904,1.2259,1.2173,1.1925,1.1297,1.155,1.1655,1.1344,1.0599,1.0141,1.013,0.9731,0.9294,0.8841,0.8815,0.8606,0.8185,0.8185,0.8185,0.8185,0.7933,0.78,0.78,0.7251,0.7155,0.0,4.5645,4.6649,4.606,4.5251,4.462,4.4714,4.364,0.0,4.2635,4.2139,4.153,4.1013,4.134,4.1375,4.0279,4.1036,0.0,0.0,4.2874,0.0,0.0,0.0,0.0,0.0,0.0,0.0,0.0,0.0,0.0,3.9084,3.8313,3.7566,3.6842,3.5456,3.4388,3.3655,3.288,3.2478,3.2414,3.1669,3.1294,3.123,3.0616,2.9919,0.0,0.0,0.0,0.0,2.6782,2.6629,2.5901,2.5546,2.5665,2.5771,2.359,2.3041,2.3212,2.2111,2.1703,2.1703,2.1693,2.1222,2.0665,2.0412,1.9372,1.8269,1.8249,1.8249,1.8249,1.8171,1.8151,1.8131,1.8112,1.8092,1.8092,1.8092,1.8092,1.8092,1.8092,1.8064,1.7824,1.716,1.6797,1.6027,1.4297,1.3765,1.3173,1.2141,1.1982,1.1982,1.1982,1.2298,1.2715,1.3256,1.1967,1.1107,1.1082,1.104,1.099,1.0939,1.0889,1.0838,1.0788,1.0788,1.0788,1.0788,1.0167,0.9858,0.9832,0.8527,0.8289,4.3099,0.0,4.3811,4.4054,4.396,4.3668,0.0,4.2573,4.2,4.2,4.1196,4.0577,4.085,4.1036,4.0897,4.0204,0.0,0.0,0.0,0.0,0.0,0.0,0.0,0.0,0.0,0.0,0.0,0.0,0.0,4.0162,3.9434,3.8622,3.7872,3.7141,3.6371,3.5441,3.4286,3.3054,3.2168,3.1657,3.0969,3.0384,2.9863,2.9703,2.923,0.0,0.0,0.0,2.6146,2.5811,2.5564,2.5362,2.5274,2.4983,2.4512,2.3967,2.3487,2.2975,2.2209,2.1939,2.1827,2.131,2.1075,2.0919,2.086,2.035,1.9766,1.9705,1.9723,1.9546,1.8825,1.8636,1.8541,1.819,1.8092,1.8092,1.8092,1.8092,1.8092,1.8092,1.7772,1.7264,1.661,1.6508,1.604,1.4582,1.4749,1.4718,1.3947,1.3878,1.3878,1.3878,1.365,1.3735,1.4245,1.3622,1.3357,1.3752,1.3369,1.2846,1.2361,1.1846,1.1316,1.0813,1.0788,1.0788,1.0788,1.0636,1.0559,1.0559,1.0228,1.0151,4.3086,4.3179,4.3376,4.368,4.3952,4.4048,4.3776,4.294,4.2221,4.2221,4.1508,4.0978,4.1251,4.1855,4.1961,0.0,4.2477,0.0,0.0,0.0,0.0,0.0,0.0,0.0,0.0,0.0,0.0,0.0,0.0,4.0141,3.9029,3.8549,3.7948,3.7227,3.6552,3.5774,3.4898,3.3535,3.2517,3.1792,3.1099,3.0681,3.0468,2.9935,2.9613,0.0,0.0,0.0,2.6869,2.6169,2.5892,2.5873,2.5635,2.5248,2.4701,2.3901,2.3319,2.2748,2.1873,2.155,2.1486,2.1119,2.0991,2.1023,2.1213,2.1102,2.0862,2.0635,2.0586,2.0438,1.9945,1.9823,1.9753,1.9486,1.9414,1.9414,1.9414,1.9414,1.9414,1.9414,1.9022,1.8526,1.808,1.8144,1.7634,1.5832,1.6105,1.6002,1.4675,1.4501,1.4501,1.4501,1.431,1.4507,1.5301,1.4872,1.4585,1.4676,1.4399,1.405,1.3679,1.3324,1.2966,1.2585,1.2585,1.2439,1.2165,1.187,1.1548,1.1266,1.0939,1.0788,4.3579,4.3964,4.4314,4.4139,4.45,4.4901,4.4874,4.3848,4.2838,4.2729,4.2221,4.181,4.181,4.2859,0.0,0.0,0.0,0.0,0.0,0.0,0.0,0.0,0.0,0.0,0.0,0.0,0.0,0.0,0.0,4.0044,3.8605,3.8427,3.809,3.745,3.6559,3.586,3.5339,3.406,3.3128,3.25,3.175,3.1514,3.1706,3.0722,3.0347,3.0351,0.0,0.0,2.776,2.7129,2.6873,2.6824,2.6302,2.5866,2.5399,2.3852,2.3079,2.2648,2.167,2.1351,2.1351,2.1351,2.1351,2.1412,2.1742,2.183,2.1772,2.1443,2.1291,2.1166,2.1102,2.1086,2.1071,2.1007,2.0991,2.0991,2.0991,2.0991,2.0991,2.0991,2.0698,2.033,2.0047,2.0225,1.9664,1.7471,1.7654,1.7359,1.5417,1.5092,1.502,1.502,1.4858,1.523,1.6379,1.5913,1.5409,1.5098,1.4991,1.488,1.4812,1.4812,1.4789,1.4698,1.4698,1.4445,1.3933,1.3372,1.2798,1.2214,1.1672,1.1399,4.3677,4.4936,4.5805,4.481,4.4808,4.4939,4.4766,4.4195,4.3507,4.2838,4.2221,4.181,4.181,4.2409,4.2861,0.0,0.0,4.6626,0.0,0.0,0.0,0.0,0.0,0.0,0.0,0.0,0.0,0.0,0.0,4.064,3.9707,3.8996,3.8595,3.8465,3.7255,3.6281,3.5565,3.4304,3.36,3.3495,3.2685,3.1982,3.1363,3.1191,3.0434,2.9228,0.0,2.8469,2.7886,2.776,2.7725,2.764,2.6886,2.6149,2.5397,2.4444,2.3689,2.31,2.291,2.2863,2.2863,2.2863,2.2863,2.2875,2.296,2.2937,2.2925,2.2875,2.2493,2.2003,2.163,2.1506,2.1414,2.1071,2.0991,2.0991,2.0991,2.0991,2.0991,2.0991,2.0943,2.0703,2.0093,2.0511,2.04,1.8882,1.9221,1.932,1.8436,1.7746,1.7371,1.7371,1.6521,1.632,1.7246,1.6865,1.6631,1.6728,1.6231,1.5807,1.5394,1.5372,1.5173,1.4698,1.4698,1.4652,1.456,1.4468,1.4376,1.4238,1.4145,1.4099,4.3688,4.4337,4.5171,4.5826,4.6779,4.7536,4.7404,4.6471,4.5401,4.4599,4.3864,4.3385,4.3385,0.0,4.5397,4.6395,0.0,4.6937,0.0,0.0,0.0,0.0,0.0,0.0,0.0,0.0,0.0,0.0,0.0,0.0,3.9276,3.8909,3.8505,3.8065,3.7442,3.6765,3.5979,3.4909,3.3948,3.3047,3.2677,3.2207,3.1678,3.0985,3.0198,2.9297,0.0,2.8216,2.7897,2.7897,2.7897,2.7826,2.7006,2.6193,2.5335,2.4155,2.3495,2.32,2.32,2.32,2.32,2.32,2.32,2.32,2.32,2.32,2.32,2.32,2.3007,2.273,2.2538,2.2451,2.2424,2.2215,2.2187,2.2132,2.1955,2.1912,2.1888,2.1735,2.1508,2.1301,2.1246,2.1294,2.0995,2.0025,2.0141,2.0004,1.9101,1.8704,1.8336,1.7955,1.7441,1.7424,1.8191,1.7731,1.7463,1.7633,1.7041,1.6764,1.6892,1.6897,1.6798,1.6545,1.6545,1.6375,1.6053,1.6053,1.5876,1.557,1.557,1.5394,4.4149,4.4267,4.5022,4.6891,4.7959,4.8828,4.9742,4.8567,4.7205,4.6947,4.6117,4.5397,0.0,4.6239,0.0,4.9011,4.8346,0.0,0.0,0.0,0.0,0.0,0.0,0.0,0.0,0.0,0.0,0.0,0.0,0.0,3.8958,3.8736,3.8329,3.7715,3.7332,3.6814,3.6223,3.5373,3.4306,3.3077,3.2719,3.2301,3.1836,3.0708,2.9911,2.9422,2.8533,2.8161,2.8161,2.8161,2.8161,2.8054,2.7049,2.6086,2.5063,2.3872,2.3444,2.3444,2.3444,2.3444,2.3444,2.3444,2.3444,2.3444,2.3444,2.3444,2.3444,2.3444,2.3444,2.3421,2.3236,2.32,2.32,2.32,2.32,2.3129,2.2873,2.2822,2.2746,2.2561,2.222,2.2108,2.2467,2.2206,2.1787,2.1305,2.1204,2.0901,2.0069,1.9843,1.9491,1.8844,1.8601,1.8705,1.923,1.8708,1.8516,1.8757,1.8301,1.8188,1.8579,1.8579,1.8522,1.8407,1.8387,1.8166,1.7697,1.7605,1.7343,1.6902,1.6757,1.649,4.5447,4.6196,4.6995,4.7897,4.6706,4.6282,4.9887,4.9178,4.8149,4.9586,4.8671,4.7457,4.6991,4.6958,4.7307,4.8158,4.8874,0.0,0.0,0.0,0.0,0.0,0.0,0.0,0.0,0.0,0.0,0.0,0.0,0.0,3.9585,3.8771,3.8308,3.8232,3.6776,3.5985,3.591,3.513,3.4755,3.481,3.3309,3.2201,3.142,3.0589,2.9783,2.9025,2.8965,2.8917,2.8917,2.8917,2.8917,2.877,2.7196,2.567,2.4278,2.4168,2.4141,2.4141,2.4141,2.4141,2.4141,2.4141,2.4141,2.4141,2.4141,2.4141,2.4141,2.4141,2.4141,2.3986,2.334,2.32,2.32,2.32,2.32,2.3189,2.3165,2.3165,2.3153,2.3129,2.3105,2.3105,2.3117,2.3105,2.3058,2.3035,2.2988,2.2988,2.2905,2.2283,2.1756,2.1376,2.0718,2.0325,2.036,2.0046,2.0111,2.0749,2.0749,2.0538,2.0087,2.0052,1.9815,1.9313,1.9313,1.9295,1.9259,1.8879,1.8664,1.8627,1.8154,1.7953,4.4976,4.6032,4.724,4.799,4.7672,4.7888,5.0807,5.0504,4.9784,5.0438,5.0093,4.9439,4.8749,0.0,4.9211,4.897,4.9234,0.0,0.0,0.0,0.0,0.0,0.0,0.0,0.0,0.0,0.0,0.0,0.0,0.0,3.9618,3.8765,3.8086,3.7569,3.6476,3.5673,3.5155,3.4864,3.4475,3.3997,3.393,3.3194,3.1885,3.1414,3.0472,2.9254,2.9067,2.8987,2.8987,2.8987,2.8987,2.884,2.7226,2.5675,2.4393,2.4393,2.4479,2.4567,2.4567,2.4567,2.4567,2.4567,2.4567,2.4567,2.4567,2.4567,2.4567,2.4567,2.4567,2.4459,2.3959,2.3816,2.3816,2.3816,2.3816,2.3774,2.3555,2.3511,2.3466,2.3236,2.32,2.32,2.32,2.32,2.32,2.32,2.32,2.32,2.32,2.2953,2.2564,2.1966,2.1673,2.1511,2.1492,2.1781,2.2116,2.2363,2.1136,2.0464,2.0701,2.0684,2.0602,2.0405,2.0405,2.0405,2.0405,2.0237,2.0183,2.0152,2.001,1.9735,4.5337,4.6147,4.7288,4.8327,4.8428,4.9011,5.1695,5.1575,5.1239,5.2314,5.1592,5.0531,4.9814,0.0,0.0,0.0,0.0,0.0,0.0,0.0,0.0,0.0,0.0,0.0,0.0,0.0,0.0,0.0,0.0,0.0,0.0,3.8667,3.7821,3.7005,3.6198,3.5514,3.4954,3.4688,3.4223,3.3644,3.3995,3.3316,3.1761,3.1334,3.0533,2.9503,2.9312,2.9228,2.9228,2.9228,2.9079,2.8719,2.7348,2.6042,2.4928,2.4703,2.4685,2.4804,2.4804,2.4804,2.4804,2.4804,2.4804,2.4804,2.4804,2.4804,2.4804,2.4804,2.4804,2.4738,2.4479,2.4393,2.4375,2.4294,2.4275,2.421,2.3909,2.3847,2.3795,2.3555,2.3522,2.3522,2.3522,2.3522,2.3522,2.3522,2.3522,2.3522,2.3522,2.3522,2.3274,2.266,2.25,2.2444,2.2444,2.2917,2.32,2.32,2.1818,2.1207,2.1676,2.1709,2.1709,2.1709,2.1709,2.1709,2.1709,2.1576,2.1531,2.1483,2.1347,2.1099,4.6885,4.6885,4.7317,4.8971,4.8779,4.9048,5.2433,5.228,5.2335,5.5589,5.333,5.0584,5.0171,4.9011,0.0,4.8086,0.0,0.0,0.0,0.0,0.0,0.0,0.0,0.0,0.0,0.0,0.0,0.0,0.0,0.0,0.0,3.8469,3.7584,3.6731,3.5923,3.55,3.55,3.4622,3.4167,3.4167,3.3314,3.2201,3.0875,3.0101,2.9724,2.9686,2.9686,2.9686,2.9686,2.9686,2.9213,2.8407,2.7552,2.6722,2.5906,2.5106,2.4804,2.4804,2.4804,2.4804,2.4804,2.4804,2.4804,2.4804,2.4804,2.4804,2.4804,2.4804,2.4804,2.4804,2.4804,2.4804,2.4753,2.4543,2.4485,2.4462,2.4256,2.4199,2.4199,2.4199,2.4199,2.4199,2.4199,2.4199,2.419,2.4199,2.4199,2.4199,2.4199,2.419,2.4056,2.3753,2.3421,2.3212,2.3212,2.3212,2.3212,2.3212,2.32,2.32,2.32,2.32,2.32,2.32,2.32,2.32,2.32,2.2815,2.2629,2.2582,2.2133,2.1907,4.6163,4.6855,4.8009,4.9125,5.0087,5.1346,5.3587,5.2871,5.2203,5.3793,5.2745,5.1326,5.064,5.0191,0.0,4.8317,0.0,0.0,0.0,0.0,0.0,0.0,0.0,0.0,0.0,0.0,0.0,0.0,0.0,0.0,0.0,3.7892,3.6962,3.6692,3.5315,3.4584,3.4584,3.3737,3.3006,3.2429,3.2199,3.1834,3.1458,3.102,3.0494,2.9908,2.9754,2.9686,2.9686,2.9686,2.9213,2.8407,2.7552,2.6805,2.6097,2.526,2.5024,2.5149,2.5149,2.5149,2.5149,2.5149,2.5149,2.5149,2.5149,2.5149,2.5149,2.5149,2.5149,2.5149,2.5149,2.5149,2.5086,2.479,2.4708,2.4693,2.4631,2.4615,2.4615,2.4615,2.4493,2.4471,2.4591,2.4393,2.4312,2.4575,2.4485,2.4419,2.4419,2.4303,2.4161,2.4046,2.4107,2.409,2.409,2.409,2.409,2.409,2.3989,2.3674,2.3212,2.32,2.32,2.32,2.32,2.32,2.32,2.307,2.3022,2.3022,2.2877,2.2793,4.7086,4.7855,4.9009,5.0548,5.1664,5.2779,5.4164,5.3735,5.3156,5.3696,5.261,5.1517,5.137,5.0447,0.0,4.8343,0.0,0.0,0.0,0.0,0.0,0.0,0.0,0.0,0.0,0.0,0.0,0.0,0.0,0.0,0.0,3.7469,3.6538,3.6231,3.5238,3.4578,3.4248,3.3346,3.2499,3.1747,3.1343,3.1192,3.1192,3.1014,3.0654,3.015,3.0037,2.9985,2.9985,2.9985,2.9688,2.9177,2.8287,2.7554,2.6877,2.6347,2.5784,2.5346,2.5692,2.5577,2.5308,2.5308,2.5308,2.5308,2.5308,2.5308,2.5394,2.5763,2.5851,2.59,2.6265,2.6352,2.6102,2.5095,2.4871,2.485,2.4818,2.4804,2.4804,2.4804,2.47,2.4654,2.4782,2.4591,2.451,2.4768,2.47,2.4615,2.4615,2.4501,2.4454,2.4454,2.4534,2.4615,2.4615,2.4615,2.4615,2.4615,2.453,2.4247,2.3833,2.3749,2.3738,2.3814,2.386,2.386,2.386,2.386,2.386,2.386,2.386,2.386,4.8856,4.9336,5.0048,5.2589,5.331,5.3628,5.4359,5.4562,5.4544,5.4467,0.0,5.1385,5.1979,5.0091,4.836,0.0,0.0,0.0,0.0,0.0,0.0,0.0,0.0,0.0,0.0,0.0,0.0,0.0,0.0,0.0,0.0,3.706,3.6258,3.5527,3.5386,3.4955,3.4192,3.3191,3.2348,3.1693,3.0837,3.0425,3.0425,3.0396,3.039,3.0408,3.0419,3.0425,3.0425,3.0414,3.0408,3.0331,2.9434,2.8626,2.7895,2.7911,2.6872,2.5563,2.6424,2.6237,2.5539,2.5563,2.5558,2.5558,2.5558,2.5558,2.5745,2.6606,2.6794,2.6921,2.7807,2.7911,2.7362,2.5587,2.5147,2.5082,2.4888,2.4854,2.4854,2.4854,2.484,2.4832,2.4847,2.4825,2.4804,2.4825,2.4825,2.4825,2.4825,2.4811,2.4804,2.4804,2.4818,2.4825,2.4825,2.4825,2.4825,2.4825,2.4811,2.4811,2.4825,2.4631,2.4607,2.4797,2.4804,2.4804,2.4804,2.4804,2.4804,2.4804,2.4804,2.4804,4.8279,4.8968,5.0147,5.2732,5.4349,5.5191,5.4774,5.4149,5.3468,5.2818,5.2235,5.1567,5.0519,4.9853,4.9021,0.0,0.0,0.0,0.0,0.0,0.0,0.0,0.0,0.0,0.0,0.0,0.0,0.0,0.0,0.0,3.7046,3.6247,3.5776,3.5582,3.436,3.3604,3.3432,3.1895,3.1001,0.0,3.0655,3.0567,3.0559,3.0451,3.0414,3.0486,3.0533,3.0567,3.0559,3.0518,3.0477,3.0395,2.944,2.8626,2.7906,2.7975,2.7322,2.6529,2.7463,2.764,2.7472,2.7427,2.7434,2.7434,2.7434,2.7434,2.7458,2.772,2.781,2.7837,2.8049,2.7568,2.6925,2.6521,2.6314,2.6069,2.5346,2.5182,2.5182,2.5182,2.5053,2.5011,2.5165,2.4981,2.4854,2.4956,2.4974,2.4974,2.4974,2.4857,2.4804,2.4804,2.4891,2.4974,2.4974,2.4974,2.4974,2.4974,2.4843,2.4867,2.4968,2.4802,2.476,2.4797,2.4804,2.4804,2.4804,2.4804,2.4804,2.4804,2.4804,2.4804,4.8583,4.9595,5.1029,5.4019,5.5411,5.5831,5.4977,5.4123,5.3288,5.2463,5.1974,5.1317,5.0204,4.9604,0.0,0.0,0.0,0.0,0.0,0.0,0.0,0.0,0.0,0.0,0.0,0.0,0.0,0.0,0.0,3.7749,3.6892,3.5718,3.5055,3.5055,3.386,3.3008,3.2616,3.1688,3.1029,3.0635,3.0603,3.0583,3.058,3.0521,3.0501,3.0559,3.0565,3.0583,3.058,3.0577,3.0556,3.0513,2.9997,2.9317,2.8667,2.9108,2.8201,2.6931,2.8254,2.8189,2.7522,2.7909,2.8052,2.8052,2.8052,2.8052,2.8148,2.8647,2.8758,2.8817,2.9236,2.8987,2.8529,2.8143,2.7029,2.5925,2.5443,2.5357,2.5344,2.5317,2.5214,2.5187,2.5293,2.5149,2.5074,2.5116,2.5127,2.5127,2.5127,2.5097,2.5043,2.5043,2.5082,2.5127,2.5127,2.5127,2.5127,2.5127,2.5091,2.5086,2.5127,2.5091,2.5043,2.5043,2.5043,2.5043,2.5043,2.5043,2.5043,2.505,2.5082,2.5083,4.8944,5.0559,5.2299,5.5282,5.6125,5.5955,5.4938,5.4144,5.3346,5.2467,5.1589,5.0789,5.0116,4.9171,0.0,0.0,0.0,0.0,0.0,0.0,0.0,0.0,0.0,0.0,0.0,0.0,0.0,0.0,0.0,3.7863,3.6848,3.534,3.4532,3.4532,3.3565,3.2701,3.2043,3.1848,3.1384,3.0723,3.0685,3.066,3.066,3.066,3.0655,3.0606,3.0655,3.066,3.066,3.0647,3.0606,3.0603,3.0589,3.0119,2.9505,3.0331,2.9209,2.7504,2.9106,2.8723,2.7634,2.8327,2.8559,2.8559,2.8559,2.8559,2.8727,2.951,2.9691,2.9821,3.0561,3.0581,3.027,2.9574,2.7667,2.5972,2.5881,2.5628,2.5452,2.555,2.545,2.5335,2.5335,2.5335,2.5335,2.5335,2.5335,2.5335,2.5335,2.5335,2.5335,2.5335,2.5335,2.5335,2.5335,2.5335,2.5335,2.5335,2.5335,2.5335,2.5335,2.5335,2.5335,2.5335,2.5312,2.5312,2.5335,2.5335,2.5335,2.5335,2.5387,2.5431,4.8351,5.1,5.3774,5.5108,5.5909,5.5948,5.4312,5.3783,5.319,0.0,5.0733,4.993,4.9218,0.0,0.0,0.0,0.0,0.0,0.0,0.0,0.0,0.0,0.0,0.0,0.0,0.0,0.0,0.0,3.8369,3.7587,3.5956,3.5042,3.4601,3.4601,3.3113,3.2264,3.2187,3.1404,3.0975,3.0859,3.0858,3.0857,3.0857,3.0857,3.0811,3.0708,3.0813,3.0857,3.0857,3.072,3.0707,3.0663,3.0611,3.0119,2.951,3.0381,3.0046,2.9274,3.0346,3.0545,3.0348,3.0368,3.0357,3.0357,3.0357,3.0357,3.0405,3.0661,3.0702,3.0741,3.0859,3.0311,2.9724,2.9608,2.8748,2.7883,2.7775,2.6537,2.5709,2.6446,2.5974,2.5463,2.5463,2.5463,2.5463,2.5463,2.5463,2.5463,2.5463,2.5463,2.5463,2.5463,2.5463,2.5463,2.5463,2.5463,2.5463,2.5463,2.5463,2.5463,2.5463,2.5463,2.5463,2.5463,2.5434,2.5431,2.5463,2.5463,2.5463,2.5463,2.5473,2.5479,4.9493,5.1265,5.3039,5.5429,5.5845,5.5345,5.4167,5.3818,5.3277,5.1624,5.0655,4.9877,4.9062,0.0,0.0,0.0,0.0,0.0,0.0,0.0,0.0,0.0,0.0,0.0,0.0,0.0,0.0,0.0,3.8722,3.7902,3.6654,3.5378,3.4641,3.4641,3.3046,3.2187,3.2187,3.1328,3.0898,3.0898,3.0898,3.0898,3.0898,3.0898,3.0859,3.0816,3.0859,3.0898,3.0898,3.0857,3.0815,3.0814,3.0764,3.0564,3.0294,3.0656,3.0269,2.9684,3.0586,3.0586,3.0234,3.0661,3.0815,3.0815,3.0815,3.0815,3.0816,3.0898,3.0898,3.0898,3.0898,3.0625,3.0312,3.0312,2.9648,2.914,2.9597,2.8252,2.7133,2.7456,2.6432,2.5805,2.6785,2.6549,2.6235,2.6235,2.6235,2.6041,2.5569,2.5491,2.5491,2.5491,2.5491,2.5491,2.5491,2.5491,2.5491,2.5491,2.596,2.6235,2.6235,2.6707,2.6721,2.6281,2.5756,2.546,2.5491,2.5491,2.5491,2.5491,2.5524,2.5575,4.9687,5.0742,5.1758,5.457,5.5226,5.49,5.3905,0.0,5.3377,0.0,5.0742,4.9922,0.0,0.0,0.0,0.0,0.0,0.0,0.0,0.0,0.0,0.0,0.0,0.0,0.0,0.0,0.0,0.0,3.9414,3.8437,3.7344,3.5859,3.4922,3.4726,3.3281,3.2422,3.2187,3.1328,3.0898,3.0898,3.0898,3.0898,3.0898,3.0898,3.0898,3.0898,3.0898,3.0898,3.0898,3.0898,3.0898,3.0898,3.0898,3.0898,3.0898,3.0898,3.0508,3.0039,3.0664,3.0469,3.0039,3.0703,3.0898,3.0898,3.0898,3.0898,3.0937,3.1172,3.1211,3.1289,3.1484,3.1367,3.1211,3.1211,3.0742,3.0273,3.0234,2.9333,2.8498,2.82,2.71,2.663,2.792,2.7608,2.7178,2.7178,2.7178,2.6942,2.6316,2.6002,2.5886,2.5886,2.5689,2.5533,2.5533,2.5769,2.5886,2.5886,2.6708,2.7178,2.7178,2.7803,2.7857,2.7253,2.6332,2.5769,2.5533,2.5533,2.5533,2.5535,2.5602,2.5612,4.7539,4.8984,5.0508,5.1445,5.3476,5.4843,5.3164,0.0,5.3515,5.1758,5.0742,4.9922,0.0,0.0,0.0,0.0,0.0,0.0,0.0,0.0,0.0,0.0,0.0,0.0,0.0,0.0,0.0,0.0,4.0312,3.9101,3.7383,3.6445,3.5547,3.4726,3.3828,3.2969,3.2226,3.1328,3.0898,3.0898,3.0898,3.0898,3.0898,3.0898,3.0898,3.0898,3.0898,3.0898,3.0898,3.0898,3.0898,3.0898,3.0898,3.0898,3.0898,3.0898,3.0859,3.0859,3.0898,3.0859,3.0859,3.0898,3.0898,3.0898,3.0898,3.0898,3.1055,3.1914,3.2148,3.2305,3.3086,3.2695,3.2148,3.2148,3.2109,3.1406,2.8945,2.9023,2.9297,2.8437,2.8203,2.8164,2.8281,2.8242,2.8203,2.8203,2.8203,2.8203,2.8164,2.7422,2.6914,2.6914,2.6172,2.5703,2.5703,2.6445,2.6914,2.6914,2.7734,2.8203,2.8203,2.8281,2.8281,2.8242,2.7383,2.6523,2.5703,2.5703,2.5703,2.5703,2.5703,2.5703,4.8047,4.8476,4.8984,5.0937,5.2109,5.2617,5.1992,5.2539,5.2812,5.1641,5.0742,4.9922,0.0,0.0,0.0,0.0,0.0,0.0,0.0,0.0,0.0,0.0,0.0,0.0,0.0,0.0,0.0,0.0,0.0,3.9375,3.8203,3.7305,3.6445,3.5547,3.4687,3.3594,3.2226,3.1328,3.0898,3.0898,3.0898,3.0898,3.0898,3.0898,3.0898,3.0898,3.0898,3.0898,3.0898,3.0898,3.0898,3.0898,3.0898,3.0898,3.0898,3.0898,3.0898,3.0898,3.0898,3.0898,3.0898,3.0898,3.1289,3.1719,3.1719,3.1719,3.1914,3.2734,3.2617,3.2383,3.3203,3.3203,3.2969,3.2969,3.2969,3.2695,3.1797,3.0547,2.9687,2.9922,2.9062,2.8672,2.9766,2.9492,2.9141,2.9141,2.9141,2.8945,2.8359,2.8047,2.7812,2.7812,2.7578,2.7383,2.7383,2.7656,2.7812,2.7812,2.8633,2.9141,2.9141,2.9604,2.9597,2.909,2.8675,2.7828,2.6523,2.6523,2.6523,2.6562,2.7109,2.7383,4.7695,4.7812,4.8086,5.0078,5.0781,5.0976,5.0934,5.1596,5.1946,5.1037,5.0692,5.019,0.0,0.0,0.0,0.0,0.0,0.0,0.0,0.0,0.0,0.0,0.0,0.0,0.0,0.0,0.0,0.0,0.0,0.0,3.8672,3.8047,3.707,3.5625,3.4726,3.3594,3.2226,3.1328,3.0898,3.0898,3.0898,3.0898,3.0898,3.0898,3.0898,3.0898,3.0898,3.0898,3.0898,3.0898,3.0898,3.0898,3.0898,3.0898,3.0898,3.0898,3.0898,3.0898,3.0898,3.0898,3.0937,3.125,3.1718,3.2184,3.25,3.2577,3.2731,3.3593,3.3437,3.3203,3.402,3.4014,3.3773,3.3773,3.3539,3.3421,3.3695,3.2223,3.1055,3.1641,3.0781,3.0391,3.1523,3.125,3.0781,3.0508,3.0469,3.0156,2.9297,2.8906,2.875,2.875,2.8476,2.8281,2.8281,2.8555,2.8711,2.8708,2.9489,2.9955,2.9948,3.0705,3.0728,2.9909,2.9783,2.9099,2.7759,2.7485,2.7368,2.7368,2.7954,2.8228,0.0,0.0,0.0,4.8594,4.9492,5.0077,4.9932,0.0,5.087,4.9967,5.0452,5.0577,4.8974,0.0,0.0,0.0,0.0,0.0,0.0,0.0,0.0,0.0,0.0,0.0,0.0,0.0,0.0,0.0,4.2148,4.0469,3.8711,3.8594,3.7383,3.4766,3.3867,3.3008,3.2226,3.1367,3.0937,3.0898,3.0937,3.0937,3.0898,3.0898,3.0898,3.0898,3.0898,3.0898,3.0898,3.0898,3.0898,3.0898,3.0898,3.0898,3.0898,3.0937,3.0937,3.0937,3.0976,3.0976,3.1094,3.1953,3.2179,3.2235,3.3162,3.3389,3.3524,3.4451,3.4726,3.4881,3.5677,3.5232,3.4549,3.4549,3.3881,3.3527,3.439,3.4028,3.3476,3.3398,3.3398,3.3398,3.3398,3.3398,3.3125,3.2344,3.2226,3.1914,3.1094,3.0234,2.9726,2.9726,2.8945,2.8437,2.8437,2.9219,2.9684,2.962,3.0321,3.0732,3.0664,3.1472,3.1511,3.0658,3.0607,3.0173,2.9321,2.8543,2.8151,2.8151,2.8151,2.8151,4.6289,0.0,0.0,0.0,0.0,0.0,0.0,0.0,4.9184,4.9025,4.8694,4.8316,4.7847,0.0,0.0,0.0,0.0,0.0,0.0,0.0,0.0,0.0,0.0,0.0,0.0,0.0,0.0,0.0,4.2148,4.0703,3.9609,3.8359,3.6758,3.4766,3.3867,3.3008,3.2226,3.1953,3.1523,3.0898,3.1523,3.1523,3.0898,3.0898,3.0898,3.0898,3.0898,3.0898,3.0898,3.0898,3.0898,3.0898,3.0898,3.0898,3.0976,3.1601,3.1836,3.1914,3.25,3.2695,3.2734,3.2917,3.341,3.3904,3.4114,3.4169,3.4353,3.5195,3.5005,3.4728,3.5569,3.5548,3.5373,3.5373,3.5175,3.5252,3.6105,3.6141,3.5483,3.3685,3.3355,3.3398,3.3398,3.3398,3.332,3.3086,3.3086,3.2969,3.2734,3.25,3.2344,3.2344,3.2102,3.1932,3.1932,3.2097,3.2218,3.216,3.2397,3.2502,3.248,3.207,3.1723,3.1452,3.0782,3.0341,3.007,2.9341,2.8976,2.8976,2.9605,2.9885,0.0,0.0,0.0,0.0,0.0,0.0,4.7221,4.7578,4.7877,0.0,4.7864,4.7661,4.731,4.7348,0.0,0.0,0.0,0.0,0.0,0.0,0.0,0.0,0.0,0.0,0.0,4.5039,4.4101,4.3711,4.2461,4.1172,3.9961,3.8242,3.668,3.5273,3.4023,3.3008,3.2226,3.1836,3.1406,3.0898,3.1406,3.1406,3.0898,3.1289,3.125,3.0937,3.1289,3.121,3.0816,3.0816,3.0816,3.0816,3.0816,3.0811,3.0839,3.1347,3.1775,3.2126,3.2595,3.3023,3.3373,3.3715,3.4168,3.4613,3.4995,3.5048,3.5097,3.5567,3.5344,3.5072,3.5542,3.5624,3.5699,3.6048,3.6125,3.6358,3.7244,3.7444,3.6923,3.5179,3.4874,3.4776,3.4428,3.4351,3.4233,3.392,3.3842,3.3725,3.3373,3.3334,3.3334,3.3334,3.3269,3.3246,3.3246,3.3206,3.3199,3.3118,3.3114,3.3098,3.3093,3.2908,3.264,3.2254,3.2093,3.1814,3.1423,3.0308,2.9756,2.9756,3.0268,3.0509,0.0,0.0,0.0,0.0,0.0,0.0,4.6833,4.6964,4.697,0.0,4.7442,4.7791,4.7009,4.7035,4.7207,0.0,0.0,0.0,0.0,0.0,0.0,0.0,0.0,0.0,4.6523,4.5586,4.4687,4.3906,4.2969,4.1641,3.9844,3.8281,3.6953,3.5898,3.4258,3.3008,3.2226,3.1445,3.1016,3.0898,3.1094,3.1133,3.1055,3.1953,3.1914,3.1211,3.1992,3.1752,3.0831,3.0827,3.0785,3.0708,3.0708,3.0639,3.0622,3.0817,3.1397,3.2056,3.225,3.283,3.3618,3.4423,3.4678,3.4795,3.5636,3.5766,3.5705,3.5694,3.5697,3.572,3.572,3.5733,3.5962,3.6654,3.6846,3.7084,3.7969,3.8209,3.8031,3.7368,3.7211,3.6879,3.5995,3.584,3.5606,3.4899,3.4704,3.4429,3.3838,3.3683,3.3644,3.3761,3.375,3.3704,3.3626,3.3615,3.3494,3.3272,3.3262,3.3252,3.3205,3.3853,3.3859,3.3045,3.3705,3.366,3.2891,3.1385,3.0692,3.0692,3.0692,3.0692,0.0,0.0,0.0,0.0,0.0,0.0,4.6184,4.6507,4.6767,0.0,4.6144,4.6248,4.6087,4.6652,4.7179,0.0,0.0,0.0,0.0,0.0,0.0,0.0,0.0,0.0,4.7344,4.5937,4.4922,4.4766,4.3281,4.1367,3.8984,3.8516,3.7305,3.5039,3.3945,3.3008,3.2226,3.2031,3.1601,3.0937,3.2266,3.2578,3.1953,3.2773,3.3086,3.293,3.3035,3.2592,3.1729,3.168,3.1265,3.0606,3.0606,3.0598,3.0778,3.2182,3.2804,3.3155,3.4478,3.5061,3.5246,3.5374,3.5438,3.5479,3.5607,3.565,3.5606,3.5564,3.6003,3.6478,3.6478,3.699,3.7546,3.77,3.7738,3.8007,3.8854,3.9076,3.9035,3.8877,3.8417,3.7767,3.6918,3.6766,3.6689,3.6529,3.591,3.5914,3.7144,3.6681,3.6529,3.7218,3.722,3.6895,3.6236,3.6089,3.5734,3.5046,3.5008,3.4995,3.5,3.4468,3.4129,3.3936,3.343,3.3083,3.2891,3.2583,3.2429,3.2429,3.2429,3.2429,0.0,0.0,0.0,4.656,0.0,0.0,0.0,4.6287,4.6159,4.5773,4.5719,4.5719,4.5719,4.6078,4.6654,4.748,4.836,0.0,0.0,0.0,0.0,0.0,0.0,0.0,4.7656,4.6363,4.5384,4.5039,4.3398,4.1836,4.0547,3.9297,3.8008,3.668,3.4961,3.3867,3.3437,3.3008,3.2578,3.2148,3.3008,3.3203,3.2812,3.3672,3.3828,3.3437,3.3824,3.3452,3.2589,3.2589,3.2247,3.168,3.0847,3.1029,3.1787,3.2261,3.2996,3.381,3.4667,3.5248,3.5591,3.5591,3.5636,3.5711,3.6115,3.6195,3.6151,3.6105,3.6385,3.6692,3.6692,3.7353,3.8123,3.8546,3.8661,3.8892,3.9708,3.99,3.99,3.99,3.9612,3.8982,3.7705,3.7517,3.7517,3.7517,3.713,3.7168,3.8053,3.7788,3.7672,3.8092,3.8105,3.7713,3.6864,3.6748,3.6346,3.5538,3.55,3.55,3.55,3.5468,3.5468,3.5468,3.5007,3.4584,3.4199,3.4199,3.3737,3.2891,3.2891,3.2891,0.0,0.0,0.0,0.0,0.0,4.6408,0.0,0.0,0.0,4.5633,4.5594,0.0,0.0,0.0,0.0,0.0,0.0,0.0,0.0,0.0,0.0,0.0,0.0,0.0,4.7804,4.6724,4.5789,4.5039,4.3515,4.2499,4.2187,3.9883,3.8516,3.8359,3.5976,3.4687,3.4687,3.3828,3.3398,3.3398,3.3555,3.3633,3.3672,3.453,3.4569,3.3905,3.4563,3.4328,3.3407,3.3462,3.3355,3.3025,3.1555,3.1795,3.2852,3.2352,3.3045,3.4205,3.4398,3.493,3.5527,3.5548,3.5604,3.5746,3.6632,3.6818,3.6779,3.6899,3.7084,3.7199,3.7199,3.7853,3.8661,3.9361,3.9515,3.9708,4.0362,4.0516,4.0516,4.0516,4.0516,4.0015,3.8507,3.8238,3.8238,3.8238,3.8123,3.8123,3.843,3.8354,3.8315,3.8469,3.8469,3.8123,3.7276,3.7046,3.6654,3.6,3.5808,3.5808,3.5962,3.6615,3.6962,3.6962,3.6962,3.6615,3.5962,3.5962,3.5077,3.3391,3.3391,3.3391,0.0,0.0,0.0,0.0,4.7708,0.0,0.0,0.0,4.6547,4.5748,0.0,0.0,0.0,0.0,0.0,0.0,0.0,0.0,4.7339,0.0,0.0,4.9889,0.0,0.0,0.0,4.6882,4.566,4.5039,4.4049,4.2833,4.1406,3.9609,3.8242,3.7461,3.5664,3.4687,3.4687,3.3828,3.3398,3.3398,3.418,3.4531,3.457,3.5376,3.5715,3.5593,3.5542,3.4981,3.4173,3.4108,3.4064,3.3949,3.3112,3.2849,3.2968,3.3667,3.4052,3.4321,3.5084,3.5423,3.55,3.5527,3.5558,3.5746,3.6632,3.6892,3.7002,3.7665,3.8392,3.9008,3.9008,3.9631,4.0246,4.0323,4.0362,4.04,4.0477,4.0516,4.0516,4.0516,4.0516,4.0208,3.9323,3.9169,3.9169,3.9169,3.8469,3.8546,4.0015,3.9592,3.9438,4.0131,4.0208,3.99,3.9092,3.8315,3.7815,3.7738,3.7007,3.6923,3.77,3.7815,3.7853,3.7853,3.7853,3.7815,3.7738,3.7738,3.6853,3.5192,3.5192,3.5192,0.0,0.0,0.0,0.0,0.0,0.0,4.6515,0.0,4.6047,0.0,0.0,0.0,0.0,0.0,0.0,0.0,4.6432,0.0,0.0,0.0,4.8058,0.0,0.0,0.0,0.0,0.0,0.0,0.0,4.4382,4.3336,4.2695,4.0547,3.918,3.8828,3.7109,3.6211,3.6211,3.5351,3.4922,3.4922,3.5781,3.5936,3.5417,3.6263,3.6356,3.5772,3.5698,3.543,3.5049,3.5078,3.53,3.5643,3.5383,3.4925,3.4391,3.4237,3.4814,3.5699,3.6077,3.6538,3.6969,3.6969,3.7326,3.781,3.8196,3.8273,3.8375,3.8683,3.9015,3.9284,3.9284,3.99,4.0516,4.0516,4.0893,4.1239,4.1239,4.1662,4.1854,4.1354,4.1239,4.0969,4.0131,4.0015,4.0015,4.0015,3.9669,3.9708,4.04,4.0208,4.0131,4.0477,4.0516,4.0169,3.9361,3.8969,3.8546,3.8046,3.7661,3.7853,3.87,3.8738,3.8738,3.8738,3.8738,3.8507,3.8007,3.8007,3.7392,3.6192,3.6192,3.6192,4.9059,0.0,0.0,0.0,0.0,0.0,0.0,0.0,0.0,0.0,0.0,0.0,0.0,0.0,0.0,0.0,0.0,4.6471,0.0,0.0,0.0,0.0,0.0,0.0,0.0,0.0,0.0,4.5731,4.4392,4.3478,4.3359,4.1133,3.9883,3.9883,3.8437,3.7656,3.7656,3.7031,3.6719,3.6719,3.7344,3.7261,3.6602,3.7214,3.7091,3.6378,3.6349,3.628,3.6273,3.6295,3.6605,3.7053,3.7147,3.6768,3.6115,3.5468,3.6007,3.7046,3.7046,3.7469,3.8007,3.8007,3.843,3.8977,3.9246,3.9284,3.9361,3.9554,3.9631,3.9631,3.9631,4.0054,4.0554,4.0785,4.1354,4.1885,4.2085,4.2662,4.2893,4.2277,4.2162,4.197,4.1324,4.1016,4.0785,4.0554,4.0708,4.0785,4.0516,4.0516,4.0593,4.0823,4.0631,4.0362,4.0008,3.9554,3.9015,3.8392,3.8546,3.8969,3.9592,3.9631,3.9631,3.9631,3.9631,3.9323,3.87,3.87,3.8354,3.7738,3.7038,3.6577,0.0,0.0,0.0,4.8915,0.0,0.0,0.0,0.0,4.5594,0.0,0.0,0.0,0.0,0.0,0.0,0.0,0.0,0.0,0.0,0.0,0.0,0.0,0.0,0.0,0.0,0.0,4.5395,4.4863,4.3945,4.3114,4.2461,4.082,3.9883,3.9883,3.9023,3.8555,3.8555,3.8516,3.8516,3.8516,3.8555,3.8471,3.8315,3.829,3.8192,3.802,3.7944,3.7945,3.7899,3.7945,3.7938,3.7969,3.7976,3.7938,3.793,3.7892,3.7892,3.7969,3.7969,3.7969,3.8007,3.8007,3.8007,3.82,3.9053,3.9284,3.9477,4.0246,4.0477,4.0477,4.0477,4.0477,4.0708,4.1546,4.1769,4.2038,4.2893,4.3085,4.3085,4.3047,4.3047,4.3047,4.3008,4.2316,4.147,4.0631,4.1239,4.147,4.0593,4.0516,4.0816,4.1662,4.1008,4.0816,4.1654,4.0239,3.9284,3.9246,3.9977,4.0439,4.0477,4.0477,4.0477,4.0477,4.0477,4.0439,4.0439,4.0439,4.04,4.0323,3.7853,3.6269,0.0,0.0,4.8514,4.8644,0.0,0.0,0.0,0.0,0.0,0.0,0.0,0.0,0.0,0.0,0.0,0.0,0.0,0.0,0.0,0.0,0.0,0.0,0.0,0.0,0.0,0.0,0.0,4.4865,4.4504,4.3747,4.2461,4.2422,4.2148,4.1562,4.1289,4.0859,4.0312,3.9766,3.918,3.8594,3.9093,3.8982,3.8368,3.8814,3.8645,3.8015,3.7998,3.8007,3.8007,3.8007,3.8354,3.8854,3.8854,3.9207,3.953,3.8498,3.8427,3.8931,3.9477,3.9669,3.9669,3.9669,3.9669,3.9708,4.0015,4.0092,4.0169,4.0439,4.0931,4.1239,4.0669,4.0931,4.1431,4.1731,4.2239,4.2893,4.3701,4.4355,4.4586,4.4008,4.3893,4.3739,4.3201,4.3316,4.3162,4.2354,4.247,4.2547,4.2239,4.22,4.2124,4.1808,4.2047,4.2124,4.1808,4.1816,4.1816,4.1816,4.2085,4.22,4.22,4.22,4.22,4.22,4.1662,4.1354,4.1354,4.0785,4.0246,3.9662,3.8588,3.806,4.6574,4.7014,0.0,4.8057,4.7379,0.0,4.673,0.0,0.0,0.0,0.0,0.0,0.0,0.0,0.0,0.0,0.0,0.0,0.0,4.5736,0.0,0.0,0.0,0.0,0.0,0.0,4.5531,4.4831,4.4799,4.4236,0.0,0.0,4.3437,4.2891,4.2851,4.2461,4.1641,4.1055,4.0351,3.9531,3.9992,3.9874,3.9217,3.9699,3.9547,3.8954,3.8954,3.8954,3.8954,3.8954,3.9266,3.9746,3.9746,4.0246,4.0793,3.9496,3.9315,3.9785,4.0323,4.0516,4.0516,4.0516,4.0516,4.0516,4.0516,4.0516,4.0554,4.0893,4.1354,4.1739,4.147,4.1854,4.2316,4.2624,4.3124,4.3739,4.4586,4.521,4.5441,4.4855,4.4739,4.4586,4.4085,4.4432,4.4393,4.3278,4.3355,4.3431,4.3124,4.3085,4.3008,4.2739,4.2931,4.2854,4.2316,4.2777,4.3085,4.3085,4.3085,4.3085,4.3085,4.3085,4.3085,4.3085,4.2547,4.2277,4.2277,4.17,4.1008,4.02,3.9976,3.9832]}]]